[[{"header":{"parameterUnit":"m.s-1","parameterCategory":1,"la1":30.6,"la2":28.766,"lo1":-90.7593,"lo2":-88.6598,"dx":0.0162,"dy":0.0183,"nx":116,"ny":114,"refTime":"2022-12-10T18:00:00:Z","depth":0,"parameterNumber":2,"parameterNumberName":"U-component_of_WINDS"},"data":[0.0,0.0,0.0,0.0,0.0,0.0,0.0,0.0,0.0,0.0,0.0,0.0,0.0,0.0,0.0,0.0,0.0,0.0,0.0,0.0,0.0,0.0,0.0,0.0,0.0,0.0,0.0,0.0,0.0,0.0,0.0,0.0,0.0,0.0,0.0,0.0,0.0,0.0,0.0,0.0,0.0,0.0,0.0,0.0,0.0,0.0,0.0,0.0,0.0,0.0,0.0,0.0,0.0,0.0,0.0,0.0,0.0,0.0,0.0,0.0,0.0,0.0,0.0,0.0,0.0,0.0,0.0,0.0,0.0,0.0,0.0,0.0,0.0,0.0,0.0,0.0,0.0,0.0,0.0,0.0,0.0,0.0,0.0,0.0,0.0,0.0,0.0,0.0,0.0,0.0,0.0,0.0,0.0,0.0,0.0,0.0,0.0,0.0,0.0,0.0,0.0,0.0,0.0,0.0,0.0,0.0,0.0,0.0,0.0,0.0,0.0,0.0,0.0,0.0,0.0,0.0,0.0,0.0,0.0,0.0,0.0,0.0,0.0,0.0,0.0,0.0,0.0,0.0,0.0,0.0,0.0,0.0,0.0,0.0,0.0,0.0,0.0,0.0,0.0,0.0,0.0,0.0,0.0,0.0,0.0,0.0,0.0,0.0,0.0,0.0,0.0,0.0,0.0,0.0,0.0,0.0,0.0,0.0,0.0,0.0,0.0,0.0,0.0,0.0,0.0,0.0,0.0,0.0,0.0,0.0,0.0,0.0,0.0,0.0,0.0,0.0,0.0,0.0,0.0,0.0,0.0,0.0,0.0,0.0,0.0,0.0,0.0,0.0,0.0,0.0,0.0,0.0,0.0,0.0,0.0,0.0,0.0,0.0,0.0,0.0,0.0,0.0,0.0,0.0,0.0,0.0,0.0,0.0,0.0,0.0,0.0,0.0,0.0,0.0,0.0,0.0,0.0,0.0,0.0,0.0,0.0,0.0,0.0,0.0,0.0,0.0,0.0,0.0,0.0,0.0,0.0,0.0,0.0,0.0,0.0,0.0,0.0,0.0,0.0,0.0,0.0,0.0,0.0,0.0,0.0,0.0,0.0,0.0,0.0,0.0,0.0,0.0,0.0,0.0,0.0,0.0,0.0,0.0,0.0,0.0,0.0,0.0,0.0,0.0,0.0,0.0,0.0,0.0,0.0,0.0,0.0,0.0,0.0,0.0,0.0,0.0,0.0,0.0,0.0,0.0,0.0,0.0,0.0,0.0,0.0,0.0,0.0,0.0,0.0,0.0,0.0,0.0,0.0,0.0,0.0,0.0,0.0,0.0,0.0,0.0,0.0,0.0,0.0,0.0,0.0,0.0,0.0,0.0,0.0,0.0,0.0,0.0,0.0,0.0,0.0,0.0,0.0,0.0,0.0,0.0,0.0,0.0,0.0,0.0,0.0,0.0,0.0,0.0,0.0,0.0,0.0,0.0,0.0,0.0,0.0,0.0,0.0,0.0,0.0,0.0,0.0,0.0,0.0,0.0,0.0,0.0,0.0,0.0,0.0,0.0,0.0,0.0,0.0,0.0,0.0,0.0,0.0,0.0,0.0,0.0,0.0,0.0,0.0,0.0,0.0,0.0,0.0,0.0,0.0,0.0,0.0,0.0,0.0,0.0,0.0,0.0,0.0,0.0,0.0,0.0,0.0,0.0,0.0,0.0,0.0,0.0,0.0,0.0,0.0,0.0,0.0,0.0,0.0,0.0,0.0,0.0,0.0,0.0,0.0,0.0,0.0,0.0,0.0,0.0,0.0,0.0,0.0,0.0,0.0,0.0,0.0,0.0,0.0,0.0,0.0,0.0,0.0,0.0,0.0,0.0,0.0,0.0,0.0,0.0,0.0,0.0,0.0,0.0,0.0,0.0,0.0,0.0,0.0,0.0,0.0,0.0,0.0,0.0,0.0,0.0,0.0,0.0,0.0,0.0,0.0,0.0,0.0,0.0,0.0,0.0,0.0,0.0,0.0,0.0,0.0,0.0,0.0,0.0,0.0,0.0,0.0,0.0,0.0,0.0,0.0,0.0,0.0,0.0,0.0,0.0,0.0,0.0,0.0,0.0,0.0,0.0,0.0,0.0,0.0,0.0,0.0,0.0,0.0,0.0,0.0,0.0,0.0,0.0,0.0,0.0,0.0,0.0,0.0,0.0,0.0,0.0,0.0,0.0,0.0,0.0,0.0,0.0,0.0,0.0,0.0,0.0,0.0,0.0,0.0,0.0,0.0,0.0,0.0,0.0,0.0,0.0,0.0,0.0,0.0,0.0,0.0,0.0,0.0,0.0,0.0,0.0,0.0,0.0,0.0,0.0,0.0,0.0,0.0,0.0,0.0,0.0,0.0,0.0,0.0,0.0,0.0,0.0,0.0,0.0,0.0,0.0,0.0,0.0,0.0,0.0,0.0,0.0,0.0,0.0,0.0,0.0,0.0,0.0,0.0,0.0,0.0,0.0,0.0,0.0,0.0,0.0,0.0,0.0,0.0,0.0,0.0,0.0,0.0,0.0,0.0,0.0,0.0,0.0,0.0,0.0,0.0,0.0,0.0,0.0,0.0,0.0,0.0,0.0,0.0,0.0,0.0,0.0,0.0,0.0,0.0,0.0,0.0,0.0,0.0,0.0,0.0,0.0,0.0,0.0,0.0,0.0,0.0,0.0,0.0,0.0,0.0,0.0,0.0,0.0,0.0,0.0,0.0,0.0,0.0,0.0,0.0,0.0,0.0,0.0,0.0,0.0,0.0,0.0,0.0,0.0,0.0,0.0,0.0,0.0,0.0,0.0,0.0,0.0,0.0,0.0,0.0,0.0,0.0,0.0,0.0,0.0,0.0,0.0,0.0,0.0,0.0,0.0,0.0,0.0,0.0,0.0,0.0,0.0,0.0,0.0,0.0,0.0,0.0,0.0,0.0,0.0,0.0,0.0,0.0,0.0,0.0,0.0,0.0,0.0,0.0,0.0,0.0,0.0,0.0,0.0,0.0,0.0,0.0,0.0,0.0,0.0,0.0,0.0,0.0,0.0,0.0,0.0,0.0,0.0,0.0,0.0,0.0,0.0,0.0,0.0,0.0,0.0,0.0,0.0,0.0,0.0,0.0,0.0,0.0,0.0,0.0,0.0,0.0,0.0,0.0,0.0,0.0,0.0,0.0,0.0,0.0,0.0,0.0,0.0,0.0,0.0,0.0,0.0,0.0,0.0,0.0,0.0,0.0,0.0,0.0,0.0,0.0,0.0,0.0,0.0,0.0,0.0,0.0,0.0,0.0,0.0,0.0,0.0,0.0,0.0,0.0,0.0,0.0,0.0,0.0,0.0,0.0,0.0,0.0,0.0,0.0,0.0,0.0,0.0,0.0,0.0,0.0,0.0,0.0,0.0,0.0,0.0,0.0,0.0,0.0,0.0,0.0,0.0,0.0,0.0,0.0,0.0,0.0,0.0,0.0,0.0,0.0,0.0,0.0,0.0,0.0,0.0,0.0,0.0,0.0,0.0,0.0,0.0,0.0,0.0,0.0,0.0,0.0,0.0,0.0,0.0,0.0,0.0,0.0,0.0,0.0,0.0,0.0,0.0,0.0,0.0,0.0,0.0,0.0,0.0,0.0,0.0,0.0,0.0,0.0,0.0,0.0,0.0,0.0,0.0,0.0,0.0,0.0,0.0,0.0,0.0,0.0,0.0,0.0,0.0,0.0,0.0,0.0,0.0,0.0,0.0,0.0,0.0,0.0,0.0,0.0,0.0,0.0,0.0,0.0,0.0,0.0,0.0,0.0,0.0,0.0,0.0,0.0,0.0,0.0,0.0,0.0,0.0,0.0,0.0,0.0,0.0,0.0,0.0,0.0,0.0,0.0,0.0,0.0,0.0,0.0,0.0,0.0,0.0,0.0,0.0,0.0,0.0,0.0,0.0,0.0,0.0,0.0,0.0,0.0,0.0,0.0,0.0,0.0,0.0,0.0,0.0,0.0,0.0,0.0,0.0,0.0,0.0,0.0,0.0,0.0,0.0,0.0,0.0,0.0,0.0,0.0,0.0,0.0,0.0,0.0,0.0,0.0,0.0,0.0,0.0,0.0,0.0,0.0,0.0,0.0,0.0,0.0,0.0,0.0,0.0,0.0,0.0,0.0,0.0,0.0,0.0,0.0,0.0,0.0,0.0,0.0,0.0,0.0,0.0,0.0,0.0,0.0,0.0,0.0,0.0,0.0,0.0,0.0,0.0,0.0,0.0,0.0,0.0,0.0,0.0,0.0,0.0,0.0,0.0,0.0,0.0,0.0,0.0,0.0,0.0,0.0,0.0,0.0,0.0,0.0,0.0,0.0,0.0,0.0,0.0,0.0,0.0,0.0,0.0,0.0,0.0,0.0,0.0,0.0,0.0,0.0,0.0,0.0,0.0,0.0,0.0,0.0,0.0,0.0,0.0,0.0,0.0,0.0,0.0,0.0,0.0,0.0,0.0,0.0,0.0,0.0,0.0,0.0,0.0,0.0,0.0,0.0,0.0,0.0,0.0,0.0,0.0,0.0,0.0,0.0,0.0,0.0,0.0,0.0,0.0,0.0,0.0,0.0,0.0,0.0,0.0,0.0,0.0,0.0,0.0,0.0,0.0,0.0,0.0,0.0,0.0,0.0,0.0,0.0,0.0,0.0,0.0,0.0,0.0,0.0,0.0,0.0,0.0,0.0,0.0,0.0,0.0,0.0,0.0,0.0,0.0,0.0,0.0,0.0,0.0,0.0,0.0,0.0,0.0,0.0,0.0,0.0,0.0,0.0,0.0,0.0,0.0,0.0,0.0,0.0,0.0,0.0,0.0,0.0,0.0,0.0,0.0,0.0,0.0,0.0,0.0,0.0,0.0,0.0,0.0,0.0,0.0,0.0,0.0,0.0,0.0,0.0,0.0,0.0,0.0,0.0,0.0,0.0,0.0,0.0,0.0,0.0,0.0,0.0,0.0,0.0,0.0,0.0,0.0,0.0,0.0,0.0,0.0,0.0,0.0,0.0,0.0,0.0,0.0,0.0,0.0,0.0,0.0,0.0,0.0,0.0,0.0,0.0,0.0,0.0,0.0,0.0,0.0,0.0,0.0,0.0,0.0,0.0,0.0,0.0,0.0,0.0,0.0,0.0,0.0,0.0,0.0,0.0,0.0,0.0,0.0,0.0,0.0,0.0,0.0,0.0,0.0,0.0,0.0,0.0,0.0,0.0,0.0,0.0,0.0,0.0,0.0,0.0,0.0,0.0,0.0,0.0,0.0,0.0,0.0,0.0,0.0,0.0,0.0,0.0,0.0,0.0,0.0,0.0,0.0,0.0,0.0,0.0,0.0,0.0,0.0,0.0,0.0,0.0,0.0,0.0,0.0,0.0,0.0,0.0,0.0,0.0,0.0,0.0,0.0,0.0,0.0,0.0,0.0,0.0,0.0,0.0,0.0,0.0,0.0,0.0,0.0,0.0,0.0,0.0,0.0,0.0,0.0,0.0,0.0,0.0,0.0,0.0,0.0,0.0,0.0,0.0,0.0,0.0,0.0,0.0,0.0,0.0,0.0,0.0,0.0,0.0,0.0,0.0,0.0,0.0,0.0,0.0,0.0,0.0,0.0,0.0,0.0,0.0,0.0,0.0,0.0,0.0,0.0,0.0,0.0,0.0,0.0,0.0,0.0,0.0,0.0,0.0,0.0,0.0,0.0,0.0,0.0,0.0,0.0,0.0,0.0,0.0,0.0,0.0,0.0,0.0,0.0,0.0,0.0,0.0,0.0,0.0,0.0,0.0,0.0,0.0,0.0,0.0,0.0,0.0,0.0,0.0,0.0,0.0,0.0,0.0,0.0,0.0,0.0,0.0,0.0,0.0,0.0,0.0,0.0,0.0,0.0,0.0,0.0,0.0,0.0,0.0,0.0,0.0,0.0,0.0,0.0,0.0,0.0,0.0,0.0,0.0,0.0,0.0,0.0,0.0,0.0,0.0,0.0,0.0,0.0,0.0,0.0,0.0,0.0,0.0,0.0,0.0,0.0,0.0,0.0,0.0,0.0,0.0,0.0,0.0,0.0,0.0,0.0,0.0,0.0,0.0,0.0,-1.5352,-1.2734,0.0,0.0,0.0,0.0,0.0,0.0,0.0,0.0,0.0,0.0,0.0,0.0,0.0,0.0,0.0,0.0,0.0,0.0,0.0,0.0,0.0,0.0,0.0,-1.0131,-1.0281,-1.0281,-1.0281,0.0,0.0,0.0,0.0,0.0,0.0,0.0,0.0,0.0,-0.7277,-0.7567,-0.8226,-0.964,-1.1767,-1.041,-0.9355,-0.8535,0.0,0.0,0.0,0.0,0.0,0.0,0.0,0.0,0.0,0.0,0.0,0.0,0.0,0.0,0.0,0.0,0.0,0.0,0.0,0.0,0.0,0.0,0.0,0.0,0.0,0.0,0.0,0.0,0.0,0.0,0.0,0.0,0.0,0.0,0.0,0.0,0.0,0.0,0.0,0.0,0.0,0.0,0.0,0.0,0.0,0.0,0.0,0.0,0.0,0.0,0.0,0.0,0.0,0.0,0.0,0.0,0.0,0.0,0.0,0.0,0.0,0.0,0.0,0.0,0.0,0.0,0.0,0.0,0.0,0.0,-1.7832,-1.6074,0.0,0.0,0.0,0.0,0.0,0.0,0.0,0.0,0.0,0.0,0.0,0.0,0.0,0.0,0.0,0.0,0.0,0.0,0.0,0.0,0.0,-1.0094,-1.0194,-1.0682,-1.1019,-1.1119,-1.1044,-1.0958,-1.0858,-1.0331,0.0,0.0,0.0,0.0,-0.7386,-0.7733,-0.8156,-0.8647,-1.0492,-1.238,-1.4297,-1.4699,-1.3938,-1.2164,-1.0585,0.0,0.0,0.0,0.0,0.0,0.0,0.0,0.0,0.0,0.0,0.0,0.0,0.0,0.0,0.0,0.0,0.0,0.0,0.0,0.0,0.0,0.0,0.0,0.0,0.0,0.0,0.0,0.0,0.0,0.0,0.0,0.0,0.0,0.0,0.0,0.0,0.0,0.0,0.0,0.0,0.0,0.0,0.0,0.0,0.0,0.0,0.0,0.0,0.0,0.0,0.0,0.0,0.0,0.0,0.0,0.0,0.0,0.0,0.0,0.0,0.0,0.0,0.0,-2.0469,-2.0977,-2.0664,-2.1407,-2.2461,-2.3588,-2.0449,-2.0059,-2.1366,-1.7754,0.0,0.0,0.0,0.0,0.0,0.0,0.0,0.0,0.0,0.0,0.0,0.0,0.0,0.0,0.0,0.0,0.0,0.0,0.0,-1.0783,-1.1314,-1.1851,-1.2363,-1.2822,-1.2438,-1.1977,-1.15,-1.0908,0.0,0.0,0.0,-0.8848,-0.8335,-0.8664,-0.9485,-1.0789,-1.4859,-1.7045,-1.7422,-1.7818,-1.7857,-1.7467,-1.4679,-1.2788,-1.1638,0.0,0.0,0.0,0.0,0.0,0.0,0.0,0.0,0.0,0.0,0.0,0.0,0.0,0.0,0.0,0.0,0.0,0.0,0.0,0.0,0.0,0.0,0.0,0.0,0.0,0.0,0.0,0.0,0.0,0.0,0.0,0.0,0.0,0.0,0.0,0.0,0.0,0.0,0.0,0.0,0.0,-1.5537,-1.5654,0.0,0.0,0.0,0.0,0.0,0.0,0.0,0.0,0.0,0.0,0.0,0.0,0.0,-1.8208,-1.8848,-2.125,-2.2613,-2.3047,-2.5098,-2.6055,-2.5996,-2.6113,-2.6289,-2.6484,-2.5957,0.0,-2.3379,-2.2484,0.0,0.0,0.0,0.0,0.0,0.0,0.0,0.0,0.0,0.0,0.0,0.0,0.0,0.0,0.0,0.0,0.0,0.0,0.0,0.0,0.0,-1.3374,-1.4155,-1.4789,-1.4609,-1.3972,-1.2747,-1.1881,0.0,0.0,-0.9205,-0.8879,-0.8728,-0.9826,-1.1818,-1.4687,-1.7392,-1.8966,-1.949,-1.9629,-1.9727,-1.9668,-1.834,-1.6504,-1.4336,-1.3711,0.0,0.0,0.0,0.0,0.0,0.0,0.0,0.0,0.0,0.0,0.0,0.0,0.0,0.0,0.0,0.0,0.0,0.0,0.0,0.0,0.0,0.0,0.0,0.0,0.0,0.0,0.0,0.0,0.0,0.0,0.0,0.0,0.0,0.0,0.0,0.0,0.0,0.0,0.0,-1.4844,-1.5781,-1.6065,-1.5137,-1.4043,0.0,0.0,0.0,0.0,0.0,0.0,0.0,0.0,0.0,-2.0469,-2.0917,-2.1795,-2.3262,-2.4883,-2.5781,-2.6026,-2.7168,-2.7734,-2.7734,-2.7734,-2.7734,-2.7734,-2.7734,-2.7187,-2.6172,-2.4297,-2.2031,-1.9629,0.0,0.0,0.0,0.0,-1.735,-1.7759,0.0,0.0,0.0,0.0,0.0,0.0,0.0,0.0,0.0,0.0,0.0,0.0,-1.3941,-1.5085,-1.6031,-1.6681,-1.6599,-1.5897,-1.4467,-1.3216,-1.1875,-1.0377,-0.9791,-0.9462,-0.9385,-1.1633,-1.4533,-1.8027,-1.9316,-2.0312,-2.0938,-2.0938,-2.0879,-2.0742,-2.0742,-1.9333,-1.6887,-1.6309,-1.4785,-1.2645,0.0,0.0,0.0,0.0,0.0,0.0,0.0,0.0,0.0,0.0,0.0,0.0,0.0,0.0,0.0,0.0,0.0,0.0,0.0,0.0,0.0,0.0,0.0,0.0,0.0,0.0,0.0,0.0,0.0,0.0,0.0,0.0,0.0,0.0,0.0,0.0,0.0,-1.5879,-1.6602,-1.6699,-1.6543,-1.5723,0.0,0.0,0.0,0.0,0.0,0.0,-1.9533,-1.9592,-2.082,-2.3418,-2.3809,-2.4863,-2.6699,-2.7395,-2.7767,-2.7885,-2.8144,-2.8301,-2.8301,-2.8301,-2.8301,-2.8301,-2.8301,-2.8301,-2.8125,-2.5859,-2.4375,-2.332,-2.1699,-2.0469,-1.9727,-2.0703,-2.1074,-2.1484,0.0,0.0,0.0,0.0,0.0,0.0,0.0,0.0,0.0,0.0,0.0,-1.4534,-1.566,-1.6842,-1.781,-1.8412,-1.7932,-1.7377,-1.6783,-1.5021,-1.3559,-1.2571,-1.1782,-1.117,-1.0706,-1.4466,-1.7539,-1.9785,-2.1113,-2.1777,-2.1816,-2.1816,-2.1602,-2.1171,-2.1171,-2.043,-1.9062,-1.8223,-1.709,-1.5615,-1.2724,0.0,0.0,0.0,0.0,0.0,0.0,0.0,0.0,0.0,0.0,0.0,0.0,0.0,0.0,0.0,0.0,0.0,0.0,0.0,0.0,0.0,0.0,0.0,0.0,0.0,0.0,0.0,0.0,0.0,0.0,0.0,0.0,0.0,0.0,0.0,0.0,0.0,0.0,-1.8559,-1.9884,0.0,0.0,0.0,0.0,-1.8442,-1.8926,-2.0137,-2.2207,-2.2324,-2.3516,-2.6113,-2.6211,-2.666,-2.765,-2.7689,-2.7871,-2.8262,-2.8281,-2.8301,-2.8301,-2.8301,-2.8301,-2.8301,-2.8301,-2.8301,-2.8281,-2.8125,-2.6602,-2.4336,-2.4238,-2.2676,-2.084,-2.3281,-2.4199,-2.457,0.0,0.0,0.0,-1.2947,-1.2638,-1.2354,-1.2153,-1.2413,-1.2663,-1.2758,-1.4539,-1.6099,-1.6856,-1.8102,-1.9168,-1.9834,-1.9667,-1.9021,-1.7696,-1.5943,-1.4552,-1.364,-1.2534,-1.3036,-1.5376,-1.7625,-1.957,-2.1191,-2.166,-2.1894,-2.1894,-2.1894,-2.1797,-2.166,-2.166,-2.123,-2.0508,-1.9902,-1.875,-1.7207,-1.587,-1.3991,0.0,0.0,0.0,0.0,0.0,0.0,0.0,0.0,0.0,0.0,0.0,0.0,0.0,0.0,0.0,0.0,0.0,0.0,0.0,0.0,0.0,0.0,0.0,0.0,0.0,0.0,0.0,0.0,0.0,0.0,0.0,0.0,0.0,0.0,0.0,0.0,0.0,-1.9533,-2.0762,0.0,-1.9023,-2.0371,-2.1289,-2.1093,-2.2516,-2.3725,-2.4504,-2.4543,-2.5254,-2.6738,-2.6797,-2.7207,-2.8066,-2.8066,-2.8144,-2.8301,-2.8301,-2.8301,-2.8301,-2.8301,-2.8301,-2.8301,-2.8301,-2.8301,-2.8301,-2.8301,-2.7754,-2.6914,-2.6914,-2.6348,-2.5644,-2.6562,-2.6914,-2.7051,0.0,0.0,0.0,-1.3198,-1.2914,-1.2663,-1.2663,-1.2943,-1.3373,-1.3909,-1.5602,-1.7101,-1.8111,-1.9225,-2.0169,-2.0742,-2.0781,-2.0312,-1.918,-1.7324,-1.584,-1.4824,-1.3802,-1.5037,-1.8819,-1.984,-2.0996,-2.2305,-2.2305,-2.2305,-2.2305,-2.2305,-2.2227,-2.209,-2.209,-2.1855,-2.1445,-2.1133,-2.0176,-1.8789,-1.7949,-1.6309,-1.4246,0.0,0.0,0.0,0.0,0.0,0.0,0.0,0.0,0.0,0.0,0.0,0.0,0.0,0.0,0.0,0.0,0.0,0.0,0.0,0.0,0.0,0.0,0.0,0.0,0.0,0.0,0.0,0.0,0.0,0.0,0.0,0.0,0.0,0.0,-1.959,-2.0917,-2.0215,-2.1797,-2.2285,-2.0547,-2.2324,-2.3594,-2.3594,-2.4875,-2.5693,-2.5693,-2.583,-2.6289,-2.6992,-2.7148,-2.7578,-2.8281,-2.8301,-2.8359,-2.8496,-2.8496,-2.8574,-2.873,-2.873,-2.873,-2.873,-2.873,-2.873,-2.873,-2.873,-2.873,-2.8691,-2.8398,-2.8301,-2.8301,-2.8301,-2.8301,-2.8301,0.0,0.0,-1.3198,-1.3198,-1.3198,-1.3198,-1.3198,-1.3162,-1.3789,-1.5637,-1.6433,-1.7533,-1.939,-2.0215,-2.0762,-2.1151,-2.121,-2.119,-2.1151,-1.9143,-1.7422,-1.6183,-1.5781,-1.7216,-2.067,-2.1076,-2.1853,-2.3101,-2.3101,-2.3101,-2.3101,-2.3101,-2.2886,-2.2539,-2.2539,-2.2305,-2.1894,-2.1894,-2.1406,-2.0507,-1.8789,-1.7832,-1.7142,0.0,0.0,0.0,0.0,0.0,0.0,0.0,0.0,0.0,0.0,0.0,0.0,0.0,0.0,0.0,0.0,0.0,0.0,0.0,0.0,0.0,0.0,0.0,0.0,0.0,0.0,0.0,0.0,0.0,0.0,0.0,0.0,0.0,-2.0039,-2.0742,-2.1191,-2.0801,-2.3345,-2.448,-2.2773,-2.4465,-2.5693,-2.5693,-2.5693,-2.5693,-2.5693,-2.6152,-2.6582,-2.7012,-2.7461,-2.7891,-2.8301,-2.832,-2.8535,-2.8945,-2.8945,-2.916,-2.9626,-2.9626,-2.9626,-2.9626,-2.9626,-2.9626,-2.9626,-2.9626,-2.9626,-2.9548,-2.8652,-2.834,-2.834,-2.834,-2.834,-2.834,-1.3198,-1.3198,-1.3198,-1.3198,-1.3198,-1.3198,-1.3198,-1.3494,-1.4224,-1.551,-1.6673,-1.7888,-1.9227,-2.0388,-2.1054,-2.119,-2.1523,-2.1309,-2.0294,-1.8574,-1.7402,-1.7063,-1.9004,-2.0722,-2.1983,-2.2366,-2.275,-2.3101,-2.3101,-2.3101,-2.3101,-2.3101,-2.3042,-2.2925,-2.2925,-2.2691,-2.2344,-2.2344,-2.2031,-2.1445,-2.0664,-1.9494,-1.813,0.0,0.0,0.0,0.0,0.0,0.0,0.0,0.0,0.0,0.0,0.0,0.0,0.0,0.0,0.0,0.0,0.0,0.0,0.0,0.0,0.0,0.0,0.0,0.0,0.0,0.0,0.0,0.0,0.0,0.0,0.0,-2.0078,-2.1484,-2.1367,-2.2891,-2.3965,-2.3893,-2.4844,-2.5371,-2.4855,-2.5343,-2.5693,-2.5693,-2.5693,-2.5693,-2.5693,-2.6152,-2.6582,-2.7012,-2.7734,-2.832,-2.875,-2.9062,-2.9277,-2.9394,-2.9394,-2.9453,-2.9626,-2.9626,-2.9626,-2.9626,-2.9626,-2.9626,-2.9626,-2.9626,-2.9626,-2.9607,-2.9372,-2.9219,-2.9219,-2.9219,-2.9219,-2.9219,-1.3198,-1.3198,-1.3198,-1.3198,-1.3198,-1.3198,-1.3198,-1.3426,-1.4202,-1.592,-1.6788,-1.7895,-1.9664,-2.0664,-2.1268,-2.1484,-2.1738,-2.1328,-2.0,-1.832,-1.7871,-1.8945,-2.0684,-2.2148,-2.3281,-2.373,-2.4043,-2.4192,-2.4043,-2.3848,-2.3627,-2.3452,-2.3276,-2.3101,-2.3101,-2.2964,-2.273,-2.273,-2.2539,-2.2129,-2.1875,-2.0917,-1.9572,-1.8617,-1.7793,-1.7012,-1.5977,-1.5312,-1.498,-1.5263,0.0,0.0,0.0,0.0,0.0,0.0,0.0,0.0,0.0,0.0,0.0,0.0,0.0,0.0,0.0,0.0,0.0,0.0,0.0,0.0,0.0,0.0,0.0,0.0,-2.209,-2.3281,-2.3477,-2.4394,-2.5137,-2.5332,-2.5586,-2.5693,-2.5693,-2.5693,-2.5693,-2.5693,-2.5693,-2.5693,-2.5693,-2.6484,-2.7031,-2.7285,-2.8281,-2.8945,-2.9199,-2.9453,-2.9668,-2.9824,-2.9824,-2.9941,-3.0117,-3.0117,-3.0117,-3.0117,-3.0117,-3.0117,-3.0117,-3.0117,-3.0117,0.0,0.0,0.0,0.0,0.0,-2.9626,-2.9626,-1.3198,-1.3198,-1.3198,-1.3198,-1.3198,-1.3198,-1.3198,-1.3097,-1.3937,-1.6546,-1.6779,-1.7715,-2.0331,-2.1016,-2.1445,-2.1777,-2.1894,-2.1367,-2.0,-1.8594,-1.8848,-2.1093,-2.1424,-2.2457,-2.4453,-2.4922,-2.5332,-2.5693,-2.5332,-2.4922,-2.4473,-2.4102,-2.3672,-2.3159,-2.3159,-2.314,-2.3101,-2.3101,-2.2886,-2.2578,-2.2539,-2.2031,-2.1093,-1.9494,-1.889,-1.8734,-1.7564,-1.6875,-1.6535,-1.6652,0.0,0.0,0.0,0.0,0.0,0.0,0.0,0.0,0.0,0.0,0.0,0.0,0.0,0.0,0.0,0.0,0.0,0.0,0.0,0.0,0.0,0.0,0.0,0.0,-2.4023,-2.5273,-2.5635,-2.5391,-2.5293,-2.5635,-2.5693,-2.5693,-2.5693,-2.5693,-2.5693,-2.5693,-2.5732,-2.5791,-2.583,-2.707,0.0,0.0,0.0,-2.9704,-2.9704,-2.9744,-2.9902,-3.0273,-3.0273,-3.0488,-3.0898,-3.0898,-3.0898,-3.0898,-3.0898,-3.0898,-3.0898,-3.0898,-3.0898,-3.082,-3.0019,-2.9783,-2.9783,-2.9783,-2.9783,-2.9783,-1.3198,-1.3198,-1.3198,-1.3198,-1.3198,-1.3198,-1.3198,-1.3097,-1.3937,-1.6546,-1.6779,-1.7715,-2.0331,-2.1289,-2.166,-2.1346,-2.1992,-2.168,-2.0019,-2.0235,-2.0664,-2.1171,-2.2847,-2.416,-2.4969,-2.5371,-2.5596,-2.5693,-2.5596,-2.5371,-2.4941,-2.4863,-2.446,-2.3672,-2.3672,-2.3477,-2.3101,-2.3101,-2.3042,-2.2945,-2.2656,-2.2207,-2.168,-2.0956,-2.0703,-2.0605,-2.0039,-1.9531,-1.9277,-2.0,-1.9023,-1.7617,-1.8223,-1.7142,0.0,0.0,0.0,0.0,0.0,0.0,0.0,0.0,0.0,0.0,0.0,0.0,0.0,0.0,0.0,0.0,0.0,0.0,0.0,-2.2867,-2.4426,-2.5596,-2.5674,-2.5615,-2.5596,-2.5674,-2.5693,-2.5693,-2.5693,-2.5693,-2.5693,-2.5693,-2.6055,-2.6406,-2.6758,-2.7656,-2.832,-2.8672,-2.959,-3.0078,-3.0078,-3.0449,-3.0684,-3.0762,-3.0762,0.0,-3.0898,-3.0898,-3.0898,-3.0898,-3.0898,-3.0898,-3.0898,-3.0898,-3.0898,-3.0879,-3.0703,-3.0644,-3.0644,-3.0644,-3.0644,-3.0644,-1.3198,-1.3198,-1.3198,-1.3198,-1.3198,-1.3198,-1.3198,-1.3369,-1.4159,-1.6007,-1.675,-1.7688,-1.9294,-2.0353,-2.0761,-2.0237,-2.0515,-2.0478,-1.9922,-2.0527,-2.1387,-2.2461,-2.373,-2.4824,-2.5703,-2.6152,-2.6582,-2.7012,-2.6797,-2.6484,-2.6035,-2.5605,-2.4941,-2.4102,-2.3887,-2.3555,-2.3101,-2.3101,-2.3101,-2.3081,-2.2867,-2.2695,-2.2441,-2.1797,-2.1562,-2.1523,-2.1309,-2.1094,-2.0977,-2.1406,-2.084,-1.998,-2.0195,-1.9219,-1.7695,0.0,0.0,0.0,0.0,0.0,0.0,0.0,0.0,0.0,0.0,0.0,0.0,0.0,0.0,-2.0,-2.1309,0.0,-2.3437,-2.4251,-2.5128,-2.5693,-2.5693,-2.5693,-2.5693,-2.5693,-2.5693,-2.5693,-2.5693,-2.5693,-2.5771,-2.6055,-2.6465,-2.6894,-2.7324,-2.8359,-2.9023,-2.9238,-3.0098,-3.0547,-3.0547,-3.0781,-3.0898,-3.0898,-3.0898,-3.0898,-3.0898,-3.0898,-3.0898,-3.0898,-3.0898,-3.0898,-3.0898,-3.0898,-3.0898,-3.0898,-3.0898,-3.0898,-3.0898,-3.0898,-3.0898,-3.0898,-1.3198,-1.3198,-1.3198,-1.3198,-1.3198,-1.3198,-1.3198,-1.3561,-1.4273,-1.5502,-1.6541,-1.7468,-1.827,-1.9137,-1.9553,-1.9218,-1.9267,-1.955,-2.0224,-2.0762,-2.1875,-2.3711,-2.4199,-2.4961,-2.6113,-2.6543,-2.7109,-2.7793,-2.7461,-2.707,-2.6621,-2.5937,-2.5137,-2.4277,-2.3945,-2.3555,-2.3101,-2.3101,-2.3101,-2.3101,-2.3101,-2.3101,-2.3023,-2.2383,-2.207,-2.1992,-2.1914,-2.1894,-2.1894,-2.1894,-2.1894,-2.1816,-2.1465,-2.0781,-1.9863,-1.832,-1.7754,0.0,0.0,0.0,0.0,0.0,0.0,0.0,0.0,-1.7964,-1.8672,-2.0117,-2.0997,-2.1936,-2.3398,-2.3945,-2.4512,-2.5518,-2.5693,-2.5693,-2.5693,-2.5693,-2.5693,-2.5693,-2.5693,-2.5693,-2.5693,-2.5771,-2.6055,-2.6484,-2.6973,-2.748,-2.8061,-2.9137,-2.9726,-2.9824,-3.0508,-3.0898,-3.0898,-3.0898,-3.0898,-3.0898,-3.0898,-3.0898,-3.0898,-3.0898,-3.0898,-3.0898,-3.0898,-3.0898,-3.0898,-3.0898,-3.0937,-3.1016,-3.1016,-3.1016,-3.0996,-3.0918,-3.0898,-3.0898,-1.3198,-1.3198,-1.3198,-1.3198,-1.3198,-1.3198,-1.3198,-1.3186,-1.3839,-1.5636,-1.5925,-1.665,-1.8373,-1.8551,-1.8745,-1.9153,-2.0101,-2.0929,-2.1483,-2.2345,-2.3081,-2.3769,-2.4199,-2.4668,-2.5243,-2.5644,-2.5888,-2.5966,-2.5927,-2.5723,-2.5341,-2.5243,-2.4687,-2.3867,-2.3809,-2.3555,-2.3101,-2.3101,-2.3101,-2.3101,-2.3101,-2.3101,-2.3081,-2.2984,-2.273,-2.2402,-2.2031,-2.1894,-2.1894,-2.1894,-2.1894,-2.1875,-2.1836,-2.1484,-2.0859,-1.9922,-1.9046,-1.8169,-1.6843,-1.6629,-1.6941,-1.7637,-1.8071,-1.9182,0.0,-2.2129,-2.1953,-2.4049,-2.4538,-2.4746,-2.5332,-2.544,-2.5518,-2.5674,-2.5693,-2.5693,-2.5693,-2.5693,-2.5693,-2.5693,-2.5693,-2.5693,-2.5693,-2.6094,-2.6484,-2.6914,-2.7695,-2.8496,-2.9316,-2.9844,-3.0312,-3.0723,-3.084,-3.0898,-3.0898,-3.0898,-3.0898,-3.0898,-3.0898,-3.0898,-3.0898,-3.0898,-3.0898,-3.0898,-3.0898,-3.0898,-3.0898,-3.0898,-3.1113,-3.1445,-3.1445,-3.1445,-3.1406,-3.1035,-3.0898,-3.0898,-1.3198,-1.3198,-1.3198,-1.3198,-1.3198,-1.3198,-1.3198,-1.347,-1.391,-1.4586,-1.5304,-1.5869,-1.6241,-1.6607,-1.6774,-1.6653,-1.8862,-2.0198,-2.0091,-2.1968,-2.3296,-2.3769,-2.3965,-2.4375,-2.5106,-2.5254,-2.5469,-2.5693,-2.5693,-2.5596,-2.5449,-2.5195,-2.4746,-2.4141,-2.3906,-2.3555,-2.3101,-2.3101,-2.3101,-2.3101,-2.3101,-2.3101,-2.3101,-2.3101,-2.2828,-2.248,-2.2305,-2.209,0.0,-2.2168,-2.209,-2.1934,-2.2168,-2.1777,-2.1015,-2.0176,-1.9844,-1.9805,-2.0039,-1.9319,-1.8848,-1.998,-2.0586,-2.1269,-2.2715,-2.3027,-2.3379,-2.4832,-2.5273,-2.5508,-2.5654,-2.5693,-2.5693,-2.5693,-2.5693,-2.5693,-2.5693,-2.5693,-2.5693,-2.5693,-2.5957,-2.6211,-2.6415,-2.6641,-2.7129,-2.8047,-2.8691,-2.9297,-2.9902,-3.0351,-3.0684,-3.0879,-3.0898,-3.0898,-3.0898,-3.0898,-3.0898,-3.0898,-3.0898,-3.0898,-3.0898,-3.0898,-3.1016,-3.125,-3.125,-3.1406,-3.1641,-3.1641,-3.1738,-3.1894,-3.1894,-3.1894,-3.1836,-3.1406,-3.1094,-3.0918,-1.3198,-1.3198,-1.3198,-1.3198,-1.3198,-1.3198,-1.3198,-1.3559,-1.3864,-1.3866,-1.4696,-1.5062,-1.4513,-1.5065,-1.5355,-1.5069,-1.7684,-1.936,-1.9402,-2.1586,-2.3126,-2.3574,-2.3613,-2.3906,-2.4531,-2.4531,-2.4687,-2.4972,-2.4972,-2.4972,-2.4972,-2.4687,-2.4375,-2.4043,-2.375,-2.3437,-2.3101,-2.3101,-2.3101,-2.3101,-2.3101,-2.3101,-2.3081,-2.2964,-2.2644,-2.2241,-2.2151,-2.1999,-2.1788,-2.1546,-2.1508,-2.1629,-2.1466,-2.1054,-2.0547,-2.0059,-1.9961,-2.0215,-2.1055,-2.0605,-2.0195,-2.1406,-2.2383,-2.3066,-2.3184,-2.3789,-2.4512,-2.5117,-2.5508,-2.5693,-2.5693,-2.5693,-2.5693,-2.5693,-2.5693,-2.5693,-2.5693,-2.5693,-2.5732,-2.5898,-2.6289,-2.6816,-2.748,-2.7441,-2.7851,-2.9004,-2.9492,-2.9922,-3.0371,-3.0703,-3.0898,-3.0898,-3.0898,-3.0898,-3.0898,-3.0898,-3.0898,-3.0898,-3.0898,-3.0898,-3.0898,-3.1016,-3.123,-3.1523,-3.1641,-3.1875,-3.2229,-3.2229,-3.2307,-3.2344,-3.2344,-3.2344,-3.2305,-3.1992,-3.1601,-3.1289,-1.3198,-1.3198,-1.3198,-1.3198,-1.3198,-1.3198,-1.3198,-1.3223,-1.3441,-1.4029,-1.4123,-1.4148,-1.4104,-1.4582,-1.5135,-1.5622,-1.7263,-1.8928,-2.0553,-2.1707,-2.2534,-2.3105,-2.312,-2.312,-2.3159,-2.3159,-2.3159,-2.3179,-2.3179,-2.3179,-2.3179,-2.3159,-2.314,-2.314,-2.312,-2.3101,-2.3101,-2.3101,-2.3101,-2.3101,-2.3101,-2.3101,-2.3042,-2.2695,-2.2087,-2.1497,-2.1312,-2.145,-2.1404,-1.9377,-1.9769,-2.0753,-1.9219,-1.9023,-1.9414,-1.9805,-1.9299,-1.8578,-1.8242,-1.9004,-2.0099,-2.0995,-2.2769,-2.4473,-2.4949,-2.5352,-2.5635,-2.5654,-2.5674,-2.5693,-2.5693,-2.5693,-2.5693,-2.5693,-2.5693,-2.5693,-2.5693,-2.5693,-2.5849,-2.6309,-2.6738,-2.748,-2.873,-2.8496,-2.8613,-2.9492,-2.9941,-3.0391,-3.084,-3.0879,-3.0898,-3.0898,-3.0898,-3.0898,-3.0898,-3.0898,-3.0898,-3.0898,-3.0898,-3.0898,-3.0898,-3.1309,-3.1504,-3.1543,-3.1973,-3.2209,-3.2229,-3.2229,-3.2402,-3.2773,-3.2773,-3.2773,-3.2773,-3.2754,-3.25,-3.2129,-1.3198,-1.3198,-1.3198,-1.3198,-1.3198,-1.3198,-1.3198,-1.3198,-1.3273,-1.3483,-1.3509,0.0,0.0,0.0,0.0,0.0,-1.6717,-1.8203,-1.9478,-2.1275,-2.2708,-2.366,-2.4379,-2.4931,-2.5336,-2.4638,-2.4211,-2.4211,-2.3474,-2.3101,-2.3101,-2.3101,-2.3101,-2.3101,-2.3101,-2.3101,-2.3081,-2.2808,-2.2672,-2.2695,-2.2422,-2.2443,-2.2778,-2.3391,-2.2592,-2.1104,0.0,-2.0522,-1.9584,-1.912,-1.9176,-1.9339,-1.9078,-1.8699,-1.8364,-1.8365,-1.888,-1.95,-1.9976,-2.0684,-2.1562,-2.2988,-2.4102,-2.4961,-2.541,-2.5859,-2.6172,-2.6172,-2.6552,-2.6839,-2.6839,-2.6839,-2.6839,-2.6839,-2.6685,-2.6582,-2.6582,-2.6582,-2.6641,-2.6777,-2.7422,-2.8144,-2.8848,-2.9062,-2.9512,-3.0371,-3.0586,-3.0723,-3.0879,-3.0898,-3.0898,-3.0898,-3.0898,-3.0898,-3.0898,-3.0898,-3.0898,-3.0898,-3.0898,-3.1035,-3.1309,-3.1445,-3.1836,-3.2363,-3.2519,-3.2734,-3.3008,-3.3008,-3.3086,-3.3203,-3.3203,-3.3203,-3.3203,-3.3203,-3.3125,-3.2969,0.0,-1.3792,-1.376,-1.3559,-1.3534,0.0,0.0,0.0,0.0,0.0,0.0,0.0,0.0,0.0,0.0,0.0,0.0,-1.7257,-1.8371,-2.0118,-2.163,-2.2783,-2.3268,-2.3807,-2.4393,-2.3483,-2.3303,-2.3932,-2.3371,-2.341,-2.3985,-2.4235,-2.4021,-2.3536,-2.3858,-2.3671,-2.317,-2.3062,-2.3125,-2.3248,-2.241,-2.2193,-2.2459,-2.262,-2.1536,0.0,-1.9899,-1.9002,-1.7829,-1.782,-1.8019,-1.8258,-1.8159,-1.8013,-1.7888,-1.8093,-1.8734,-1.9667,-2.1056,-2.168,-2.2285,-2.3984,-2.4863,-2.543,-2.5879,-2.6309,-2.6602,-2.6602,-2.6734,-2.6858,-2.7051,-2.69,-2.6873,-2.7165,-2.7195,-2.7122,-2.7122,-2.7122,-2.7152,-2.7239,-2.8008,-2.8691,-2.9101,-2.9687,-3.0273,-3.0859,-3.0898,-3.0898,-3.0898,-3.0898,-3.0898,-3.0898,-3.0898,-3.0898,-3.0898,-3.0898,-3.0957,-3.1113,-3.1113,-3.1426,-3.1973,-3.2129,-3.2578,-3.3262,-3.3418,-3.3633,-3.3887,-3.3887,-3.3887,-3.3887,-3.3887,-3.3887,-3.3887,-3.3887,-3.3887,-3.3828,0.0,0.0,-1.4727,0.0,0.0,0.0,0.0,0.0,0.0,0.0,0.0,0.0,0.0,0.0,0.0,0.0,0.0,0.0,-1.7241,-1.8329,-1.949,-2.0599,-2.0194,-2.0216,-2.0818,-2.0194,-2.0662,-2.2248,-2.2724,-2.3762,-2.5294,-2.5905,-2.5395,-2.4027,-2.4916,-2.4556,-2.3192,-2.3618,-2.4104,-2.4393,-2.2754,-2.2125,-2.2006,-2.0566,-1.9283,-1.8143,-1.7755,-1.7123,-1.6402,-1.5682,-1.6505,-1.7641,-1.6689,-1.7088,-1.8103,-1.8935,-1.9,-1.9255,-2.1348,-2.1992,-2.2441,-2.4082,-2.5089,-2.5869,-2.6328,-2.6738,-2.7012,-2.6965,-2.6295,-2.5916,-2.6322,-2.6065,-2.6025,-2.6755,-2.7174,-2.744,-2.744,-2.744,-2.75,-2.7734,-2.8457,-2.9121,-2.9607,-3.0391,-3.0898,-3.0898,-3.0898,-3.0898,-3.0898,-3.0898,-3.0898,-3.0898,-3.0898,-3.0898,-3.0898,-3.0898,-3.1113,-3.1562,-3.1523,-3.1992,-3.2871,-3.3242,-3.3672,-3.4121,-3.4531,-3.4707,-3.4707,-3.4707,-3.4707,-3.4687,-3.4818,-3.4773,-3.4687,-3.4818,-3.4773,-3.4648,0.0,0.0,0.0,0.0,0.0,0.0,0.0,0.0,0.0,0.0,0.0,0.0,0.0,0.0,0.0,0.0,0.0,0.0,-1.6055,-1.7553,-1.89,-1.9972,-2.1064,-2.1916,-2.2473,-2.1557,-2.1261,-2.1684,-2.0975,-2.0868,-2.1306,-2.1416,-2.1311,-2.0946,-2.1642,-2.1751,-2.1352,-2.112,-2.1125,-2.1125,-2.0009,-1.9727,-2.0044,-2.048,-1.9625,-1.829,-1.8954,-1.804,-1.6607,-1.7234,-1.8243,-1.9241,-1.8945,-1.936,-1.9961,-1.9927,-2.061,-2.1484,-2.2178,-2.3281,-2.4434,-2.5215,-2.6005,-2.6719,-2.6836,-2.7187,-2.7184,-2.6107,-2.6484,-2.6562,-2.5184,-2.6071,-2.691,-2.6626,-2.7448,-2.8085,-2.8085,-2.8085,-2.8167,-2.8569,-2.9082,-2.957,-3.0,-3.0547,-3.0898,-3.0898,-3.0898,-3.0898,-3.0898,-3.0898,-3.0898,-3.0898,-3.0898,-3.0898,-3.0898,-3.0898,-3.1269,-3.1992,-3.168,-3.2305,-3.375,-3.3516,-3.3828,-3.4551,-3.4648,-3.4707,-3.4707,-3.4707,-3.4707,-3.4818,-3.6143,-3.582,-3.4884,-3.6123,-3.582,-3.4726,0.0,0.0,0.0,0.0,0.0,0.0,0.0,0.0,0.0,0.0,0.0,0.0,0.0,0.0,0.0,0.0,0.0,0.0,0.0,-1.6091,-1.7146,-1.7953,-1.8681,-1.9309,-1.9835,-1.9019,-1.9068,-2.0061,-1.9417,-1.9592,-2.0557,-2.0796,-2.0525,-1.9941,-2.0963,-2.1023,-2.0394,-2.035,-2.044,0.0,0.0,-1.8905,-1.9148,-1.9296,-1.8559,-1.7528,-1.8154,-1.8314,-1.8396,-1.9253,-1.9838,-2.0196,-2.0172,-2.0488,-2.0899,-2.1304,-2.1864,-2.253,-2.3153,-2.4336,-2.543,-2.5635,-2.6523,-2.7153,-2.6467,-2.6685,-2.6569,-2.484,-2.496,-2.4934,-2.3606,-2.4959,-2.6228,-2.6013,-2.7373,-2.8476,-2.8476,-2.8476,-2.8568,-2.8883,-2.9297,-2.9726,-3.0156,-3.0625,-3.0898,-3.0898,-3.0898,-3.0898,-3.0898,-3.0898,-3.0898,-3.0898,-3.0898,-3.0898,-3.0898,-3.1269,-3.1699,-3.2229,-3.2109,-3.2871,-3.4336,-3.4101,-3.4453,-3.5273,-3.5273,-3.5273,-3.5273,-3.5273,-3.5273,-3.5473,-3.7171,-3.7236,-3.6603,-3.838,-3.838,-3.7603,0.0,0.0,0.0,0.0,0.0,0.0,0.0,0.0,0.0,-1.3817,-1.3549,-1.3441,-1.3441,-1.3903,0.0,0.0,0.0,0.0,0.0,0.0,-1.4984,-1.5487,-1.511,-1.511,-1.5567,-1.5135,-1.5839,-1.7752,-1.7752,-1.8731,-2.0614,-2.1091,-2.06,-1.9369,-2.0807,-2.0674,-1.9468,-1.9871,-2.0314,-2.0589,-1.9133,-1.8556,-1.8456,0.0,-1.6948,-1.65,-1.6575,-1.816,-2.0297,-2.1049,-2.1228,-2.1215,-2.1203,-2.1329,-2.1694,-2.2818,-2.299,-2.3027,-2.418,-2.505,-2.5713,-2.583,-2.6797,-2.7334,-2.5979,-2.588,-2.5516,-2.347,-2.2786,-2.2379,-2.1719,-2.3284,-2.4736,-2.5087,-2.7173,-2.869,-2.8661,-2.8932,-2.9126,-2.9011,-2.9502,-2.9971,-3.0254,-3.0644,-3.0898,-3.0898,-3.0898,-3.0898,-3.0898,-3.0898,-3.1035,-3.1307,-3.1307,-3.1327,-3.1386,-3.2137,-3.245,-3.2344,-3.2942,-3.3788,-3.4785,-3.529,-3.5812,-3.6336,-3.6606,-3.6674,-3.6674,-3.6674,-3.6674,-3.6856,-3.8597,-3.9125,-3.919,-4.0924,-4.1373,-4.1181,0.0,0.0,0.0,0.0,0.0,0.0,0.0,0.0,0.0,0.0,-1.5462,-1.4607,0.0,0.0,0.0,0.0,0.0,0.0,0.0,0.0,0.0,-1.4374,-1.4727,-1.4934,-1.5035,-1.4934,-1.5085,-1.5462,-1.5462,-1.5663,-1.604,-1.6141,-1.6032,-1.581,-1.6532,-1.6685,-1.6455,-1.6532,-1.6622,-1.6672,-1.6396,-1.6271,-1.6296,-1.6572,-1.6575,0.0,-1.7049,-1.7823,-1.8868,-2.0698,-2.2407,-2.3784,-2.3774,-2.3762,-2.385,-2.4087,-2.4114,-2.4219,-2.4805,-2.5332,-2.5849,-2.6621,-2.7226,-2.7542,-2.6914,-2.6104,-2.4925,-2.2661,-2.177,-2.0997,-1.9756,-2.1525,-2.3419,-2.42,-2.6932,-2.8796,-2.8408,-3.0282,-3.1107,-2.9668,-3.0524,-3.1111,-3.0799,-3.084,-3.0898,-3.0898,-3.0898,-3.0898,-3.0898,-3.0898,-3.1658,-3.3356,-3.3356,-3.3543,-3.3859,-3.4025,-3.378,-3.3203,-3.4718,-3.541,-3.5407,-3.823,-3.8981,-3.8221,-3.9693,-4.0278,-4.0278,-4.0278,-4.0278,-4.0472,-4.2138,-4.2011,-4.0924,-4.2643,-4.2391,-4.1181,0.0,0.0,0.0,0.0,0.0,0.0,0.0,-1.7024,-1.7702,-1.9685,-1.9233,-1.8078,-1.6392,-1.5663,-1.5085,0.0,0.0,0.0,0.0,0.0,0.0,0.0,0.0,0.0,-1.4011,-1.4011,-1.4161,-1.4475,0.0,-1.418,-1.4475,-1.4475,-1.4475,-1.45,-1.5035,-1.5286,-1.5311,-1.5567,-1.5693,-1.5718,-1.5994,-1.612,-1.6124,0.0,0.0,0.0,-1.7174,-1.8258,-1.9506,-2.0214,-2.2391,-2.4725,-2.4473,-2.4414,-2.4414,-2.4414,-2.457,-2.4805,-2.5047,-2.5566,-2.623,-2.6855,-2.789,-2.8175,-2.5978,-2.5422,-2.4316,-2.0783,-1.9785,-1.9298,-1.8335,-2.0199,-2.225,-2.327,-2.6346,-2.8463,-2.8066,-3.0507,-3.1633,-2.9842,-3.1475,-3.2541,-3.2125,-3.2035,-3.2035,-3.2035,-3.2035,-3.171,-3.0937,-3.1872,-3.3272,-3.4989,-3.5547,-3.5787,-3.5743,-3.6186,-3.5742,-3.4329,-3.6249,-3.6744,-3.6099,-3.8821,-3.9889,-3.9519,-4.0684,-4.1181,-4.1181,-4.1181,-4.1181,-4.1373,-4.302,-4.3208,-4.2706,-4.4436,-4.4559,-4.3879,0.0,0.0,0.0,0.0,0.0,0.0,0.0,-1.8932,-1.9761,-2.2648,-2.2698,-2.1415,-1.8731,-1.7325,-1.617,0.0,0.0,0.0,0.0,0.0,0.0,0.0,0.0,0.0,0.0,0.0,0.0,-1.3921,-1.3416,0.0,0.0,0.0,0.0,0.0,-1.4702,-1.4884,-1.4928,-1.5361,-1.5517,0.0,0.0,-1.6325,0.0,0.0,0.0,0.0,0.0,-1.8457,-1.983,-1.9854,-2.1768,-2.4158,-2.421,-2.4431,-2.4736,-2.4736,-2.4974,-2.529,-2.5251,-2.5723,-2.6348,-2.6777,-2.8218,-2.8591,-2.4798,-2.4558,-2.3789,-1.9156,-1.8003,-1.7777,-1.7601,-1.9266,-2.1167,-2.2703,-2.5789,-2.8077,-2.8211,-3.0869,-3.2263,-3.0662,-3.2695,-3.403,-3.3591,-3.3564,-3.3564,-3.3564,-3.3671,-3.3224,-3.2082,-3.3524,-3.5155,-3.6905,-3.7679,-3.7987,-3.7668,-3.8349,-3.7725,-3.5883,-3.7896,-3.822,-3.7102,-3.9713,-4.093,-4.0881,-4.1845,-4.2264,-4.2264,-4.2264,-4.2264,-4.2391,-4.3731,-4.4251,-4.4436,-4.5793,-4.6301,-4.6301,0.0,0.0,0.0,0.0,0.0,0.0,0.0,-2.0163,-2.1647,-2.4858,-2.3948,-2.2719,-2.1945,-2.0413,-1.8405,0.0,0.0,0.0,0.0,0.0,0.0,0.0,0.0,0.0,0.0,0.0,0.0,-1.3273,-1.3223,0.0,0.0,0.0,0.0,0.0,0.0,-1.4884,-1.4884,-1.4934,0.0,0.0,0.0,0.0,0.0,0.0,0.0,0.0,0.0,-1.753,-1.7968,-1.9812,-2.0649,-2.1222,-2.3095,-2.4619,-2.5743,-2.5743,-2.5785,-2.5808,-2.5689,-2.5693,-2.5898,-2.6348,-2.7772,-2.8058,-2.4344,-2.3981,-2.3283,-1.9081,-1.74,-1.6951,-1.7953,-1.8734,-2.0144,-2.3058,-2.572,-2.7912,-2.9481,-3.2438,-3.422,-3.3481,-3.4722,-3.548,-3.5144,-3.5068,-3.5068,-3.5068,-3.5547,-3.5792,-3.5624,-3.5781,-3.7053,-3.9552,-3.9727,-3.9907,-4.0277,-4.0313,-3.9558,-3.7978,-4.0081,-4.024,-3.8825,-4.3048,-4.4097,-4.2786,-4.4914,-4.5853,0.0,-4.5853,-4.5853,-4.5853,-4.5999,-4.6059,-4.6059,-4.624,-4.6301,-4.6301,0.0,0.0,0.0,0.0,0.0,0.0,-2.0388,-2.0439,-2.1622,-2.5619,-2.5234,-2.428,-2.3427,-2.2121,-1.9936,-1.6497,0.0,0.0,0.0,0.0,0.0,0.0,0.0,0.0,0.0,0.0,-1.3752,-1.3752,-1.4061,0.0,0.0,0.0,0.0,0.0,0.0,-1.4884,-1.4909,-1.5236,0.0,0.0,0.0,0.0,0.0,0.0,0.0,0.0,0.0,0.0,-1.7908,-1.8044,-1.9179,-2.0602,-2.115,-2.264,-2.447,-2.6021,-2.6736,-2.6945,-2.6878,-2.7389,-2.7873,-2.7536,-2.8408,-2.8426,-2.483,-2.3826,-2.2488,-1.8534,-1.7074,-1.6851,-1.8003,-1.8103,-1.9083,-2.2305,-2.4236,-2.5718,-2.6944,-3.0943,-3.3137,-3.1528,-3.4757,-3.6882,-3.6244,-3.641,-3.6766,-3.7092,-3.7301,-3.8139,-3.9688,-3.891,-3.9347,-4.1256,-4.1657,-4.1872,-4.2012,-4.2012,-4.1248,-3.9639,-4.1465,-4.1504,-4.0047,-4.3404,-4.4593,-4.4003,-4.56,-4.6301,0.0,-4.6301,-4.6301,-4.6301,-4.6301,-4.6301,-4.6301,-4.6301,-4.6301,-4.6301,0.0,0.0,0.0,0.0,0.0,-1.7601,-2.0792,-2.0715,-2.1719,-2.572,-2.5586,-2.4833,-2.4079,-2.2397,-2.0211,-1.7478,-1.6296,0.0,0.0,0.0,0.0,0.0,0.0,0.0,0.0,0.0,-1.4324,-1.4324,-1.4859,-1.5135,0.0,0.0,-1.5387,-1.5387,0.0,0.0,0.0,0.0,0.0,0.0,0.0,0.0,0.0,0.0,0.0,0.0,0.0,0.0,0.0,0.0,0.0,-1.9789,-1.9626,-2.0807,-2.284,-2.5461,-2.6847,-2.7557,-2.7597,-2.8508,-2.9255,-2.8718,-2.8948,-2.8437,-2.4798,-2.3409,-2.1766,-1.7928,-1.6798,-1.6801,-1.7777,-1.7777,-1.8606,-2.1594,-2.3,-2.4285,-2.5877,-2.9431,-3.1515,-3.0558,-3.39,-3.6351,-3.6567,-3.7532,-3.8355,-3.8887,-3.9134,-4.0079,-4.2108,-4.1373,-4.1359,-4.2384,-4.2816,-4.2986,-4.2986,-4.2986,-4.2432,-4.1305,-4.2432,-4.2375,-4.1386,-4.3399,-4.4468,-4.4669,-4.5648,-4.615,0.0,-4.6301,-4.6301,-4.6301,-4.6301,-4.6301,-4.6301,-4.6301,-4.6301,-4.6301,0.0,0.0,0.0,0.0,0.0,0.0,-2.0289,-2.1144,-2.2472,-2.5234,-2.4682,-2.4004,-2.4004,-2.1041,-1.9033,-1.8983,-1.6974,0.0,0.0,0.0,0.0,0.0,0.0,0.0,0.0,0.0,-1.4884,-1.4884,-1.5437,-1.5693,-1.5693,-1.6224,-1.6475,-1.6475,0.0,0.0,0.0,0.0,0.0,0.0,0.0,0.0,0.0,0.0,0.0,0.0,0.0,0.0,0.0,0.0,0.0,0.0,0.0,-1.9811,-2.1219,-2.3878,-2.5775,-2.7165,-2.7579,-2.8522,-2.9396,-2.9418,-2.9086,-2.7798,-2.3909,-2.2643,-2.1217,-1.7303,-1.65,-1.6697,-1.7297,-1.7827,-1.8932,-2.1142,-2.2393,-2.4274,-2.7584,-2.8562,-2.974,-3.1922,-3.2223,-3.337,-3.6107,-3.8391,-3.9923,-4.0423,-4.0974,-4.1526,-4.2187,-4.266,-4.2961,-4.2961,-4.2986,-4.2986,-4.2986,-4.2986,-4.2986,-4.2986,-4.2986,-4.2986,-4.2986,-4.3564,-4.4116,-4.4644,-4.5246,-4.5799,0.0,-4.6301,-4.6301,-4.6301,-4.6301,-4.6301,-4.6301,-4.6301,-4.6301,-4.6301,0.0,0.0,0.0,0.0,0.0,0.0,0.0,-1.9596,-2.0112,-2.2489,-2.182,-2.1584,-2.2714,-2.0862,-1.9688,-2.0043,-1.807,0.0,0.0,0.0,0.0,0.0,0.0,0.0,0.0,0.0,-1.6662,-1.8036,-1.8331,-1.905,-2.0034,-1.8773,-1.8033,-1.77,-1.6867,-1.65,0.0,0.0,0.0,0.0,0.0,0.0,0.0,0.0,0.0,0.0,0.0,0.0,0.0,0.0,0.0,0.0,0.0,0.0,0.0,-2.1342,-2.4189,-2.6602,-2.6232,-2.7294,-2.8146,-2.6527,-2.5814,-2.4902,-2.2537,-2.0965,-1.9359,-1.6977,-1.65,-1.6697,-1.7297,-1.72,-1.8154,-2.1493,-2.202,-2.3025,-2.5988,-2.8825,-3.0733,-3.1085,-3.4123,-3.6684,-3.7989,-3.9396,-4.0475,-4.0974,-4.158,-4.2133,-4.274,-4.2942,-4.2986,-4.2986,-4.2986,-4.2986,-4.2986,-4.2986,-4.2986,-4.2986,-4.2986,-4.2986,-4.2986,-4.3539,-4.389,-4.4091,-4.4644,-4.4995,-4.5146,-4.5146,-4.5146,-4.5196,-4.5598,-4.5748,-4.5799,-4.6175,-4.6075,-4.5748,0.0,0.0,0.0,0.0,0.0,0.0,0.0,-1.9087,-1.9382,-2.0944,-2.0383,-2.0441,-2.2114,-2.0409,-1.9553,-2.0525,-1.8959,0.0,0.0,0.0,0.0,0.0,0.0,0.0,0.0,-1.7107,-1.8211,-2.0475,-2.0808,-2.1592,-2.2792,-2.1965,-2.0552,-1.8653,-1.8368,-1.7709,0.0,0.0,0.0,0.0,0.0,0.0,-1.7619,0.0,0.0,0.0,0.0,0.0,0.0,0.0,0.0,0.0,0.0,0.0,0.0,0.0,-2.1773,-2.4154,-2.4978,-2.6304,-2.7066,-2.539,-2.4132,-2.2975,-2.1546,-1.9736,-1.8053,-1.6751,-1.65,-1.66,-1.6999,-1.6948,-1.7702,-2.0338,-2.0991,-2.225,-2.5184,-2.8047,-3.0105,-3.0834,-3.4374,-3.6985,-3.7563,-3.9195,-4.0425,-4.0924,-4.1731,-4.2363,-4.2715,-4.2861,-4.2986,-4.2986,-4.2986,-4.2986,-4.2986,-4.2986,-4.2986,-4.2986,-4.2986,-4.2986,-4.2986,-4.3338,-4.3614,-4.3815,-4.4166,-4.4443,0.0,-4.4618,-4.4618,-4.4669,-4.502,-4.5171,-4.5196,-4.5547,-4.5447,-4.5171,0.0,0.0,0.0,0.0,0.0,0.0,0.0,-1.9382,-1.9872,-2.0398,-2.0009,-2.0288,-2.1885,-1.974,-1.8782,-2.0383,0.0,0.0,0.0,0.0,0.0,0.0,0.0,0.0,-1.8171,-1.8195,-1.9544,-2.2278,-2.286,-2.3582,-2.4484,-2.5511,-2.3719,-1.9674,-2.0711,-1.9751,0.0,0.0,0.0,0.0,-1.8092,-1.8112,0.0,0.0,0.0,0.0,0.0,0.0,0.0,0.0,0.0,0.0,0.0,0.0,0.0,0.0,0.0,0.0,0.0,-2.5159,-2.5871,-2.5209,-2.3527,-2.1744,-2.0691,-1.8881,0.0,-1.6626,-1.65,-1.6525,-1.66,-1.6999,-1.7576,-1.838,-1.9786,-2.1948,-2.5285,-2.6917,-2.8725,-3.1311,-3.3596,-3.5152,-3.5583,-3.8165,-4.0049,-4.0601,-4.163,-4.2263,-4.2263,-4.2766,-4.2986,-4.2986,-4.2986,-4.2986,-4.2986,-4.2986,-4.2986,-4.2986,-4.2986,-4.2986,-4.2986,-4.2986,-4.3263,-4.374,-4.374,-4.4041,-4.4518,-4.4518,-4.4518,-4.4518,-4.4543,-4.4568,-4.4568,-4.4618,-4.4593,-4.4568,0.0,0.0,0.0,0.0,0.0,0.0,0.0,0.0,0.0,0.0,-1.8819,-1.8801,-1.9587,-1.9111,-1.9027,0.0,0.0,0.0,0.0,0.0,0.0,0.0,0.0,0.0,-1.8722,-1.921,-2.1024,-2.4158,-2.5121,-2.6746,-2.8946,-2.8197,-2.6046,-2.2723,-2.2127,-2.0378,0.0,0.0,0.0,0.0,-1.8092,-1.8347,0.0,0.0,0.0,0.0,-1.8366,-1.8418,0.0,0.0,0.0,0.0,0.0,0.0,0.0,0.0,-1.7775,-1.8253,-1.9434,0.0,-2.1142,-2.0188,-1.956,-1.8982,0.0,-1.7775,-1.7247,-1.6626,-1.65,-1.6751,-1.7652,-1.72,-1.7752,-2.084,-2.1317,-2.2749,-2.6917,-3.0306,-3.2742,-3.3822,-3.5881,-3.7111,-3.6835,-3.932,-4.1178,-4.1785,-4.2464,-4.2841,-4.2841,-4.2911,-4.2986,-4.2986,-4.2986,-4.2986,-4.2986,-4.2986,-4.2986,-4.2986,-4.2986,-4.2986,-4.2986,-4.2986,-4.3062,-4.3162,-4.3162,-4.3237,-4.3363,-4.3363,-4.3363,-4.3413,-4.384,-4.3991,-4.4041,-4.4468,-4.4367,-4.3991,0.0,0.0,0.0,0.0,0.0,0.0,0.0,0.0,0.0,0.0,0.0,-1.8949,-1.9258,-1.9277,0.0,0.0,0.0,0.0,0.0,0.0,0.0,0.0,0.0,-1.9277,-1.9277,-1.9931,-2.2019,-2.5648,-2.6509,-2.8499,-3.1391,-3.069,-2.8162,-2.4157,-2.1734,-1.9965,0.0,0.0,0.0,-1.8836,-1.8836,0.0,0.0,0.0,0.0,0.0,-1.8798,-1.8965,0.0,-1.86,-1.9108,-1.9712,0.0,0.0,0.0,0.0,-1.7363,-1.7159,-1.7922,-1.8783,-1.9233,-1.8405,-1.8204,-1.8053,-1.7524,-1.7197,-1.6898,-1.655,-1.65,-1.6676,-1.7325,-1.8179,-1.9158,-2.0238,-2.2723,-2.5711,-2.9126,-3.1863,-3.3922,-3.4931,-3.611,-3.7161,-3.7889,-3.9772,-4.1178,-4.1731,-4.2509,-4.2986,-4.2986,-4.2986,-4.2986,-4.2986,-4.2986,-4.2986,-4.2986,-4.2986,-4.2986,-4.2986,-4.2986,-4.2986,-4.2986,-4.2986,-4.2986,-4.2986,-4.2986,-4.2986,-4.2986,-4.2986,-4.2986,-4.3011,-4.3313,-4.3413,-4.3463,-4.3765,-4.3689,-4.3413,0.0,0.0,0.0,0.0,0.0,0.0,0.0,0.0,0.0,0.0,0.0,0.0,0.0,0.0,0.0,0.0,0.0,0.0,0.0,0.0,0.0,0.0,0.0,-1.9857,-2.0157,-2.0617,-2.2742,-2.6602,-2.7585,-2.9505,-3.2348,-3.2886,-3.0297,-2.5053,-2.1204,-1.956,0.0,0.0,-1.9708,-1.9708,-1.9708,0.0,0.0,0.0,0.0,0.0,0.0,0.0,0.0,-1.9737,-2.0595,-2.1485,-2.002,0.0,0.0,0.0,0.0,0.0,-1.8208,-1.9008,-1.9284,-1.8298,-1.812,-1.8044,-1.7398,-1.6939,-1.6607,-1.6522,-1.65,-1.6701,-1.7378,-1.9484,-2.079,-1.9761,-2.4607,-2.9227,-3.1361,-3.2767,-3.4048,-3.5232,-3.5683,-3.6634,-3.8442,-3.9772,-4.0777,-4.1404,-4.2333,-4.2886,-4.2961,-4.2986,-4.2986,-4.2986,-4.2986,-4.2986,-4.2986,-4.2986,-4.2986,-4.2986,-4.2986,-4.2986,-4.2986,-4.2986,-4.2986,-4.2986,-4.2986,0.0,-4.2986,-4.2986,-4.2986,-4.2986,-4.2986,-4.2986,-4.2986,-4.2986,-4.3037,-4.3112,0.0,0.0,0.0,0.0,0.0,0.0,0.0,0.0,0.0,0.0,0.0,0.0,0.0,0.0,0.0,0.0,0.0,0.0,0.0,0.0,0.0,-1.893,-1.9406,-2.0486,-2.2194,-2.1784,-2.3191,-2.6602,-2.8906,-3.0612,-3.172,-3.4562,-3.2766,-2.7011,-2.3642,-2.1217,-1.9708,-1.9708,-1.9708,-1.9708,-1.9708,0.0,0.0,0.0,0.0,0.0,0.0,0.0,0.0,-1.9225,-1.9924,-2.0723,-1.8947,0.0,0.0,0.0,0.0,0.0,-1.9998,-2.1215,-2.11,-1.8163,-1.7821,-1.7926,-1.6881,-1.691,-1.7042,-1.6607,-1.65,-1.7629,-2.139,-2.0613,-2.0788,-2.5184,-2.8323,-3.0834,-3.2566,-3.462,-3.5604,-3.4926,-3.6508,-3.7588,-3.7462,-3.9295,-4.0927,-4.2011,-4.2238,-4.2539,-4.2961,-4.2986,-4.2986,-4.2986,-4.2986,-4.2986,-4.2986,-4.2986,-4.2986,-4.2986,-4.2986,-4.2986,-4.2986,-4.2986,-4.2986,-4.2986,0.0,-4.2986,-4.2986,-4.2986,-4.2986,-4.2986,-4.2986,-4.2986,-4.2986,-4.2986,-4.3263,-4.374,0.0,0.0,0.0,0.0,0.0,0.0,0.0,0.0,0.0,0.0,0.0,0.0,0.0,0.0,0.0,0.0,0.0,0.0,0.0,0.0,0.0,-2.1374,-2.1357,-2.1744,-2.2673,-2.343,-2.5405,-2.8697,-3.0642,-3.2317,-3.3633,-3.2287,-2.9861,-2.6363,-2.2703,-2.0576,-1.9708,-1.9708,-1.9708,-1.9708,0.0,0.0,0.0,0.0,0.0,0.0,0.0,0.0,0.0,0.0,-2.0727,-2.1595,-1.9953,0.0,0.0,0.0,0.0,0.0,-1.9858,-2.0412,-2.0481,-2.0428,-2.1799,-2.3,-2.2455,-2.2296,-2.1852,-2.0365,-2.0061,-2.0688,-2.2719,-2.3547,-2.5737,-3.1326,-3.1537,-3.1712,-3.3696,-3.4324,-3.4726,-3.5082,-3.6009,-3.7061,-3.799,-3.9295,-4.0526,-4.163,-4.2037,-4.2439,-4.2936,-4.2986,-4.2986,-4.2986,-4.2986,-4.2986,-4.2986,-4.2986,-4.2986,-4.2986,-4.2986,-4.2986,-4.2986,-4.2986,-4.2986,-4.2986,0.0,-4.2986,-4.2986,-4.2986,-4.2986,-4.3011,-4.3313,-4.3413,-4.3463,-4.3765,-4.4041,-4.4317,0.0,0.0,0.0,0.0,0.0,0.0,0.0,0.0,0.0,0.0,0.0,0.0,0.0,0.0,0.0,0.0,0.0,0.0,0.0,0.0,-2.0887,-2.3071,-2.3281,-2.3751,-2.45,-2.5704,-2.7919,-3.121,-3.2557,-3.4083,-3.5639,-3.064,-2.738,-2.5674,-2.2044,-2.0157,-1.9708,-1.9708,-1.9708,-1.9708,0.0,0.0,0.0,0.0,0.0,0.0,0.0,0.0,0.0,0.0,0.0,0.0,0.0,0.0,0.0,-2.0493,-1.9372,-1.8841,-2.0241,-2.0251,-2.0562,-2.3272,-2.4648,-2.5637,-2.6836,-2.6274,-2.5228,-2.4136,-2.3904,-2.4092,-2.4659,-2.7306,-3.0643,-3.457,-3.3495,-3.2867,-3.4826,-3.4374,-3.4324,-3.5533,-3.5909,-3.6737,-3.8492,-3.9295,-4.0149,-4.12,-4.1731,-4.2313,-4.2936,-4.2986,-4.2986,-4.2986,-4.2986,-4.2986,-4.2986,-4.2986,-4.2986,-4.2986,-4.2986,-4.2986,-4.2986,-4.2986,-4.2986,-4.2986,-4.2986,-4.2986,-4.2986,-4.2986,-4.3062,-4.3212,-4.3639,-4.389,-4.4066,-4.4618,-4.4819,-4.4895,0.0,0.0,0.0,0.0,0.0,0.0,0.0,0.0,0.0,0.0,0.0,0.0,0.0,0.0,0.0,0.0,0.0,0.0,0.0,0.0,-2.1006,-2.1784,-2.4118,-2.6811,-2.9864,-2.8936,-2.9983,-3.3275,-3.4622,-3.5669,-3.6327,-3.2228,-2.8936,-2.6393,-2.3691,-2.1445,-1.9708,-1.9708,-1.9708,-1.9708,-1.9708,0.0,0.0,0.0,0.0,0.0,0.0,0.0,0.0,0.0,0.0,0.0,0.0,0.0,-2.1685,-2.1605,-2.0725,-2.0289,-2.2655,-2.306,-2.3386,-2.591,-2.2998,-2.0745,-2.547,-2.4515,-2.3318,-2.5744,-2.6248,-2.6942,-2.9265,-3.1575,-3.278,-3.1928,-3.3294,-3.4901,-3.6128,-3.6229,-3.6204,-3.6329,-3.7211,-3.7889,-3.804,-3.9044,-4.0149,-4.12,-4.1326,-4.1856,-4.2911,-4.2986,-4.2986,-4.2986,-4.2986,-4.2986,-4.2986,-4.2986,-4.2986,-4.2986,-4.2986,-4.2986,-4.2986,-4.2986,-4.2986,-4.2986,-4.2986,-4.2986,-4.2986,-4.2986,-4.3288,-4.374,-4.379,-4.4116,-4.4644,-4.5221,-4.5422,-4.5497,0.0,0.0,0.0,0.0,0.0,0.0,0.0,0.0,0.0,0.0,0.0,0.0,0.0,0.0,0.0,0.0,0.0,0.0,0.0,-1.9947,-2.1096,-2.3409,-2.4844,-2.6961,-2.9864,-3.145,-3.3455,-3.5938,-3.6058,-3.5609,-3.4532,-3.0133,-2.7111,-2.5202,-2.2173,-2.0617,-2.0288,-1.9887,-1.9929,-2.0288,-1.9887,-1.9708,0.0,0.0,0.0,0.0,0.0,0.0,0.0,0.0,-2.0617,-2.1216,-2.0617,-2.1325,-2.2074,-2.0816,-2.0425,-2.0518,-2.1028,-2.2361,-2.3913,-2.5264,-2.4163,-2.3985,-2.8934,-2.9873,-2.9835,-3.0332,-3.0522,-3.0747,-3.1171,-3.3488,-3.4996,-3.3946,-3.4902,-3.5881,-3.6355,-3.6405,-3.6405,-3.6405,-3.7036,-3.7638,-3.7965,-3.8718,-3.9647,-4.0752,-4.0774,-4.1304,-4.2464,-4.2514,-4.269,-4.2961,-4.2986,-4.2986,-4.2986,-4.2986,-4.2986,-4.2986,-4.2986,-4.2986,-4.2986,-4.2986,-4.2986,-4.2986,-4.2986,-4.2986,-4.3011,-4.3338,-4.3614,-4.3865,-4.4568,-4.5171,-4.5698,-4.5924,-4.5999,-4.6024,0.0,0.0,0.0,0.0,0.0,0.0,0.0,0.0,0.0,0.0,0.0,0.0,0.0,0.0,0.0,0.0,0.0,0.0,-1.9708,-1.9899,-2.1126,-2.3588,-2.4903,-2.6752,-2.9205,-3.2736,-3.5162,-3.6477,-3.6477,-3.537,-3.3095,-2.9086,-2.6632,-2.5405,-2.2293,-2.1306,-2.1854,-2.0797,-2.0468,-2.0628,-1.9959,-1.9708,0.0,0.0,0.0,0.0,0.0,0.0,0.0,0.0,-2.0468,-2.0976,-2.0486,-2.1145,-2.1834,-2.0666,-2.1395,-2.239,-2.1557,-2.2865,-2.4668,-2.5661,-2.5577,-2.6457,-3.1135,-3.2434,-3.2852,-3.3742,-3.3845,-3.3496,-3.2673,-3.4443,-3.5768,-3.4899,-3.5709,-3.6405,-3.6405,-3.6405,-3.6405,-3.6405,-3.701,-3.7588,-3.7965,-3.8693,-3.9521,-4.045,-4.0526,-4.0927,-4.1856,-4.2112,-4.2389,-4.2766,-4.2886,-4.2986,-4.2986,-4.2986,-4.2986,-4.2986,-4.2986,-4.2986,-4.2986,-4.2986,-4.2986,-4.2986,-4.2986,-4.3087,-4.3263,-4.3639,-4.4016,-4.4418,-4.5372,-4.5974,-4.6301,-4.6301,-4.6301,-4.6301,0.0,0.0,0.0,0.0,0.0,0.0,0.0,0.0,0.0,0.0,0.0,0.0,0.0,0.0,0.0,0.0,0.0,0.0,-1.9708,-2.0318,-2.1006,-2.1665,-2.4208,-2.6512,-2.8517,-3.2437,-3.4444,-3.4503,-3.5818,-3.51,-3.2407,-2.9804,-2.8244,-2.7465,-2.4777,-2.3969,-2.4455,-2.2503,-2.1306,-2.0628,-1.9959,-1.9708,-1.9708,0.0,0.0,0.0,0.0,0.0,0.0,0.0,-2.0258,-1.9947,-2.1246,-2.1246,-2.0838,-2.1485,-2.3999,-2.6322,-2.5154,-2.5235,-2.6,-2.7604,-2.6941,-2.6984,-3.1275,-3.0681,-3.0606,-3.5385,-3.5769,-3.4934,-3.4073,-3.4589,-3.4934,-3.4073,-3.5324,-3.6405,-3.6405,-3.6405,-3.6405,-3.6405,-3.7337,-3.799,-3.8015,-3.9019,-3.9923,-4.0475,-4.0501,-4.0752,-4.125,-4.1856,-4.2213,-4.2213,-4.274,-4.2961,-4.2961,-4.2986,-4.2986,-4.2986,-4.2986,-4.2986,-4.2986,-4.2986,-4.2986,-4.2986,-4.2986,-4.3288,-4.379,-4.3815,-4.4468,-4.5547,-4.61,-4.6301,-4.6301,-4.6301,-4.6301,-4.6301,0.0,0.0,0.0,0.0,0.0,0.0,0.0,0.0,0.0,0.0,0.0,0.0,0.0,0.0,0.0,0.0,0.0,0.0,-1.9708,-1.9887,-2.0288,-2.0976,-2.3041,-2.4268,-2.444,-2.7405,-3.079,-3.4503,-3.4412,-3.2796,-2.9744,-2.8483,-2.7021,-2.5465,-2.4664,-2.3648,-2.2503,-2.1455,-2.0868,-2.0688,-2.0479,-2.0109,-1.9768,0.0,0.0,0.0,0.0,0.0,0.0,0.0,0.0,0.0,-2.0337,-2.1425,-2.2323,-2.0198,-2.1625,-2.3366,-2.1116,-2.3837,-2.7244,-2.7078,-2.9352,-3.2133,-3.3748,-3.3384,-3.34,-3.589,-3.6077,-3.5635,-3.4943,-3.5475,-3.5749,-3.4942,-3.5709,-3.6405,-3.6405,-3.6405,-3.6405,-3.6405,-3.6985,-3.7588,-3.7965,-3.8693,-3.9346,-3.9898,-3.9948,-4.035,-4.1225,-4.1128,-4.1354,-4.2187,-4.2363,-4.2464,-4.2464,-4.2841,-4.2986,-4.2986,-4.2986,-4.2986,-4.2986,-4.2986,-4.2986,-4.3011,-4.3388,-4.3639,-4.3865,-4.4669,-4.5422,-4.6075,-4.625,-4.6301,-4.6301,-4.6301,-4.6301,-4.6301,0.0,0.0,0.0,0.0,0.0,0.0,0.0,0.0,-1.9708,-1.9708,-1.9708,-1.9708,0.0,0.0,0.0,-1.9708,-1.9708,0.0,-1.9708,-1.9708,-2.0127,-2.1066,-2.2473,-2.3691,-2.462,-2.6716,-2.8816,-3.0941,-3.136,-3.0253,-2.7799,-2.8214,-2.7859,-2.6966,-2.7235,-2.6249,-2.4388,-2.346,-2.2443,-2.1485,-2.1485,-2.1096,-2.0528,0.0,0.0,0.0,0.0,0.0,0.0,0.0,0.0,0.0,-1.942,-2.0198,-2.1246,-2.1077,-2.2951,-2.498,-2.4837,-2.7824,-3.0998,-3.1143,-3.2654,-3.4377,-3.5299,-3.5271,-3.5353,-3.6222,-3.6315,-3.6109,-3.573,-3.607,-3.6265,-3.5769,-3.6095,-3.6405,-3.6405,-3.6405,-3.6405,-3.6405,-3.6883,-3.7387,-3.7939,-3.8542,-3.9094,-3.9647,-3.9697,-3.9973,-4.0651,-4.0576,-4.0827,-4.148,-4.1986,-4.2213,-4.2213,-4.2766,-4.2986,-4.2986,-4.2986,-4.2986,-4.2986,-4.2986,-4.2986,-4.3011,-4.379,-4.4267,-4.4543,-4.5447,-4.6024,-4.6301,-4.6301,-4.6301,-4.6301,-4.6301,-4.6301,-4.6301,0.0,0.0,0.0,0.0,0.0,0.0,0.0,-1.9708,-1.9708,-1.9708,-1.9708,-1.9708,0.0,0.0,0.0,-1.9708,-1.9708,-1.9708,-1.9708,-1.9768,-2.0348,-2.1635,-2.2463,-2.429,-2.7345,-2.8483,-2.7829,-2.5345,-2.741,-2.7769,-2.6542,-2.8633,-2.9894,-3.0432,-3.0972,-3.0105,-2.8158,-2.6662,-2.468,-2.2433,-2.2553,-2.2164,-2.1515,-2.1635,0.0,0.0,0.0,0.0,0.0,0.0,0.0,0.0,-1.8702,-1.8326,-1.8685,-2.2781,-2.6069,-2.9125,-3.2278,-3.4288,-3.5926,-3.7624,-3.6373,-3.4995,-3.6162,-3.6499,-3.6546,-3.6405,-3.6405,-3.6405,-3.6405,-3.6405,-3.6405,-3.6405,-3.6405,-3.6405,-3.6405,-3.6405,-3.6405,-3.6405,-3.6857,-3.7337,-3.7939,-3.8492,-3.9044,-3.9647,-3.9697,-3.9722,-3.9772,-4.0199,-4.0475,-4.0526,-4.148,-4.2087,-4.2137,-4.2585,-4.2886,-4.2986,-4.2936,-4.2936,-4.2986,-4.2986,-4.3037,-4.3187,-4.4192,-4.4995,-4.5598,-4.61,-4.6301,-4.6301,-4.6301,-4.6301,-4.6301,-4.6301,-4.6301,-4.6301,0.0,0.0,0.0,0.0,0.0,0.0,-1.9708,-1.9708,-1.9708,-1.9708,-1.9708,-1.9708,-1.9708,-1.9708,0.0,-1.9708,-1.9708,-1.9708,-1.9708,-2.0198,-2.0857,-2.1665,-2.331,-2.4754,-2.6004,-2.5285,-2.4358,-2.3332,-2.5794,-2.6602,-2.5884,-2.8397,-2.9681,-2.9801,-2.9385,-2.7803,-2.5322,-2.296,-2.1335,-2.0456,-2.1505,-2.1186,-2.0247,-2.1306,-2.0876,0.0,0.0,0.0,0.0,0.0,0.0,0.0,-1.8702,-1.8972,-1.9241,-1.9193,-2.2921,-2.6952,-2.6707,-3.1031,-3.5941,-3.7259,-3.8765,-3.9313,-3.695,-3.7103,-3.7494,-3.6593,-3.6405,-3.6405,-3.6405,-3.6405,-3.6405,-3.6405,-3.6405,-3.6405,-3.6405,-3.6405,-3.6405,-3.6405,-3.6505,-3.6935,-3.7914,-3.8115,-3.8617,-3.9622,-3.9697,-3.9873,-4.0325,-4.0049,-4.0074,-4.0501,-4.0752,-4.1078,-4.1505,-4.163,-4.2133,-4.2961,-4.259,-4.2615,-4.2986,-4.2986,-4.3438,-4.4292,-4.4518,-4.5196,-4.615,-4.625,-4.6301,-4.6301,-4.6301,-4.6301,-4.6301,-4.6301,-4.6301,-4.6301,0.0,0.0,0.0,0.0,0.0,0.0,0.0,0.0,-1.9708,-1.9708,-1.9708,-1.9708,-1.9708,-1.9708,0.0,0.0,-1.9708,-1.9708,-1.9708,-2.0019,-2.0797,-2.2134,-2.4358,-2.5285,-2.4657,-2.3969,-2.2981,-2.1724,-2.3101,-2.4238,-2.5173,-2.753,-2.9142,-2.9983,-2.9355,-2.759,-2.4963,-2.3289,-2.2024,-2.1205,-2.1894,-2.1774,-2.1175,-2.1565,-2.0876,-1.9708,-1.9708,0.0,0.0,0.0,0.0,0.0,0.0,0.0,-1.8565,-2.006,-2.2532,-2.5491,-2.8991,-3.2937,-3.6493,-3.8169,-4.0107,-4.0845,-3.788,-3.7678,-3.7926,-3.7335,-3.6803,-3.6405,-3.6405,-3.6405,-3.6405,-3.6405,-3.6405,-3.6405,-3.6405,-3.6405,-3.6405,-3.6405,-3.6405,-3.6832,-3.7889,-3.8015,-3.8467,-3.9597,-3.9697,-3.9823,-4.0099,-3.9848,-3.9823,-4.0124,-4.0375,-4.0651,-4.0899,-4.115,-4.163,-4.2183,-4.2213,-4.2489,-4.2986,-4.2986,-4.3438,-4.4242,-4.4518,-4.5121,-4.5949,-4.62,-4.6301,-4.6301,-4.6301,-4.6301,-4.6301,-4.6301,-4.6301,-4.6301,0.0,0.0,0.0,0.0,0.0,0.0,0.0,0.0,0.0,-1.9708,-1.9708,-1.9708,-1.9708,-1.9708,-1.9708,0.0,0.0,0.0,-1.9708,-1.9917,-2.0846,-2.2613,-2.4889,-2.5285,-2.364,-2.337,-2.2473,-2.0868,-2.0748,-2.2093,-2.4814,-2.6572,-2.8483,-3.0313,-2.9325,-2.7619,-2.5352,-2.4216,-2.3161,-2.2194,-2.2313,-2.2283,-2.2134,-2.1575,-2.0587,-1.9528,-1.9408,-1.9438,-1.9528,-1.9528,0.0,0.0,0.0,0.0,-1.7503,-2.1575,-2.2823,-2.4446,-3.1777,-3.5091,-3.7103,-3.9591,-4.1042,-4.1295,-3.8934,-3.8424,-3.8334,-3.8153,-3.7196,-3.6405,-3.6405,-3.6405,-3.6405,-3.6405,-3.6405,-3.6405,-3.6405,-3.6405,-3.6405,-3.6405,-3.648,-3.6933,-3.7914,-3.809,-3.8592,-3.9622,-3.9697,-3.9697,-3.9697,-3.9697,-3.9697,-3.9697,-4.0149,-4.0425,-4.0526,-4.0824,-4.11,-4.13,-4.1882,-4.2489,-4.2986,-4.2986,-4.3288,-4.384,-4.4392,-4.4945,-4.5522,-4.6075,-4.6301,-4.6301,-4.6301,-4.6301,-4.6301,-4.6301,-4.6301,-4.6301,0.0,0.0,0.0,0.0,0.0,0.0,0.0,0.0,0.0,0.0,-1.9708,-1.9708,-1.9708,-1.9708,-1.9708,-1.9708,-1.9708,-1.9708,-1.9708,0.0,0.0,-2.2673,-2.3541,-2.3879,-2.361,-2.2503,-2.1814,-2.1575,-2.0987,-2.2332,-2.5495,-2.6333,-2.7824,-2.9621,-2.72,-2.5591,-2.4545,-2.1605,-2.0277,-2.0157,-2.0737,-2.0617,-2.0097,-2.0007,-1.9498,-1.8762,-1.8177,-1.8326,-1.8822,-1.8822,-1.8762,0.0,0.0,0.0,-1.7055,-1.8835,-2.1306,-2.3857,-2.5604,-3.1185,-3.7278,-4.0573,-4.2234,-4.2467,-4.0189,-3.9667,-3.936,-3.8334,-3.7196,-3.6405,-3.6405,-3.6405,-3.6405,-3.6405,-3.6405,-3.6405,-3.6405,-3.6405,-3.6405,-3.6405,-3.6832,-3.7312,-3.7939,-3.8467,-3.9019,-3.9647,-3.9697,-3.9697,-3.9697,-3.9697,-3.9697,-3.9697,-3.9772,-4.0023,-4.0501,-4.0124,-4.04,-4.13,-4.1882,-4.2489,-4.2986,-4.2986,-4.3288,-4.384,-4.4392,-4.4945,-4.5522,-4.6075,-4.6301,-4.6301,-4.6301,-4.6301,-4.6301,-4.6301,-4.6301,-4.6301,0.0,0.0,0.0,0.0,0.0,0.0,0.0,0.0,0.0,0.0,0.0,-1.9708,-1.9708,-1.9708,-1.9708,-1.9708,-1.9708,-1.9708,-1.9708,-2.0587,-2.1276,-2.1575,-2.2203,-2.2353,-2.1994,-2.1425,-2.0946,-2.0557,-2.0288,-2.1814,-2.5053,-2.5734,-2.732,-2.9472,-2.6422,-2.4664,-2.3849,-2.0917,-1.9899,-2.0258,-2.0168,-2.1515,-2.3221,-2.0258,-2.0348,-2.1645,-1.8745,-1.8117,-1.8702,-1.8702,-1.8942,-1.9121,-1.8386,0.0,0.0,0.0,-1.8864,-2.1495,-2.6966,-3.2617,-3.7758,-4.0821,-4.2467,-4.2699,-4.0404,-4.0404,-4.0361,-3.8469,-3.7723,-3.715,-3.6546,-3.6405,-3.6405,-3.6405,-3.6405,-3.6405,-3.6405,-3.6405,-3.6405,-3.6405,-3.6883,-3.7387,-3.7939,-3.8542,-3.9094,-3.9647,-3.9697,-3.9697,-3.9697,-3.9697,-3.9697,-3.9697,-3.9697,-3.9798,-4.0049,-3.9823,-4.0099,-4.0824,-4.143,-4.1982,-4.259,-4.2836,-4.3112,-4.3388,-4.4242,-4.4769,-4.507,-4.5949,-4.6301,-4.6301,-4.6301,-4.6301,-4.6301,-4.6301,-4.6301,-4.6301,0.0,0.0,0.0,0.0,0.0,0.0,0.0,0.0,0.0,0.0,0.0,-1.9708,-1.9708,0.0,0.0,0.0,-1.9708,-1.9708,-1.9708,-2.0168,-2.0468,-2.0468,-2.0917,-2.0946,-2.0468,-2.0468,-2.0198,-1.9708,-1.9887,-2.1724,-2.5113,-2.5794,-2.753,-2.9953,-2.6782,-2.4807,-2.3699,-2.1265,-2.0587,-2.1216,-2.1186,-2.3251,-2.6004,-2.2892,-2.3528,-2.5472,-2.0688,-1.9492,-2.0001,-1.8835,-1.9001,-1.9498,-1.8326,-1.7848,0.0,0.0,0.0,-1.9235,-2.7504,-3.178,-3.4966,-3.941,-4.1155,-4.1646,-4.0927,-4.1211,-4.1098,-3.9332,-3.8514,-3.7861,-3.6964,-3.6593,-3.6405,-3.6405,-3.6405,-3.6405,-3.6405,-3.6405,-3.6405,-3.6405,-3.696,-3.7563,-3.7965,-3.8668,-3.9245,-3.9672,-3.9697,-3.9697,-3.9697,-3.9697,-3.9697,-3.9697,-3.9697,-3.9697,-3.9697,-3.9697,-3.9973,-4.0526,-4.1025,-4.163,-4.2238,-4.2791,-4.2986,-4.3037,-4.4141,-4.4618,-4.4719,-4.5849,-4.6301,-4.6301,-4.6301,-4.6301,-4.6301,-4.6301,-4.6301,-4.6301,0.0,0.0,0.0,0.0,0.0,0.0,0.0,0.0,0.0,0.0,0.0,-1.9708,-1.9708,-1.9708,-1.9708,-1.9708,-1.9708,-1.9708,-1.9708,-1.9738,-1.9768,-1.9768,-1.9798,0.0,-1.9768,-1.9768,-1.9738,-1.9708,-2.0348,-2.2652,-2.6512,-2.7195,-2.8876,-3.1301,-2.8607,-2.6363,-2.4425,-2.2443,-2.1984,-2.2763,-2.4567,-2.5435,-2.5974,-2.8816,-3.0013,-2.9505,-2.432,-2.3251,-2.3618,-1.9223,-1.8642,-1.9588,-1.8882,-1.8207,-1.7699,0.0,0.0,0.0,-2.3468,-2.4634,-2.6458,-3.5394,-3.7669,-3.8656,-4.2306,-4.2345,-4.1587,-4.1462,-3.964,-3.8062,-3.8017,-3.715,-3.6405,-3.6405,-3.6405,-3.6405,-3.6405,-3.6405,-3.6405,-3.6405,-3.7312,-3.7965,-3.8015,-3.8994,-3.9672,-3.9697,-3.9697,-3.9697,-3.9697,-3.9697,-3.9697,-3.9697,-3.9697,-3.9697,-3.9697,-3.9697,-3.9973,-4.0526,-4.1025,-4.163,-4.2238,-4.2791,-4.2986,-4.3037,-4.4141,-4.4618,-4.4719,-4.5849,-4.6301,-4.6301,-4.6301,-4.6301,-4.6301,-4.6301,-4.6301,-4.6301,0.0,0.0,0.0,0.0,0.0,0.0,0.0,0.0,0.0,0.0,0.0,0.0,0.0,-1.9708,-1.9708,-1.9708,-1.9708,-1.9708,-1.9708,-1.9708,-1.9708,-1.9708,-1.9708,-1.9708,-1.9708,-1.9708,-1.9708,-1.9708,-1.9929,-2.1635,-2.4687,-2.5794,-2.726,-2.8936,-2.7585,-2.6303,-2.5023,-2.1784,-2.0797,-2.1665,-2.4477,-2.7116,-2.9388,-2.9325,-3.139,-3.3604,-2.7884,-2.5315,-2.4365,-2.2691,-2.1066,-1.9528,-1.8403,-1.7593,-1.6816,-1.5562,-1.592,-1.7593,-2.1645,-2.3789,-2.6183,-3.1629,-3.522,-3.7555,-3.8259,-4.0637,-4.2304,-4.0788,-4.0419,-3.9901,-3.8379,-3.715,-3.6405,-3.6405,-3.6405,-3.6405,-3.6405,-3.6405,-3.6531,-3.6883,-3.7563,-3.814,-3.8517,-3.9245,-3.9697,-3.9697,-3.9697,-3.9697,-3.9697,-3.9697,-3.9697,-3.9697,-3.9697,-3.9697,-3.9697,-3.9697,-3.9798,-3.9998,-4.0551,-4.1103,-4.1656,-4.2208,-4.2836,-4.3539,-4.4292,-4.4618,-4.4719,-4.5849,-4.6301,-4.6301,-4.6301,-4.6301,-4.6301,-4.6301,-4.6301,-4.6301,0.0,0.0,0.0,0.0,0.0,0.0,0.0,0.0,0.0,-1.9708,0.0,0.0,0.0,0.0,-1.9708,-1.9708,-1.9708,-1.9708,-1.9708,-1.9708,-1.9708,-1.9708,-1.9708,-1.9708,-1.9708,-1.9498,-1.945,-1.9708,-1.9708,-2.1055,-2.364,-2.4986,-2.6303,-2.7555,-2.6422,-2.6063,-2.6063,-2.2981,-2.1814,-2.2362,-2.6572,-2.9026,-3.0372,-3.1958,-3.3784,-3.4951,-3.0999,-2.8577,-2.7176,-2.6727,-2.5262,-2.3191,-2.0509,-1.8027,-1.5771,-1.426,-1.5038,-1.6891,-1.9121,-2.1306,-2.3947,-2.8158,-3.118,-3.3806,-3.6347,-3.9225,-4.1261,-4.1108,-4.1337,-4.1042,-3.905,-3.7769,-3.6849,-3.6452,-3.6405,-3.6405,-3.6405,-3.6405,-3.6606,-3.7111,-3.7663,-3.8241,-3.8869,-3.9371,-3.9697,-3.9697,-3.9697,0.0,-3.9697,-3.9697,-3.9697,-3.9697,-3.9697,-3.9697,-3.9697,-3.9697,-3.9697,-3.9697,-4.0249,-4.0701,-4.1025,-4.1806,-4.2715,-4.3564,-4.4292,-4.4744,-4.4995,-4.5924,-4.6301,-4.6301,-4.6301,-4.6301,-4.6301,-4.6301,-4.6301,-4.6301,0.0,0.0,0.0,0.0,0.0,0.0,0.0,0.0,-1.9738,-1.9768,0.0,0.0,0.0,0.0,0.0,-1.9768,-1.9768,-1.9738,-1.9708,-1.9708,-1.9708,-1.9708,-1.9708,-1.9708,-1.9708,-1.9061,-1.9061,-1.9708,-1.9708,-2.1006,-2.355,-2.4866,-2.6183,-2.7405,-2.5465,-2.5644,-2.7375,-2.6004,-2.5113,-2.5113,-3.1001,-3.1149,-2.8723,-3.7135,-3.7614,-3.3784,-3.3754,-3.3245,-3.2407,-3.112,-3.0943,-3.0345,-2.5076,-1.945,-1.4692,-1.4004,-1.4766,-1.5829,0.0,0.0,0.0,-2.4866,-2.5435,-2.7086,-3.6742,-3.8063,-3.8327,-4.2264,-4.221,-4.118,-4.0102,-3.8961,-3.7769,-3.6615,-3.6405,-3.6405,-3.643,-3.643,-3.6656,-3.7161,-3.7713,-3.8266,-3.8894,-3.9371,-3.9697,-3.9697,-3.9697,-3.9697,-3.9697,-3.9697,-3.9697,-3.9697,-3.9697,-3.9697,-3.9697,-3.9697,-3.9697,-3.9697,-4.0249,-4.0501,-4.0551,-4.163,-4.2514,-4.3062,-4.4141,-4.497,-4.5547,-4.61,-4.6301,-4.6301,-4.6301,-4.6301,-4.6301,-4.6301,-4.6301,-4.6301,0.0,0.0,0.0,0.0,0.0,-2.0438,-2.0438,-2.0438,-2.0587,0.0,0.0,0.0,-2.0468,-2.0857,-2.1156,-2.1156,-2.1156,-2.0756,-1.9768,-1.9708,-1.9708,-1.9708,-1.9708,-1.9708,-1.9708,-1.9528,-1.9528,-1.9708,-1.9708,-2.0318,-2.1525,-2.2383,-2.346,-2.4657,-2.4118,-2.4178,-2.4537,-2.2293,-2.2592,-2.4903,-2.8517,-3.1001,-3.3066,-3.7315,-3.9649,-4.0449,-3.9529,-3.7255,-3.4771,-3.531,-3.118,-2.4956,-2.015,-1.7206,-1.5305,-1.4154,-1.5068,-1.6263,-1.5321,0.0,0.0,0.0,0.0,0.0,-2.7953,-3.1002,-3.401,-3.715,-3.8612,-3.941,-3.9842,-3.9623,-3.9006,-3.7815,-3.6943,-3.6556,-3.691,-3.7008,-3.736,-3.8291,-3.8542,-3.8843,-3.9421,-3.9597,-3.9697,0.0,-3.9697,-3.9697,-3.9697,-3.9697,-3.9697,-3.9697,-3.9697,-3.9697,-3.9697,-3.9697,-3.9697,-3.9697,-3.9848,-4.0124,-4.0551,-4.1254,-4.2308,-4.3614,-4.4317,-4.5171,-4.61,-4.625,-4.6301,-4.6301,-4.6301,-4.6301,-4.6301,-4.6301,-4.6301,-4.6301,0.0,0.0,-2.0198,-2.0486,-2.1306,-2.1904,-2.1904,-2.1904,-2.2054,0.0,0.0,0.0,-2.1934,-2.2772,-2.3011,-2.2194,-2.1844,-2.1246,-2.0198,-1.9857,-1.9708,-1.9708,-1.9708,-1.9708,-1.9708,-1.9438,-1.942,-1.9708,-1.942,-1.963,-2.0288,-2.0976,-2.1695,-2.2383,-2.2383,-2.2562,-2.2682,-2.0557,-2.1276,-2.4268,-2.9415,-3.1869,-3.3036,-3.8157,-4.0068,-4.018,-4.1384,-3.9589,-3.7075,-3.9469,-3.4143,-2.5974,-2.299,-1.9343,-1.5979,-1.4946,-1.5815,-1.6906,-1.5875,-1.7101,-1.8642,-1.8399,0.0,0.0,-2.7205,-2.9747,-3.2555,-3.7806,-3.9713,-4.035,-3.994,-4.0275,-4.0142,-3.8743,-3.7904,-3.7402,-3.7232,-3.7387,-3.7864,-3.8818,-3.8919,-3.9094,-3.9647,-3.9697,-3.9697,-3.9697,-3.9697,-3.9697,-3.9697,-4.0211,-4.0262,-3.9749,-4.0211,-4.0211,-3.9697,-3.9697,-3.9697,-3.9697,-3.9697,-3.9848,-4.0199,-4.0752,-4.1781,-4.3162,-4.394,-4.492,-4.5974,-4.6225,-4.6301,-4.6301,-4.6301,-4.6301,-4.6301,-4.6301,-4.6301,-4.6301,0.0,0.0,-2.1047,-2.1784,-2.2981,-2.3879,-2.4029,-2.3969,-2.3999,0.0,-2.3729,-2.3661,-2.4388,-2.5285,-2.5136,-2.3392,-2.2433,-2.1605,-2.0868,-2.0109,-1.9708,-1.9708,-1.9708,-1.9708,-1.9708,-1.9121,-1.9091,-1.9708,-1.9091,-1.9121,-1.9708,-2.0318,-2.0569,-2.0569,-2.0569,-2.0917,-2.1395,-2.0348,-2.1205,-2.3901,-3.1539,-3.2916,-3.1239,-3.9176,-3.9865,-3.7135,-4.1272,-4.1123,-3.9409,-4.2432,-3.8003,-3.1001,-2.9505,-2.4066,-1.7951,-1.6443,-1.7176,-1.822,-1.7099,-1.7788,-1.9061,-2.009,-1.9134,0.0,-2.9624,-3.0462,-3.1511,-3.9318,-4.1091,-4.0704,-3.8963,-3.9502,-3.9684,-3.8192,-3.8289,-3.8338,-3.7673,-3.7887,-3.8316,-3.8944,-3.902,0.0,-3.9647,-3.9697,-3.9697,-3.9697,-3.9697,-3.9749,-3.9878,-4.0844,-4.0945,-3.9929,-4.0895,-4.0895,-3.9929,-3.9929,-3.9929,-3.9929,-3.9929,-3.9929,-3.9903,-4.0377,-4.1204,-4.2363,-4.3582,-4.4807,-4.5893,-4.6339,-4.6481,-4.6301,-4.6301,-4.6301,-4.6301,-4.6301,-4.6301,-4.6301,-2.1186,-2.1425,-2.1874,-2.3041,-2.4328,-2.5585,-2.6656,-2.6357,-2.6602,-2.8244,-2.7859,-2.8098,-2.9777,-2.8308,-2.7076,-2.6686,-2.4537,-2.2742,-2.1575,-2.0367,-1.9708,-1.9708,-1.9708,-1.9708,-1.9708,-1.9588,-1.9588,-1.9708,-1.9588,-1.9588,-1.9708,-1.9828,-1.9899,-1.9899,-1.9899,-1.9977,-2.0157,-2.0946,-2.3362,-2.6776,-2.8483,-3.1568,-3.5549,-3.9349,-4.1863,-4.3509,-4.4407,-4.3718,-4.1884,-3.899,-3.7135,-3.4831,-2.7774,-2.6578,-2.6452,-1.9373,-2.015,-2.2422,-1.8548,-1.8476,-1.9301,-1.8476,-1.8822,0.0,-2.0569,-2.1306,-2.263,-2.5503,-2.7237,-2.883,-3.063,-3.1164,-3.1193,-3.0848,-3.395,-3.7279,-3.9738,-3.929,-3.8919,-3.9471,0.0,0.0,-3.9697,-3.9697,-3.9697,-3.9697,-3.9697,-4.0185,-4.1169,-4.0516,-4.0415,-4.1219,-4.0465,-4.0465,-4.1219,-4.1219,-4.1219,-4.1219,-4.1219,-4.1219,-4.1222,-4.1176,-4.1781,-4.2972,-4.527,-4.6922,-4.7937,-4.8041,-4.7357,-4.6301,-4.6301,-4.6301,-4.6301,-4.6301,-4.6301,-4.6301,-2.1575,-2.2203,-2.3161,-2.4807,-2.6482,-2.8038,-2.9355,-2.9265,-2.9415,-3.0432,-3.0851,-3.1031,-3.1002,-3.0133,-2.9026,-2.7705,-2.5435,-2.358,-2.2283,-2.0946,-2.0049,-1.9708,-1.9708,-1.9708,-1.9708,-1.9708,-1.9708,-1.9708,-1.9708,-1.9708,-1.9708,-1.9708,-2.0936,-2.3062,-2.0726,-2.0996,-2.3032,-2.1415,-2.2254,-2.5069,-2.9654,-3.4502,-3.929,-4.2581,-4.4855,-4.6292,-4.6292,-4.5663,-4.4336,-4.1384,-3.8422,-3.5429,-3.2437,-3.0372,-2.8068,-2.3101,-2.3289,-2.4156,-1.9869,-1.9181,-1.9618,-1.9283,-1.9211,0.0,0.0,-2.1635,-2.2506,-2.5562,-2.641,-2.6937,-2.8082,-2.8541,-2.8712,-2.8791,-3.2392,-3.5315,-3.5654,-3.8879,-4.1028,-4.0718,0.0,0.0,-3.9749,-4.0262,-4.0895,-4.1541,-4.1019,-4.1219,-4.2496,-4.2544,-4.2544,-4.2544,-4.2544,-4.223,-4.1591,-4.223,-4.223,-4.1591,-4.223,-4.223,-4.1617,-4.2488,-4.3023,-4.3351,-4.6249,-4.7974,-4.8728,-4.9378,-4.9167,-4.8358,-4.6849,-4.6301,-4.6301,-4.6301,-4.6301,-4.6301,-2.1874,-2.3011,-2.4388,-2.6273,-2.8248,-3.0013,-3.1301,-3.1511,-3.154,-3.169,-3.3185,-3.3694,-3.2198,-3.2617,-3.2168,-3.0071,-2.7949,-2.5944,-2.414,-2.2652,-2.1665,-2.1235,-2.0247,-2.0127,-2.1026,-2.0157,-1.9708,-1.9708,-1.9588,-1.9528,-1.9528,-1.9528,-2.1505,-2.4956,-2.2254,-2.2742,-2.5465,-2.2493,-2.2433,-2.4986,-3.2347,-3.6836,-3.9589,-4.4077,-4.5933,-4.6262,-4.704,-4.689,-4.601,-4.4317,-4.0127,-3.5761,-3.6477,-3.3544,-2.9262,-2.6123,-2.6123,-2.6153,-2.1684,-2.0546,-2.0677,-2.0857,-2.024,-2.0438,0.0,0.0,0.0,-2.6961,-2.6841,-2.6036,-2.5733,-2.5921,0.0,0.0,0.0,0.0,0.0,-3.6183,0.0,-3.927,0.0,0.0,0.0,-3.9553,-4.1048,-4.3326,-4.1612,-4.1456,-4.3732,-4.4581,-4.4674,-4.3882,-4.4627,-4.4163,-4.235,-4.3361,-4.3361,-4.235,-4.3361,-4.3313,-4.2377,-4.4069,-4.4529,-4.4086,-4.7405,-4.9116,-4.9593,-5.0708,-5.1153,-5.0878,-4.8184,-4.7146,-4.7146,-4.7146,-4.7146,-4.7146,-2.3041,-2.3977,-2.4933,-2.6333,-2.8248,-3.0013,-3.1301,-3.1511,-3.172,-3.2288,-3.507,-3.7105,-3.7464,-3.8123,-3.8357,-3.8093,-3.5729,-3.2706,-2.9052,-2.6991,-2.6153,-2.6686,-2.2194,-2.1625,-2.5734,-2.1804,-1.9708,-1.9708,-1.9091,-1.8822,-1.8822,-1.8822,-1.9091,-1.9779,-2.3939,-2.4477,-2.2443,-2.5428,-2.9502,-3.3963,-3.4412,-3.3156,-3.1628,-3.7913,-4.1055,-4.2521,-4.6052,-4.689,-4.5801,-4.2761,-4.0816,-3.8661,-3.2527,-3.4023,-3.6207,-2.6632,-2.7979,-3.121,-2.4866,-2.3588,-2.3648,-2.1994,-2.2323,-2.2263,-1.9283,0.0,-1.8912,-1.7701,0.0,-1.7384,-1.7861,0.0,0.0,0.0,0.0,0.0,-2.38,-2.9472,-3.2865,-3.045,0.0,0.0,0.0,-3.4863,-3.7069,-4.3031,-3.9049,-3.8861,-4.4886,-4.4256,-4.4163,-4.5161,-4.421,-4.4116,-4.4978,-4.5115,-4.5115,-4.4978,-4.5115,-4.5115,-4.4989,-4.5783,-4.5967,-4.6036,-4.9944,-5.1655,-5.1694,-5.2464,-5.2751,-5.2562,-5.0878,-5.0212,-5.0212,-5.0212,-5.0212,-5.0212,-2.2742,-2.3909,-2.5023,-2.6363,-2.8248,-3.0013,-3.1301,-3.2497,-3.3335,-3.3604,-3.519,-3.6417,-3.6686,-3.6267,-3.6866,-3.9023,-3.6604,-3.4,-3.184,-2.9906,-2.7799,-2.5398,-2.2823,-2.2164,-2.3699,-2.1485,-2.0079,-1.9708,-1.9438,-1.9271,-1.9271,-1.9271,-2.0936,-2.3961,-2.6207,-2.8098,-2.9714,-2.9834,-3.0492,-3.1599,-3.2856,-3.1839,-3.0642,-4.0307,-4.4347,-4.5035,-4.6711,-4.713,-4.6681,0.0,-4.2073,-3.8721,-3.917,-3.7255,-3.4171,-3.0881,-3.055,-3.0103,-2.4986,-2.4926,-2.5674,-2.2972,-2.352,-2.364,-1.9253,-1.8523,-1.8253,-1.6652,0.0,0.0,0.0,0.0,0.0,0.0,-1.9546,0.0,0.0,0.0,-2.9164,0.0,0.0,0.0,0.0,0.0,0.0,0.0,-4.0788,-4.0811,-4.6226,-4.6003,-4.5958,-4.6506,-4.5958,-4.5598,-4.5389,-4.6121,-4.6121,-4.5389,-4.6166,-4.6121,-4.5446,-4.7236,-4.7616,-4.7056,-5.102,-5.2741,-5.2779,-5.381,-5.4304,-5.4171,-5.3571,-5.2266,-5.0713,-5.0713,-5.0713,-5.0713,-2.2194,-2.346,-2.4754,-2.6093,-2.7854,-2.9535,-3.1002,-3.2645,-3.391,-3.4485,-3.561,-3.6584,-3.7083,-3.738,-3.8664,-4.156,-4.0375,-3.8708,-3.6985,-3.4182,-3.1658,-2.9555,-2.5259,-2.3661,-2.5189,-2.2443,-2.0557,-1.9708,-1.9528,-1.9528,-1.9708,-1.9528,-2.1595,-2.5518,-2.7345,-3.0253,-3.3844,-3.3334,-3.3035,-3.3036,-3.4592,-3.513,-3.5821,-4.3359,-4.689,-4.7818,-4.7638,-4.7578,-4.7399,-4.6322,-4.2761,0.0,-4.2791,-3.9403,-3.4382,-3.507,-3.4144,-3.1839,-2.729,-2.744,-2.7974,-2.3961,-2.3999,-2.3939,-1.969,-1.9001,-1.8805,-1.7294,-1.6907,0.0,0.0,0.0,0.0,0.0,0.0,-1.8759,0.0,-1.9683,0.0,0.0,0.0,0.0,0.0,0.0,0.0,0.0,0.0,-4.1115,-4.6997,-4.7309,-4.7309,-4.7309,-4.7309,-4.6887,-4.5913,-4.6844,-4.6844,-4.5913,-4.6887,-4.6814,-4.6016,-4.8446,-4.9038,-4.8384,-5.194,-5.3473,-5.3563,-5.47,-5.5179,-5.5179,-5.5179,-5.3831,-5.1915,-5.1915,-5.1915,-5.1915,-2.1605,-2.2742,-2.4059,-2.5405,-2.6752,-2.8304,-3.0253,-3.1189,-3.2416,-3.4428,-3.6922,-3.922,-4.1175,-4.5106,-4.7921,-4.8609,-5.0747,-5.0358,-4.6498,-4.0992,-3.9812,-4.4102,-3.1002,-2.6871,-3.3934,-2.5914,-2.1006,-1.9708,-1.9061,-1.9061,-1.9678,-1.9031,-1.9181,-2.0247,-2.6686,-2.9651,-3.0131,-3.51,-3.9768,-4.3718,-4.256,-4.4747,-4.8311,0.0,-4.5873,-4.9179,-4.8476,0.0,0.0,-4.3848,-4.241,0.0,0.0,0.0,-4.0576,-3.8063,-3.905,-3.9709,-3.3814,-3.2287,-3.0941,-2.5046,-2.361,-2.2802,-1.948,-1.9702,-2.006,-1.8087,-1.8672,-1.9181,0.0,0.0,0.0,0.0,0.0,0.0,0.0,0.0,0.0,0.0,0.0,0.0,0.0,0.0,0.0,0.0,0.0,0.0,-4.683,-4.7309,-4.7309,-4.7309,-4.7309,-4.7266,-4.7266,-4.7266,-4.7266,-4.7266,-4.7266,-4.7266,-4.7326,-4.9269,-5.0166,-5.0269,-5.2976,-5.4192,-5.4221,-5.491,-5.5179,-5.5179,-5.5179,-5.5128,-5.5078,-5.5078,-5.5078,-5.5078,-2.2832,-2.331,-2.3729,-2.4208,-2.5734,-2.7739,-3.0133,-3.1498,-3.366,-3.7748,-3.9031,-4.1146,-4.5196,-4.6567,-4.8429,-5.1572,-5.1494,-5.0644,-4.9187,-4.4285,-4.2059,-4.3489,-3.329,-2.9481,-3.356,-2.7072,-2.2772,-2.1006,-2.0348,-2.012,-2.0348,-1.966,-2.0187,-2.1924,-2.7225,-3.1509,-3.4981,-3.8542,-4.1444,-4.3658,-4.318,-4.5005,-4.7908,0.0,-4.8161,-4.9269,-4.906,-4.897,0.0,-4.6933,-4.4825,-4.312,-4.3748,-4.1564,-3.902,-4.0307,-3.9768,0.0,0.0,0.0,-3.6626,-2.9355,0.0,-2.7709,-2.0917,-2.0408,-2.0677,-1.8207,-1.9104,-1.9821,0.0,0.0,0.0,0.0,0.0,0.0,0.0,0.0,0.0,0.0,0.0,0.0,0.0,0.0,0.0,0.0,0.0,0.0,0.0,-4.7309,-4.7309,-4.7309,-4.7309,-4.7309,-4.7309,-4.7309,-4.7309,-4.7309,-4.7309,-4.7549,-4.7997,-4.9105,-5.0062,-5.0943,-5.2755,-5.3773,-5.4251,-5.491,-5.5179,-5.5179,-5.5179,-5.5179,-5.5179,-5.5179,-5.5179,-5.5179,-2.3939,-2.3759,-2.3759,-2.4238,-2.6203,-2.8434,-3.0627,-3.2962,-3.6048,-4.0353,-4.1593,-4.3784,-4.8337,-4.9241,-5.0839,-5.4158,-5.3893,-5.3082,-5.1898,-4.7987,-4.5749,-4.5996,-3.8481,-3.5454,-3.7958,-3.1452,-2.6941,-2.4737,-2.2707,-2.1703,-2.1626,-2.0716,-2.111,-2.2748,-2.6438,-3.1291,-3.6926,-3.9828,-4.303,-4.6172,-4.6142,-4.7116,0.0,0.0,-4.9374,-4.8656,0.0,-4.9613,-4.9523,-4.8865,-4.707,-4.5394,-4.71,-4.4556,-4.1354,-4.3479,-4.2611,-4.0666,-3.9499,-4.0427,0.0,-3.3365,-3.2647,0.0,-2.3901,0.0,-2.352,-2.1316,-2.0976,0.0,0.0,0.0,0.0,0.0,0.0,0.0,0.0,-1.2849,0.0,0.0,0.0,0.0,0.0,0.0,0.0,0.0,0.0,0.0,0.0,0.0,-4.7309,-4.7309,-4.7309,-4.7309,-4.7309,-4.7309,-4.7309,-4.7309,-4.7309,-4.7519,-4.7967,-4.891,-4.9972,-5.1289,-5.2606,-5.3713,-5.4581,-5.5029,-5.5179,-5.5179,-5.5179,-5.5179,-5.5179,-5.5179,-5.5179,-5.5179,-2.4829,-2.4274,-2.4349,-2.5618,-2.7933,-3.0161,-3.1665,-3.5467,-3.9262,-4.2336,-4.4691,-4.7432,-5.0947,-5.3442,-5.5364,-5.6553,-5.8106,-5.7881,-5.504,-5.2134,-5.1018,-5.2148,-4.6323,-4.4269,-4.6894,-3.8658,-3.3071,-3.0458,-2.5905,-2.3608,-2.3437,-2.2034,-2.1724,-2.2474,-2.4431,-2.9129,-3.5791,-3.9026,-4.4597,-5.1229,-5.1229,-5.1139,-5.105,-5.1169,-4.9583,-4.7578,-4.9538,-5.0255,-5.0136,-4.9523,-4.8895,-4.8386,-4.8356,-4.7878,-4.7369,-4.7369,-4.7339,-4.6621,-4.3489,-4.265,-4.1542,-3.6926,-3.5759,0.0,0.0,0.0,-2.8607,0.0,0.0,0.0,0.0,0.0,0.0,0.0,0.0,0.0,0.0,0.0,0.0,0.0,0.0,0.0,0.0,0.0,0.0,0.0,0.0,0.0,0.0,0.0,-4.704,-4.7309,-4.7309,-4.7309,-4.7309,-4.7309,-4.7309,-4.7309,-4.7339,-4.7369,-4.7429,-4.8745,-5.0062,-5.1379,-5.2636,-5.3952,-5.5179,-5.5179,-5.5179,-5.5179,-5.5179,-5.5179,-5.5179,-5.5179,-5.5179,-5.5179,-2.6134,-2.7534,-2.8903,-2.9261,-2.9006,-3.0148,-3.4123,-3.7109,-4.0932,-4.6579,-4.9759,-5.3103,-5.7282,-5.8312,-5.8822,-5.917,-5.9595,-5.9505,-5.8727,-5.5378,-5.4795,-5.7812,-5.0669,-4.7761,-5.0218,-4.1173,-3.5594,-3.3914,-2.7849,-2.4678,-2.4342,-2.2823,-2.2189,-2.2411,-2.4513,-2.9628,-3.6854,-3.9295,-4.4518,-5.1229,-5.1229,-5.0062,-4.8536,0.0,-4.9583,-4.7638,-5.0092,-5.096,-5.0823,-5.0212,-4.9837,-4.9643,-4.9164,-4.8566,-4.8027,-4.8027,-4.7698,-4.713,-4.6262,-4.6022,-4.5035,-4.0905,-3.9499,-3.7973,0.0,0.0,0.0,0.0,0.0,0.0,0.0,0.0,0.0,0.0,0.0,0.0,0.0,0.0,0.0,0.0,0.0,0.0,0.0,0.0,0.0,0.0,0.0,0.0,0.0,0.0,0.0,-4.7189,-4.7309,-4.7309,-4.7309,-4.7309,-4.7309,-4.7309,-4.7788,-4.8297,-4.882,-4.9613,-5.096,-5.2695,-5.3025,-5.3952,-5.5179,-5.5179,-5.5179,-5.5179,-5.5179,-5.5179,-5.5179,-5.5179,-5.5179,-5.5179,-2.8744,-3.0767,-3.2628,-3.2905,-3.3615,-3.5168,-3.8241,-3.9785,-4.27,-4.8689,-5.153,-5.4319,-5.7811,-5.9641,-6.0757,-6.1061,-6.0825,-6.0047,-5.8727,-5.7581,-5.7308,-5.8115,-5.5001,-5.3887,-5.5221,-4.8067,-4.2545,-3.898,-3.2609,-2.8244,-2.5709,-2.3834,-2.2982,-2.3092,-2.5162,-2.943,-3.533,-4.0962,-4.5727,-4.9581,-5.0769,-5.0331,0.0,-5.0661,-5.0301,-4.9224,-5.069,-5.1229,-5.1169,-5.0734,-5.0435,-5.0136,-4.9793,-4.9254,-4.876,-4.876,-4.8237,-4.7728,-4.7728,-4.7519,-4.677,-4.4526,-4.3688,-4.2312,-3.8033,-3.7644,-3.7973,0.0,-3.5998,-3.537,0.0,0.0,0.0,0.0,0.0,0.0,0.0,0.0,0.0,0.0,0.0,0.0,0.0,0.0,0.0,0.0,0.0,0.0,0.0,0.0,0.0,-4.5873,-4.5992,-4.6411,-4.7309,-4.6441,-4.6591,-4.7728,-4.8117,-4.8626,-4.9329,-4.9942,-5.099,-5.2336,-5.2636,-5.3503,-5.476,-5.476,-5.494,-5.5179,-5.5179,-5.5179,-5.5179,-5.5179,-5.5179,-5.5179,-3.1757,-3.3769,-3.5567,-3.6149,-3.9408,-4.2337,-4.3469,-4.3771,-4.5602,-5.0338,-5.2503,-5.4397,-5.6359,-5.9505,-6.1704,-6.2347,-6.1806,-6.0317,-5.7712,-5.9336,-5.9268,-5.6697,-5.9032,-6.0351,-6.025,-5.5886,-5.0493,-4.4048,-3.8017,-3.2285,-2.692,-2.4724,-2.3704,-2.3836,-2.5873,-2.9329,-3.4192,-4.3364,-4.7661,-4.8488,-5.0622,-5.1468,-5.1468,-5.1468,-5.1439,-5.1349,-5.1349,-5.1289,-5.1229,-5.1229,-5.0794,-5.0315,-5.0315,-4.9912,-4.9449,-4.9449,-4.8925,-4.8386,-4.8297,-4.7878,-4.7429,-4.7339,-4.7309,-4.6262,-4.2222,-4.1354,-4.1564,-4.2043,-3.8631,-3.7973,0.0,0.0,0.0,0.0,0.0,0.0,0.0,0.0,0.0,0.0,0.0,0.0,0.0,0.0,0.0,0.0,0.0,0.0,0.0,0.0,0.0,-4.4586,-4.4706,-4.5454,-4.701,0.0,-4.5813,-4.8027,-4.8297,-4.8745,-4.9404,-5.0062,-5.0674,-5.1379,-5.2037,-5.3054,-5.4221,-5.4311,-5.467,-5.5179,-5.5179,-5.5179,-5.5179,-5.5179,-5.5179,-5.5179,-3.3387,-3.5561,-3.7446,-3.7542,-4.1647,-4.6031,-4.92,-5.1254,-5.3213,-5.5344,-5.8558,-6.0757,-6.1163,-6.1806,-6.2245,-6.2381,-6.2279,-6.1975,-6.1434,-6.1772,-6.1772,-6.1231,-6.1704,-6.1704,-6.1095,-5.6691,-5.1459,-4.5385,-3.8748,-3.2348,-2.6249,-2.4511,-2.3408,-2.2994,-2.5187,-3.1712,-4.1286,-4.5452,0.0,-5.3633,-5.3101,-5.2845,-5.2845,-5.2845,-5.2516,-5.2037,-5.2037,-5.1678,-5.1229,-5.1229,-5.1139,-5.1003,-5.1003,-5.0601,-5.0016,-5.0016,-4.9613,-4.903,-4.8446,-4.8207,-4.7967,-4.7429,-4.7309,-4.71,-4.6292,-4.6531,-4.677,-4.6352,-4.6381,-4.5585,-4.2372,0.0,0.0,0.0,0.0,0.0,0.0,0.0,0.0,0.0,0.0,0.0,0.0,0.0,0.0,0.0,0.0,0.0,0.0,0.0,0.0,0.0,-4.677,0.0,0.0,0.0,-4.6741,-4.6681,-4.8327,-4.9434,-5.0046,-5.0704,-5.1409,-5.2067,-5.2725,-5.3473,-5.4251,-5.479,-5.5089,-5.5179,-5.5179,-5.5179,-5.5179,-5.5179,-5.5179,-5.5179,-3.5941,-3.7913,-4.0121,-4.1677,-4.594,-5.027,-5.3585,-5.6697,-5.8186,-5.6968,-5.8355,-5.9505,-5.9505,-6.1231,-6.2381,-6.2381,-6.2381,-6.2381,-6.2381,-6.2381,-6.2381,-6.2381,-6.2381,-6.2212,-6.1873,-5.9742,-5.4566,-4.6278,-4.1441,-3.4936,-2.6936,-2.4628,-2.3376,-2.3307,-2.8609,-3.4339,-4.0342,0.0,0.0,-5.2113,-5.2886,-5.3174,-5.3174,-5.3174,-5.2995,-5.2665,-5.2306,-5.2007,-5.1678,-5.1319,-5.1229,-5.1229,-5.1229,-5.099,-5.0704,-5.0704,-5.0272,-4.9703,-4.9374,-4.8805,-4.8207,-4.7908,-4.7549,-4.7309,-4.7309,-4.7549,-4.7788,-4.7818,-4.8327,-4.716,-4.1893,-3.7037,0.0,0.0,0.0,0.0,0.0,0.0,0.0,0.0,0.0,0.0,0.0,0.0,0.0,0.0,0.0,0.0,0.0,0.0,0.0,0.0,0.0,0.0,0.0,0.0,0.0,-4.7878,-4.9164,-5.0122,-5.0704,-5.1079,-5.1379,-5.1708,-5.2037,-5.2725,-5.3743,-5.476,-5.5179,-5.5179,-5.5179,-5.5179,-5.5179,-5.5179,-5.5179,-5.5179,-3.9377,-4.0967,-4.3166,-4.6312,-5.0405,-5.4059,-5.6427,-5.9979,-6.1332,-5.8389,-5.7983,-5.7983,-5.7983,-6.0622,-6.2381,-6.2381,-6.2381,-6.2381,-6.2381,-6.2381,-6.2381,-6.2381,-6.2381,-6.2381,-6.2381,-6.2381,-5.7746,-4.8206,-4.4384,-3.7889,-2.8906,-2.5304,-2.4391,-2.6048,-3.2996,0.0,0.0,0.0,-5.1417,-5.1469,-5.3294,-5.3856,-5.3623,-5.3623,-5.3533,-5.3324,-5.2815,-5.2456,-5.2127,-5.1588,-5.1319,-5.1229,-5.1229,-5.1229,-5.1229,-5.1229,-5.0794,-5.0375,-5.0226,-4.9494,-4.8626,-4.8356,-4.7908,-4.7489,-4.7339,-4.7309,-4.7459,-4.7967,-4.8177,-4.695,-4.265,-3.9792,0.0,0.0,0.0,0.0,0.0,0.0,0.0,0.0,0.0,0.0,0.0,0.0,0.0,0.0,0.0,0.0,0.0,0.0,0.0,0.0,0.0,-4.4238,-4.556,0.0,-4.692,-4.891,-4.9793,-5.0524,-5.1229,-5.1229,-5.1229,-5.1229,-5.1379,-5.2187,-5.3503,-5.47,-5.5179,-5.5179,-5.5179,-5.5179,-5.5179,-5.5179,-5.5179,-5.5179,-4.4181,-4.5128,-4.6413,-5.0067,-5.3856,-5.6461,-5.6765,-5.9979,-6.2245,-6.1907,-6.1873,-6.1873,-6.1873,-6.2178,-6.2381,-6.2381,-6.2381,-6.2381,-6.2381,-6.2381,-6.2381,-6.2381,-6.2381,-6.2381,-6.2381,-6.2381,-5.9268,0.0,0.0,-3.9715,-3.2747,-2.708,-2.7656,-3.3558,0.0,0.0,0.0,-5.2458,-5.4697,-5.7828,-5.6981,-5.5999,-5.4999,-5.4999,-5.464,-5.4102,-5.4042,-5.3234,-5.2187,-5.2127,-5.1708,-5.1229,-5.1229,-5.1229,-5.1229,-5.1229,-5.1169,-5.0943,-5.0345,-5.0106,-4.9717,-4.8596,-4.8237,-4.8027,-4.7429,-4.7309,-4.7309,-4.7369,-4.7878,-4.7249,-4.3838,-4.5795,-4.5387,0.0,0.0,0.0,0.0,0.0,-3.7315,0.0,0.0,0.0,0.0,0.0,0.0,0.0,0.0,0.0,0.0,0.0,0.0,-4.111,0.0,-4.0836,-3.9904,-4.5311,-4.7848,-4.7519,-4.9299,-5.0524,-5.1229,-5.1229,-5.1229,-5.1259,-5.1858,-5.2875,-5.4162,-5.491,-5.5179,-5.5179,-5.5179,-5.5179,-5.5179,-5.5179,-5.5179,-5.5179,-4.868,-4.9018,-5.0202,-5.3923,-5.5818,-5.7543,-5.981,-6.1434,-6.2381,-6.2381,-6.2381,-6.2381,-6.2381,-6.2381,-6.2381,-6.2381,-6.2381,-6.2381,-6.2381,-6.2381,-6.2381,-6.2381,-6.2381,-6.2381,-6.2381,-6.2381,-5.9674,0.0,0.0,-4.1813,-3.6028,-3.2713,-3.4269,-4.0054,0.0,-4.8742,-5.2649,-5.6051,-5.8004,-5.8767,-5.8268,-5.7371,-5.628,-5.628,-5.5668,-5.476,-5.4341,-5.3862,-5.3294,-5.2486,-5.1768,-5.1229,-5.1229,-5.1229,-5.1229,-5.1229,-5.1229,-5.1169,-5.0853,-5.0495,-4.9956,-4.9105,-4.8566,-4.8117,-4.7459,-4.7309,-4.7309,-4.7309,-4.8147,-4.852,-4.7203,-4.6485,-4.5664,0.0,0.0,0.0,0.0,0.0,0.0,0.0,0.0,0.0,0.0,0.0,0.0,0.0,0.0,0.0,0.0,0.0,0.0,-3.7895,0.0,-4.3967,-4.222,-4.6659,-4.8925,-4.903,-5.0226,-5.096,-5.1229,-5.1229,-5.1229,-5.1289,-5.2336,-5.3084,-5.3683,-5.476,-5.5179,-5.5179,-5.5179,-5.5179,-5.5179,-5.5179,-5.5179,-5.5179,-5.2638,-5.2875,-5.4025,-5.778,-5.8457,-5.9336,-6.1975,-6.2381,-6.2381,-6.2381,-6.2381,-6.2381,-6.2381,-6.2381,-6.2381,-6.2381,-6.2381,-6.2381,-6.2381,-6.2381,-6.2381,-6.2381,-6.2381,0.0,-6.2381,-6.2381,-6.0588,-5.6867,-5.0913,0.0,-4.2083,-3.9478,-4.117,0.0,-5.1014,-5.3679,-5.5094,-5.9318,-6.0417,-5.9346,-5.9346,-5.8632,-5.7527,-5.7527,-5.6991,-5.6122,-5.5323,-5.4903,-5.4552,-5.326,-5.2217,-5.1468,-5.1289,-5.1229,-5.1229,-5.1229,-5.1229,-5.1229,-5.1229,-5.0823,-5.0315,-4.9703,-4.9075,-4.8386,-4.7758,-4.7429,-4.7369,-4.7549,-4.8476,-4.9359,-4.9523,-4.7658,-4.655,-4.7905,0.0,0.0,0.0,-4.6711,0.0,0.0,-4.3137,-4.0979,-4.0294,0.0,0.0,0.0,0.0,0.0,0.0,0.0,0.0,0.0,0.0,0.0,0.0,-4.7695,-4.9793,-5.0196,-5.09,-5.1229,-5.1229,-5.1229,-5.1319,-5.1558,-5.2695,-5.3294,-5.3563,-5.473,-5.5179,-5.5179,-5.5179,-5.5179,-5.5179,-5.5179,-5.5179,-5.5179,-5.6021,-5.6731,-5.7915,-6.167,-6.2313,-6.2347,-6.2381,-6.2381,-6.2381,-6.2381,-6.2381,-6.2381,-6.2381,-6.2381,-6.2381,-6.2381,-6.2381,-6.2381,-6.2381,-6.2381,-6.2381,0.0,0.0,-6.2381,-6.2381,-6.2381,-6.2347,-6.2313,0.0,0.0,-5.1995,-4.6887,-4.7665,-5.3416,-5.4194,-5.7442,-6.2279,-6.2347,-6.1676,-6.0586,-6.0586,-5.986,-5.8767,-5.8767,-5.8767,-5.8587,-5.7386,-5.6526,-5.5781,-5.4575,-5.3294,-5.2067,-5.1439,-5.1229,-5.1229,-5.1229,-5.1229,-5.1229,-5.1229,-5.1199,-5.105,-5.0345,-4.9733,-4.912,-4.8416,-4.7788,-4.7489,-4.8147,-4.885,-4.9464,-5.0076,-5.072,-4.9853,-4.5963,0.0,0.0,0.0,-4.4347,0.0,-4.2264,-3.5767,-3.3903,-4.036,0.0,0.0,0.0,0.0,0.0,0.0,0.0,0.0,-4.1791,-4.2034,0.0,-4.3039,-4.7795,-5.0196,-5.0196,-5.09,-5.1229,-5.1229,-5.1229,-5.1558,-5.2217,-5.2905,-5.3563,-5.4251,-5.491,-5.5179,-5.5179,-5.5179,-5.5179,-5.5179,-5.5179,-5.5179,-5.5179,-6.1231,-6.1366,-6.1907,-6.3599,-6.3497,-6.3328,-6.3802,-6.3903,-6.3903,-6.3903,-6.3903,-6.3903,-6.3903,-6.299,-6.2381,0.0,-6.2381,-6.2381,0.0,-6.2381,-6.2381,-6.2381,-6.2381,-6.2381,-6.2381,-6.2381,-6.2381,-6.2381,0.0,0.0,0.0,-5.2942,-5.4803,-5.9573,-5.981,-6.0825,-6.2381,-6.2381,-6.215,-6.1837,-6.1837,-6.1078,-6.0032,-6.0032,-5.9522,-5.8767,-5.836,-5.7589,-5.6541,-5.5729,-5.4595,-5.3384,-5.2247,-5.1588,-5.1229,-5.1229,-5.1229,-5.1229,-5.1229,-5.1229,-5.105,-5.0345,-5.0046,-4.9643,-4.8536,-4.7788,-4.7369,-4.7578,-4.8147,-4.8805,-4.9464,-5.0122,-5.0255,-4.9464,-4.9853,0.0,-4.8492,0.0,-4.7546,-4.7014,-4.492,-4.4168,0.0,-4.0437,0.0,0.0,0.0,0.0,0.0,0.0,0.0,0.0,-4.4016,0.0,-4.524,-4.855,-5.0405,-5.0853,-5.1109,-5.1229,-5.1229,-5.1229,-5.1588,-5.2247,-5.2905,-5.3563,-5.4251,-5.491,-5.5179,-5.5179,-5.5179,-5.5179,-5.5179,-5.5179,-5.5179,-5.5179,-6.4005,-6.3937,-6.4072,-6.4512,-6.4241,-6.4072,-6.4546,-6.4613,-6.4613,-6.4613,-6.4613,-6.4613,-6.4613,-6.3768,0.0,-6.2854,-6.255,-6.2381,-6.2381,-6.2381,-6.2381,-6.2381,-6.2381,-6.2381,-6.2381,-6.2381,0.0,-6.2381,-5.9607,-5.822,-5.822,-5.822,-5.9708,-6.2381,-6.2381,-6.2381,-6.2381,-6.2381,-6.2381,-6.2381,-6.2381,-6.1951,-6.1276,-6.1276,-6.0828,-6.0118,-5.9653,-5.8992,-5.8128,-5.6793,-5.5695,-5.4619,-5.335,-5.2336,-5.1528,-5.1289,-5.1229,-5.1229,-5.1229,-5.1229,-5.1109,-5.0674,-5.0375,-4.9837,-4.8596,-4.7967,-4.7608,-4.7369,-4.7818,-4.8476,-4.9179,-4.9793,-5.0405,-5.1109,-5.0823,-5.0554,-5.0554,0.0,-4.9074,0.0,0.0,0.0,0.0,-4.3696,0.0,0.0,0.0,0.0,0.0,0.0,0.0,-4.1904,-4.6959,0.0,-4.8133,-4.9747,-5.0966,-5.1865,-5.1865,-5.1588,-5.1229,-5.1229,-5.1708,-5.2606,-5.2995,-5.3713,-5.461,-5.5029,-5.5179,-5.5179,-5.5179,-5.5179,-5.5179,-5.5179,-5.5179,-5.5179,-6.4681,-6.4681,-6.4681,-6.4749,-6.4715,-6.4681,-6.4749,-6.4749,-6.4749,-6.4749,-6.4749,-6.4749,-6.4749,-6.4715,-6.441,-6.3734,0.0,0.0,-6.2482,-6.2482,-6.2448,-6.2381,-6.2381,-6.2381,-6.2381,-6.2381,-6.2381,-6.2381,-6.2381,-6.2381,-6.2381,-6.2381,-6.2381,-6.2381,-6.2381,-6.2381,-6.2381,-6.2381,-6.2381,-6.2381,-6.2381,-6.2381,-6.2381,-6.2381,-6.2381,-6.2263,-6.1119,-6.067,-6.0247,-5.8007,-5.6746,-5.5889,-5.4801,-5.3518,-5.233,-5.1498,-5.1259,-5.1229,-5.1229,-5.1229,-5.1229,-5.1229,-5.0674,-4.9867,-4.8686,-4.8386,-4.8177,-4.7519,-4.7908,-4.8536,-4.9209,-4.9793,-5.0405,-5.1109,-5.1229,-5.1229,-5.1229,-5.0644,-4.8819,0.0,0.0,0.0,0.0,-4.3479,-4.5021,0.0,0.0,0.0,0.0,0.0,-4.0927,-5.0004,-5.0363,-5.0709,-5.1433,-5.1433,-5.1972,-5.3033,-5.2945,-5.235,-5.1293,-5.1259,-5.1977,-5.3174,-5.3234,-5.3982,-5.5179,-5.5179,-5.5179,-5.5179,-5.5179,-5.5179,-5.5179,-5.5179,-5.5179,-5.5179,0.0,0.0,-6.5628,-6.6203,-6.5797,-6.5628,-6.6203,-6.6305,-6.6305,-6.6305,-6.6305,-6.6305,-6.6305,-6.5764,-6.5358,-6.5189,-6.4512,-6.3835,-6.3294,-6.326,-6.299,-6.2415,-6.2381,-6.2381,-6.2381,-6.2381,-6.2381,-6.2381,-6.2381,-6.2381,-6.2381,-6.2381,-6.2381,-6.2381,-6.2381,-6.2381,-6.2381,-6.2381,-6.2381,-6.2381,-6.2381,-6.2381,-6.2381,-6.2381,-6.2381,-6.2341,-6.207,-6.1399,-6.0501,-5.9957,-5.8414,-5.6792,-5.6927,-5.6092,-5.468,-5.2562,-5.1618,-5.1229,-5.1229,-5.1229,-5.1229,-5.1229,-5.0674,-5.0106,-4.9807,-4.9374,-4.888,-4.8177,-4.8566,-4.912,-4.9269,-4.9793,-5.0405,-5.1109,-5.1229,-5.1229,-5.1229,-5.1079,-5.0571,0.0,-4.9329,-4.9029,-4.8549,-4.8489,-4.7387,0.0,0.0,0.0,0.0,-4.4099,-4.5921,-5.1331,-5.1963,-5.2745,-5.3785,-5.3785,-5.3913,-5.4211,-5.334,-5.2767,-5.2516,-5.2131,-5.2426,-5.3204,-5.3743,-5.4431,-5.5179,-5.5179,-5.5179,-5.5179,-5.5179,-5.5179,-5.5179,-5.5179,-5.5179,-5.5179,-6.6779,-6.644,-6.6339,-6.6745,-6.6474,-6.6339,-6.6745,-6.6812,-6.6812,-6.6812,-6.6812,-6.6812,-6.6812,-6.644,-6.6203,-6.6203,-6.5222,-6.4444,-6.4038,-6.4005,-6.3666,-6.2922,-6.2888,-6.2753,-6.2381,-6.2381,-6.2381,-6.2381,-6.2381,-6.2381,-6.2381,-6.2381,-6.2381,-6.2381,-6.2381,-6.2381,-6.2381,-6.2381,-6.2381,-6.2381,-6.2381,-6.2381,-6.2381,-6.2381,-6.2381,-6.2381,-6.2381,-6.1991,-6.1358,-6.0787,-5.974,-5.8582,-5.8332,-5.7388,-5.605,-5.4651,-5.3423,-5.2413,-5.2063,-5.1588,-5.1229,-5.1229,-5.096,-5.0554,-5.0255,-4.9972,-4.9523,-4.8865,-4.906,-4.9389,-4.9643,-5.0002,-5.0405,-5.1109,-5.1106,-5.1213,-5.1881,-5.141,-5.1408,-5.2617,-5.226,-5.2047,-5.2184,-5.2242,-5.1103,-4.8488,-4.8309,0.0,-4.8832,-4.9426,-5.0546,-5.2324,-5.3208,-5.3956,-5.4589,-5.5084,-5.5084,-5.4589,-5.4473,-5.4137,-5.3687,-5.3748,-5.4158,-5.4838,-5.5549,-5.6229,-5.6831,-5.6831,-5.6493,-5.6035,-5.6035,-5.57,-5.5179,-5.5179,-5.5179,-5.5179,-6.7726,-6.7252,-6.6812,-6.6812,-6.6812,-6.6812,-6.6812,-6.6812,-6.6812,-6.6812,-6.6812,-6.6812,-6.6812,-6.6812,-6.6812,-6.6812,-6.5662,-6.4884,-6.4783,-6.4783,-6.4377,-6.3565,-6.3531,-6.3159,-6.2415,-6.2381,-6.2381,-6.2381,-6.2381,-6.2381,-6.2381,-6.2381,-6.2381,-6.2381,-6.2381,-6.2381,-6.2381,-6.2381,-6.2381,-6.2381,-6.2381,-6.2381,-6.2381,-6.2381,-6.2381,-6.2381,-6.2381,-6.2381,-6.2263,-6.1235,-6.0745,-6.0459,-5.961,-5.8376,-5.7292,-5.7237,-5.6037,-5.4442,-5.325,-5.2063,-5.1229,-5.1229,-5.1229,-5.1079,-5.0465,-5.0405,-5.0377,-4.9945,-5.002,-5.0306,-5.0774,-5.0971,-5.0925,-5.0593,-5.0984,-5.1449,-5.1883,0.0,-5.2113,-5.4345,-5.3742,-5.3526,-5.4505,-5.4589,-5.4589,-5.4589,-5.4589,-5.4589,-5.4589,-5.4755,-5.4421,-5.3439,-5.4337,-5.492,-5.5084,-5.6008,-5.6008,-5.5125,-5.585,-5.573,-5.4838,-5.5547,-5.6167,-5.6733,-5.7576,-5.8281,-5.8812,-5.8812,-5.8223,-5.7245,-5.7086,-5.6347,-5.5451,-5.528,-5.5179,-5.5179,-6.6981,-6.688,-6.6812,-6.6812,-6.6812,-6.6812,-6.6812,-6.6812,-6.6812,-6.6812,-6.6812,-6.6812,-6.6812,-6.6812,-6.6812,-6.6812,-6.6609,-6.6203,-6.5561,-6.5527,-6.4918,-6.3565,-6.3531,-6.3159,-6.2415,-6.2381,-6.2381,-6.2381,-6.2381,-6.2381,-6.2381,-6.2381,-6.2381,-6.2381,-6.2381,-6.2381,-6.2381,-6.2381,-6.2381,-6.2381,-6.2381,-6.2381,-6.2381,-6.2381,-6.2381,-6.2381,-6.2381,-6.2381,-6.2381,-6.215,-6.1439,-6.0745,-6.1595,-6.0986,-5.9942,-5.9649,-5.8747,-5.7098,-5.3784,-5.2063,-5.1229,-5.1229,-5.1229,-5.1199,-5.1079,-5.1498,-5.2008,-5.2346,-5.3341,-5.4075,-5.403,-5.4486,-5.3207,-4.8309,-5.115,-5.2527,-4.832,-5.1334,-5.4124,-5.4557,-5.4463,-5.4421,-5.4589,-5.4589,-5.4589,-5.4589,-5.4589,-5.4589,-5.4589,-5.5458,-5.5889,-5.5698,-5.5857,-5.6432,-5.7406,-5.7554,-5.7554,-5.7406,-5.6586,-5.6126,-5.5962,-5.6356,-5.6605,-5.6765,-5.8076,-5.8716,-5.8812,-5.8812,-5.8677,-5.8405,-5.7386,-5.6896,-5.659,-5.5601,-5.5179,-5.5179,-6.8064,-6.7387,-6.6812,-6.6812,-6.6812,-6.6812,-6.6812,-6.6812,-6.6812,-6.6812,-6.6812,-6.6812,-6.6812,-6.6812,-6.6812,-6.6812,-6.6812,-6.6677,-6.6305,-6.6305,-6.5797,-6.4715,-6.4309,-6.3565,-6.2415,-6.2381,-6.2381,-6.2381,-6.2381,-6.2381,-6.2381,-6.2381,-6.2381,-6.2381,-6.2381,-6.2381,-6.2381,-6.2381,-6.2381,-6.2381,-6.2381,-6.2381,-6.2381,-6.2381,-6.2381,-6.2381,-6.2381,-6.2381,-6.2448,-6.2854,-6.2636,-6.2278,-6.283,-6.2596,-6.2044,-6.1481,-5.9388,-5.6741,-5.4454,-5.3721,-5.3543,-5.3126,-5.2866,-5.2719,-5.2673,-5.242,-5.2377,-5.299,-5.4099,-5.4957,-5.4882,-5.5652,-5.5271,-5.2093,-5.3423,-5.4143,-5.215,-5.3227,-5.477,-5.6216,-5.585,-5.5691,-5.6315,-5.6393,-5.6393,-5.6393,-5.6393,-5.6393,-5.6393,-5.6849,-5.7114,-5.7114,-5.7114,-5.7372,-5.7881,-5.7881,-5.7881,-5.7881,-5.7775,-5.7716,-5.7745,-5.8741,-5.9201,-5.9267,-6.0282,-6.0745,-6.0745,-6.0745,-6.0374,-5.9697,-5.917,-5.8145,-5.6943,-5.6347,-5.5769,-5.5179,-6.8808,-6.7726,-6.6812,-6.6812,-6.6812,-6.6812,-6.6812,-6.6812,-6.6812,-6.6812,-6.6812,-6.6812,-6.6812,-6.6812,-6.6812,-6.6812,-6.6812,-6.6812,-6.6812,-6.6812,-6.6474,-6.573,-6.4816,-6.3802,-6.2685,-6.2482,-6.2381,-6.2381,-6.2381,-6.2381,-6.2381,-6.2381,-6.2381,-6.2381,-6.2381,-6.2381,-6.2381,-6.2381,-6.2381,-6.2381,-6.2381,-6.2381,-6.2415,-6.2584,-6.2651,-6.2685,-6.2854,-6.2888,-6.299,-6.3565,-6.3768,-6.3768,-6.3768,-6.3768,-6.3599,-6.2651,-5.9879,-5.6888,-5.5774,-5.5738,-5.5783,-5.5239,-5.4853,-5.4648,-5.459,-5.4021,-5.3725,-5.4543,-5.5517,-5.6352,-5.643,-5.7227,-5.7238,-5.5231,-5.568,-5.5989,-5.5123,-5.5127,-5.5858,-5.7673,-5.7114,-5.6963,-5.7808,-5.7881,-5.7881,-5.7881,-5.7881,-5.7881,-5.7881,-5.7881,-5.7881,-5.7881,-5.7881,-5.7881,-5.7881,-5.7881,-5.7983,-5.8152,-5.8727,-5.9099,-5.9302,-6.0689,-6.1298,-6.1332,-6.2076,-6.2381,-6.2381,-6.2381,-6.1837,-6.0995,-6.0745,-5.9478,-5.7807,-5.7527,-5.694,-5.6279,-6.7996,-6.7354,-6.6812,-6.6812,-6.6812,-6.6812,-6.6812,-6.6812,-6.6812,-6.6812,-6.6812,-6.6812,-6.6812,-6.6812,-6.6812,-6.6812,-6.6812,-6.6812,-6.6812,-6.6812,-6.6474,-6.573,-6.4343,-6.3531,-6.3429,-6.2753,-6.2381,-6.2381,-6.2381,-6.2381,-6.2381,-6.2381,-6.2381,-6.2381,-6.2381,-6.2381,-6.2381,-6.2381,-6.2381,-6.2381,-6.2381,-6.2381,-6.2448,-6.3159,-6.3429,-6.3531,-6.4208,-6.4444,-6.4444,-6.4512,-6.4512,-6.4512,-6.4512,-6.4512,-6.4241,-6.2821,-6.1192,-5.9607,-5.8488,-5.7465,-5.6702,-5.667,-5.6616,-5.6605,-5.6605,-5.6997,-5.7728,-5.8899,-5.9708,-6.0307,-6.0757,-6.0925,-5.9144,-5.355,-5.6622,-5.7806,-5.2336,-5.5678,-5.845,-5.7949,-5.7845,-5.7808,-5.7881,-5.7881,-5.7881,-5.7881,-5.7881,-5.7881,-5.7881,-5.7881,-5.7881,-5.7881,-5.7881,-5.7881,-5.7881,-5.7881,-5.8254,-5.893,-5.8998,-5.937,-6.0047,-6.0926,-6.1298,-6.1332,-6.2076,-6.2381,-6.2381,-6.2381,-6.2341,-6.215,-6.1036,-6.0501,-6.0204,-5.9081,-5.9015,-5.9557,-6.9925,-6.8301,-6.6948,-6.7421,-6.7117,-6.6812,-6.6812,-6.6812,-6.6812,-6.6812,-6.6812,-6.6812,-6.6812,-6.6812,-6.6812,-6.6812,-6.6812,-6.6812,-6.6812,-6.6812,-6.6474,-6.573,-6.4715,-6.3971,-6.3531,-6.2787,-6.2381,-6.2381,-6.2381,-6.2381,-6.2381,-6.2381,-6.2381,-6.2381,-6.2381,-6.2381,-6.2381,-6.2381,-6.2651,-6.3091,-6.3091,-6.3362,-6.3802,-6.4072,-6.4174,-6.4241,-6.4512,-6.4613,-6.4681,-6.5121,-6.5256,-6.5256,-6.5256,-6.5595,-6.5662,-6.4208,-6.3362,-6.2606,-6.1306,-6.0271,-5.9484,-5.8986,-5.87,-5.8531,-5.8456,-5.8098,-5.8029,-5.8949,-5.9922,-6.0646,-6.0828,-6.1474,-6.1095,-5.8355,-5.9573,-5.9877,-5.7103,-5.8423,-5.9573,-5.9302,-5.8863,-5.8592,-5.8592,-5.8152,-5.7881,-5.7881,-5.7881,-5.7881,-5.7881,-5.7881,-5.7881,-5.7881,-5.7881,-5.7881,-5.7881,-5.8355,-5.8727,-5.9032,-5.9979,-6.0588,-6.0858,-6.1637,-6.1975,-6.2009,-6.2279,-6.2381,-6.2415,-6.2888,-6.3091,-6.3085,-6.3086,-6.2607,-6.1893,-6.1426,-6.0979,-6.0615,-7.1548,-6.962,-6.7963,-6.8233,-6.7658,-6.7083,-6.6846,-6.6812,-6.6812,-6.6812,-6.6812,-6.6812,-6.6812,-6.6812,-6.6812,-6.6812,-6.6812,-6.6812,-6.6812,-6.6812,-6.6576,-6.6068,-6.5324,-6.4613,-6.3869,-6.3125,-6.2618,-6.2381,-6.2381,-6.2381,-6.2381,-6.2381,-6.2381,-6.2381,-6.2381,-6.2381,-6.2381,-6.2381,-6.2821,-6.3531,-6.3531,-6.3937,-6.4613,-6.485,-6.4952,-6.4986,-6.5222,-6.529,-6.5358,-6.5865,-6.6034,-6.6034,-6.6034,-6.6237,-6.6203,-6.4952,-6.4444,-6.3971,-6.2719,-6.2009,-6.1501,-6.096,-6.0656,-6.047,-6.0429,-5.9786,-5.9337,-5.9816,-6.0586,-6.1193,-6.1193,-6.1837,-6.2212,-6.1738,-6.1637,-6.1366,-6.0588,-6.0486,-6.0385,-6.0148,-5.9674,-5.937,-5.937,-5.8896,-5.8592,-5.8592,-5.8389,-5.8152,-5.7915,-5.7881,-5.7881,-5.7881,-5.8118,-5.8254,-5.8254,-5.8761,-5.9268,-5.9742,-6.0791,-6.1434,-6.167,-6.2144,-6.2516,-6.2753,-6.2753,-6.2888,-6.3125,-6.3632,-6.3869,-6.3903,-6.441,-6.4094,-6.3354,-6.3354,-6.2979,-6.2493,-7.2394,-7.121,-6.9958,-6.9248,-6.8436,-6.7658,-6.6948,-6.6812,-6.6812,-6.6812,-6.6812,-6.6812,-6.6812,-6.6812,-6.6812,-6.6812,-6.6812,-6.6812,-6.6812,-6.6812,-6.6812,-6.6812,-6.6102,-6.5358,-6.4613,-6.3903,-6.3159,-6.2381,-6.2381,-6.2381,-6.2381,-6.2381,-6.2381,-6.2381,-6.2381,-6.2381,-6.2415,-6.2415,-6.2854,-6.3531,-6.3531,-6.3971,-6.4681,-6.5425,-6.5696,-6.5797,-6.6542,-6.6812,-6.6812,-6.6812,-6.6812,-6.6812,-6.6812,-6.6305,-6.5561,-6.4816,-6.4106,-6.3362,-6.2584,-6.2381,-6.2381,-6.2381,-6.2381,-6.2381,-6.2381,-6.2381,-6.2381,-6.2381,-6.2381,-6.2381,-6.2381,-6.2381,-6.2381,-6.2381,-6.2381,-6.2144,-6.14,-6.1298,-6.1028,-6.0216,-6.0114,-6.0114,-6.0114,-6.0114,-6.0114,-6.0114,-5.9438,-5.8693,-5.7949,-5.7915,-5.7915,-5.7915,-5.866,-5.9032,-5.9032,-5.9032,-5.981,-6.1298,-6.1298,-6.1704,-6.2415,-6.2415,-6.2821,-6.3531,-6.3531,-6.3937,-6.4613,-6.4613,-6.4613,-6.4613,-6.4613,-6.4613,-6.4613,-6.4613,-6.5087,-6.5696,-7.2496,-7.121,-7.0128,-6.9891,-6.9248,-6.847,-6.7692,-6.7557,-6.7387,-6.688,-6.6812,-6.6812,-6.6812,-6.6812,-6.6812,-6.6812,-6.6812,-6.6812,-6.6812,-6.6812,-6.6812,-6.6812,-6.6102,-6.5358,-6.4613,-6.3903,-6.3159,-6.2381,-6.2381,-6.2381,-6.2381,-6.2381,-6.2381,-6.2381,-6.2381,-6.2685,-6.3193,-6.3193,-6.3903,-6.5019,-6.5019,-6.5493,-6.617,-6.6406,-6.6474,-6.6508,-6.6745,-6.6812,-6.6812,-6.6812,-6.6812,-6.6812,-6.6812,-6.6643,-6.6237,-6.4986,-6.4444,-6.4005,-6.2719,-6.2381,-6.2381,-6.2381,-6.2381,-6.2381,-6.2381,-6.2381,-6.2381,-6.2381,-6.2381,-6.2381,-6.2381,-6.2381,-6.2381,-6.2381,-6.2381,-6.2313,-6.211,-6.2076,-6.1975,-6.1738,-6.1264,-6.0926,-6.0926,-6.0419,-6.0114,-6.0114,-5.9911,-5.9911,-6.0283,-6.0283,-6.052,-6.1028,-6.1264,-6.14,-6.14,-6.0858,-6.0858,-6.1298,-6.1806,-6.2448,-6.3193,-6.3193,-6.3565,-6.4275,-6.4275,-6.441,-6.4647,-6.5155,-6.5358,-6.5425,-6.5933,-6.6136,-6.6136,-6.6136,-6.6305,-6.6474,-7.3409,-7.2326,-7.1312,-7.0737,-7.0026,-6.9282,-6.8504,-6.8098,-6.7726,-6.7286,-6.6981,-6.6812,-6.6812,-6.6812,-6.6812,-6.6812,-6.6812,-6.6812,-6.6812,-6.6812,-6.6812,-6.6812,-6.6373,-6.5662,-6.4613,-6.4174,-6.3429,-6.2381,-6.2381,-6.2381,-6.2381,-6.2381,-6.2381,-6.2415,-6.2685,-6.3091,-6.3531,-6.3835,-6.4613,-6.5696,-6.5696,-6.6136,-6.6812,-6.6812,-6.6812,-6.6812,-6.6812,-6.6812,-6.6812,-6.6812,-6.6812,-6.6812,-6.6812,-6.6609,-6.6136,-6.4952,-6.441,-6.3903,-6.2719,-6.2381,-6.2381,-6.2381,-6.2381,-6.2381,-6.2381,-6.2381,-6.2381,-6.2381,-6.2381,-6.2381,-6.2381,-6.2381,-6.2381,-6.2381,-6.2381,-6.2381,-6.2381,-6.2381,-6.2381,-6.2381,-6.2009,-6.1738,-6.1738,-6.1298,-6.0892,-6.0588,-6.0588,-6.0655,-6.0825,-6.1129,-6.1501,-6.1941,-6.2516,-6.2854,-6.2854,-6.2685,-6.2448,-6.2178,-6.2922,-6.3497,-6.3937,-6.3937,-6.4343,-6.5019,-6.5019,-6.5189,-6.5493,-6.5967,-6.6136,-6.617,-6.6643,-6.6812,-6.6812,-6.6812,-6.6812,-6.6812,-7.4593,-7.3916,-7.3037,-7.1582,-7.0737,-7.0026,-6.9316,-6.8571,-6.8064,-6.7929,-6.732,-6.688,-6.6812,-6.6812,-6.6812,-6.6812,-6.6812,-6.6812,-6.6812,-6.6812,-6.6812,-6.6812,-6.6812,-6.6136,-6.4647,-6.4613,-6.3869,-6.2381,-6.2381,-6.2381,-6.2381,-6.2381,-6.2415,-6.2516,-6.3193,-6.3599,-6.3768,-6.441,-6.5121,-6.5797,-6.5797,-6.6203,-6.6812,-6.6812,-6.6812,-6.6812,-6.6812,-6.6812,-6.6812,-6.6812,-6.6812,-6.6812,-6.6812,-6.6339,-6.5628,-6.4918,-6.4174,-6.3463,-6.2685,-6.2448,-6.2381,-6.2381,-6.2381,-6.2381,-6.2381,-6.2381,-6.2381,-6.2381,-6.2381,-6.2381,-6.2381,-6.2381,-6.2381,-6.2381,-6.2381,-6.2381,-6.2381,-6.2381,-6.2381,-6.2381,-6.2381,-6.2381,-6.2381,-6.2381,-6.211,-6.1467,-6.14,-6.1129,-6.052,-6.1197,-6.167,-6.1806,-6.3091,-6.3768,-6.37,-6.4444,-6.441,-6.3632,-6.4275,-6.4647,-6.4681,-6.4681,-6.5087,-6.5797,-6.5797,-6.617,-6.6812,-6.6812,-6.6812,-6.6812,-6.6812,-6.6812,-6.6812,-6.6812,-6.6812,-6.6812,-7.324,-7.3206,-7.3037,-7.1582,-7.1176,-7.0804,-7.006,-6.9789,-6.9248,-6.8064,-6.776,-6.7455,-6.688,-6.6812,-6.6812,-6.6812,-6.6812,-6.6812,-6.6812,-6.6812,-6.6812,-6.6812,-6.6812,-6.6136,-6.4647,-6.4613,-6.3869,-6.2381,-6.2381,-6.2381,-6.2381,-6.2381,-6.2719,-6.3294,-6.3429,-6.414,-6.5222,-6.5392,-6.5899,-6.6576,-6.6576,-6.6677,-6.6812,-6.6812,-6.6812,-6.6812,-6.6812,-6.6812,-6.6812,-6.6812,-6.6812,-6.6812,-6.6812,-6.6711,-6.644,-6.5662,-6.4952,-6.4208,-6.3463,-6.2854,-6.2381,-6.2381,-6.2381,-6.2381,-6.2381,-6.2381,-6.2381,-6.2381,-6.2381,-6.2381,-6.2381,-6.2381,-6.2381,-6.2381,-6.2381,-6.2381,-6.2381,-6.2381,-6.2381,-6.2381,-6.2381,-6.2381,-6.2381,-6.2381,-6.2313,-6.2178,-6.2144,-6.2584,-6.3565,-6.3802,-6.441,-6.5595,-6.5933,-6.5831,-6.5222,-6.5967,-6.5662,-6.4377,-6.4512,-6.4884,-6.5459,-6.5459,-6.5865,-6.6576,-6.6576,-6.6677,-6.6812,-6.6812,-6.6812,-6.6812,-6.6812,-6.6812,-6.6812,-6.6812,-6.6812,-6.6812,-7.3274,-7.324,-7.3037,-7.1582,-7.1312,-7.1176,-7.077,-7.0432,-6.9891,-6.9079,-6.8368,-6.776,-6.7387,-6.7015,-6.6812,-6.6812,-6.6812,-6.6812,-6.6812,-6.6812,-6.6812,-6.6812,-6.6812,-6.6136,-6.4647,-6.4613,-6.3869,-6.2381,-6.2381,-6.2381,-6.2381,-6.2381,-6.2618,-6.3024,-6.3734,-6.4444,-6.5222,-6.5933,-6.644,-6.6812,-6.6812,-6.6812,-6.6812,-6.6812,-6.6812,-6.6812,-6.6812,-6.6812,-6.6812,-6.6812,-6.6812,-6.6812,-6.6812,-6.6576,-6.6203,-6.5797,-6.5189,-6.4444,-6.37,-6.3226,-6.2854,-6.2482,-6.2381,-6.2381,-6.2381,-6.2381,-6.2381,-6.2381,-6.2381,-6.2381,-6.2381,-6.2381,-6.2381,-6.2381,-6.2381,-6.2381,-6.2381,-6.2381,-6.2381,-6.2381,-6.2381,-6.2381,-6.2381,-6.2381,-6.2381,-6.2381,-6.2719,-6.326,-6.4038,-6.4749,-6.5493,-6.6237,-6.6643,-6.6609,-6.6237,-6.6609,-6.6406,-6.5662,-6.5662,-6.5865,-6.6203,-6.6203,-6.644,-6.6812,-6.6812,-6.6812,-6.6812,-6.6812,-6.6812,-6.6812,-6.6812,-6.6812,-6.6812,-6.6812,-6.6812,-6.6812,-7.3747,-7.3375,-7.2868,-7.1548,-7.1312,-7.1312,-7.1312,-7.077,-7.0331,-7.0195,-6.8977,-6.8064,-6.7929,-6.7252,-6.6812,-6.6812,-6.6812,-6.6812,-6.6812,-6.6812,-6.6812,-6.6812,-6.6812,-6.617,-6.4816,-6.4647,-6.3869,-6.2381,-6.2381,-6.2381,-6.2381,-6.2516,-6.2651,-6.2821,-6.4174,-6.485,-6.5053,-6.6305,-6.6812,-6.6812,-6.6812,-6.6812,-6.6812,-6.6812,-6.6812,-6.6812,-6.6812,-6.6812,-6.6812,-6.6812,-6.6812,-6.6812,-6.6812,-6.6373,-6.5865,-6.5865,-6.5358,-6.4647,-6.4038,-6.3802,-6.3531,-6.2753,-6.2584,-6.255,-6.2415,-6.2381,-6.2381,-6.2381,-6.2381,-6.2381,-6.2381,-6.2381,-6.2381,-6.2381,-6.2381,-6.2381,-6.2381,-6.2381,-6.2381,-6.2381,-6.2381,-6.2381,-6.2381,-6.2381,-6.2381,-6.2381,-6.3091,-6.3565,-6.37,-6.4952,-6.5764,-6.5865,-6.6474,-6.6812,-6.6812,-6.6812,-6.6812,-6.6812,-6.6812,-6.6812,-6.6812,-6.6812,-6.6812,-6.6812,-6.6812,-6.6812,-6.6812,-6.6812,-6.6812,-6.6812,-6.6812,-6.6812,-6.6812,-6.6812,-6.6812,-6.6812,-7.3646,-7.2969,-7.2293,-7.1447,-7.1312,-7.1312,-7.1312,-7.1244,-7.0939,-7.0263,-6.9451,-6.8673,-6.7963,-6.7252,-6.6812,-6.6812,-6.6812,-6.6812,-6.6812,-6.6812,-6.6812,-6.6812,-6.6812,-6.6406,-6.5561,-6.4918,-6.3869,-6.2381,-6.2381,-6.2381,-6.2415,-6.3057,-6.37,-6.4343,-6.5155,-6.5899,-6.6542,-6.6745,-6.6812,-6.6812,-6.6812,-6.6812,-6.6812,-6.6812,-6.6812,-6.6812,-6.6812,-6.6812,-6.6812,-6.6812,-6.6812,-6.6812,-6.6812,-6.6745,-6.6677,-6.6677,-6.6136,-6.5527,-6.5425,-6.4918,-6.4275,-6.3565,-6.3362,-6.3193,-6.255,-6.2381,-6.2381,-6.2381,-6.2381,-6.2381,-6.2381,-6.2381,-6.2381,-6.2381,-6.2381,-6.2381,-6.2381,-6.2381,-6.2381,-6.2381,-6.2381,-6.2381,-6.2381,-6.2381,-6.2381,-6.2381,-6.3091,-6.3802,-6.441,-6.5256,-6.6,-6.6643,-6.6779,-6.6812,-6.6812,-6.6812,-6.6812,-6.6812,-6.6812,-6.6812,-6.6812,-6.6812,-6.6812,-6.6812,-6.6812,-6.6812,-6.6812,-6.6812,-6.6812,-6.6812,-6.6812,-6.6812,-6.6812,-6.6812,-6.6812,-6.6812,-7.3172,-7.2935,-7.2665,-7.1515,-7.1312,-7.1312,-7.1312,-7.1312,-7.121,-7.0872,-7.0161,-6.9417,-6.8639,-6.7523,-6.6812,-6.6812,-6.6812,-6.6812,-6.6812,-6.6812,-6.6812,-6.6812,-6.6812,-6.644,-6.5696,-6.4986,-6.4072,-6.3024,-6.3024,-6.2787,-6.2415,-6.3565,-6.4072,-6.4038,-6.5189,-6.5865,-6.6203,-6.6643,-6.6812,-6.6812,-6.6812,-6.6812,-6.6812,-6.6812,-6.6812,-6.6812,-6.6812,-6.6812,-6.6812,-6.6812,-6.6812,-6.6812,-6.6812,-6.6812,-6.6812,-6.6812,-6.6576,-6.6203,-6.5797,-6.5459,-6.5019,-6.4309,-6.3802,-6.3429,-6.3091,-6.2685,-6.2381,-6.2381,-6.2381,-6.2381,-6.2381,-6.2381,-6.2381,-6.2381,-6.2381,-6.2381,-6.2381,-6.2381,-6.2381,-6.2381,-6.2381,-6.2381,-6.2381,-6.2381,-6.255,-6.299,-6.37,-6.4444,-6.5155,-6.5899,-6.6474,-6.6812,-6.6812,-6.6812,-6.6812,-6.6812,-6.6812,-6.6812,-6.6812,-6.6812,-6.6812,-6.6812,-6.6812,-6.6812,-6.6812,-6.6812,-6.6812,-6.6812,-6.6812,-6.6812,-6.6812,-6.6812,-6.6812,-6.6812,-6.6812,-6.6812]},{"header":{"parameterUnit":"m.s-1","parameterCategory":1,"la1":30.6,"la2":28.766,"lo1":-90.7593,"lo2":-88.6598,"dx":0.0162,"dy":0.0183,"nx":116,"ny":114,"refTime":"2022-12-10T18:00:00:Z","depth":0,"parameterNumber":3,"parameterNumberName":"V-component_of_WINDS"},"data":[0.0,0.0,0.0,0.0,0.0,0.0,0.0,0.0,0.0,0.0,0.0,0.0,0.0,0.0,0.0,0.0,0.0,0.0,0.0,0.0,0.0,0.0,0.0,0.0,0.0,0.0,0.0,0.0,0.0,0.0,0.0,0.0,0.0,0.0,0.0,0.0,0.0,0.0,0.0,0.0,0.0,0.0,0.0,0.0,0.0,0.0,0.0,0.0,0.0,0.0,0.0,0.0,0.0,0.0,0.0,0.0,0.0,0.0,0.0,0.0,0.0,0.0,0.0,0.0,0.0,0.0,0.0,0.0,0.0,0.0,0.0,0.0,0.0,0.0,0.0,0.0,0.0,0.0,0.0,0.0,0.0,0.0,0.0,0.0,0.0,0.0,0.0,0.0,0.0,0.0,0.0,0.0,0.0,0.0,0.0,0.0,0.0,0.0,0.0,0.0,0.0,0.0,0.0,0.0,0.0,0.0,0.0,0.0,0.0,0.0,0.0,0.0,0.0,0.0,0.0,0.0,0.0,0.0,0.0,0.0,0.0,0.0,0.0,0.0,0.0,0.0,0.0,0.0,0.0,0.0,0.0,0.0,0.0,0.0,0.0,0.0,0.0,0.0,0.0,0.0,0.0,0.0,0.0,0.0,0.0,0.0,0.0,0.0,0.0,0.0,0.0,0.0,0.0,0.0,0.0,0.0,0.0,0.0,0.0,0.0,0.0,0.0,0.0,0.0,0.0,0.0,0.0,0.0,0.0,0.0,0.0,0.0,0.0,0.0,0.0,0.0,0.0,0.0,0.0,0.0,0.0,0.0,0.0,0.0,0.0,0.0,0.0,0.0,0.0,0.0,0.0,0.0,0.0,0.0,0.0,0.0,0.0,0.0,0.0,0.0,0.0,0.0,0.0,0.0,0.0,0.0,0.0,0.0,0.0,0.0,0.0,0.0,0.0,0.0,0.0,0.0,0.0,0.0,0.0,0.0,0.0,0.0,0.0,0.0,0.0,0.0,0.0,0.0,0.0,0.0,0.0,0.0,0.0,0.0,0.0,0.0,0.0,0.0,0.0,0.0,0.0,0.0,0.0,0.0,0.0,0.0,0.0,0.0,0.0,0.0,0.0,0.0,0.0,0.0,0.0,0.0,0.0,0.0,0.0,0.0,0.0,0.0,0.0,0.0,0.0,0.0,0.0,0.0,0.0,0.0,0.0,0.0,0.0,0.0,0.0,0.0,0.0,0.0,0.0,0.0,0.0,0.0,0.0,0.0,0.0,0.0,0.0,0.0,0.0,0.0,0.0,0.0,0.0,0.0,0.0,0.0,0.0,0.0,0.0,0.0,0.0,0.0,0.0,0.0,0.0,0.0,0.0,0.0,0.0,0.0,0.0,0.0,0.0,0.0,0.0,0.0,0.0,0.0,0.0,0.0,0.0,0.0,0.0,0.0,0.0,0.0,0.0,0.0,0.0,0.0,0.0,0.0,0.0,0.0,0.0,0.0,0.0,0.0,0.0,0.0,0.0,0.0,0.0,0.0,0.0,0.0,0.0,0.0,0.0,0.0,0.0,0.0,0.0,0.0,0.0,0.0,0.0,0.0,0.0,0.0,0.0,0.0,0.0,0.0,0.0,0.0,0.0,0.0,0.0,0.0,0.0,0.0,0.0,0.0,0.0,0.0,0.0,0.0,0.0,0.0,0.0,0.0,0.0,0.0,0.0,0.0,0.0,0.0,0.0,0.0,0.0,0.0,0.0,0.0,0.0,0.0,0.0,0.0,0.0,0.0,0.0,0.0,0.0,0.0,0.0,0.0,0.0,0.0,0.0,0.0,0.0,0.0,0.0,0.0,0.0,0.0,0.0,0.0,0.0,0.0,0.0,0.0,0.0,0.0,0.0,0.0,0.0,0.0,0.0,0.0,0.0,0.0,0.0,0.0,0.0,0.0,0.0,0.0,0.0,0.0,0.0,0.0,0.0,0.0,0.0,0.0,0.0,0.0,0.0,0.0,0.0,0.0,0.0,0.0,0.0,0.0,0.0,0.0,0.0,0.0,0.0,0.0,0.0,0.0,0.0,0.0,0.0,0.0,0.0,0.0,0.0,0.0,0.0,0.0,0.0,0.0,0.0,0.0,0.0,0.0,0.0,0.0,0.0,0.0,0.0,0.0,0.0,0.0,0.0,0.0,0.0,0.0,0.0,0.0,0.0,0.0,0.0,0.0,0.0,0.0,0.0,0.0,0.0,0.0,0.0,0.0,0.0,0.0,0.0,0.0,0.0,0.0,0.0,0.0,0.0,0.0,0.0,0.0,0.0,0.0,0.0,0.0,0.0,0.0,0.0,0.0,0.0,0.0,0.0,0.0,0.0,0.0,0.0,0.0,0.0,0.0,0.0,0.0,0.0,0.0,0.0,0.0,0.0,0.0,0.0,0.0,0.0,0.0,0.0,0.0,0.0,0.0,0.0,0.0,0.0,0.0,0.0,0.0,0.0,0.0,0.0,0.0,0.0,0.0,0.0,0.0,0.0,0.0,0.0,0.0,0.0,0.0,0.0,0.0,0.0,0.0,0.0,0.0,0.0,0.0,0.0,0.0,0.0,0.0,0.0,0.0,0.0,0.0,0.0,0.0,0.0,0.0,0.0,0.0,0.0,0.0,0.0,0.0,0.0,0.0,0.0,0.0,0.0,0.0,0.0,0.0,0.0,0.0,0.0,0.0,0.0,0.0,0.0,0.0,0.0,0.0,0.0,0.0,0.0,0.0,0.0,0.0,0.0,0.0,0.0,0.0,0.0,0.0,0.0,0.0,0.0,0.0,0.0,0.0,0.0,0.0,0.0,0.0,0.0,0.0,0.0,0.0,0.0,0.0,0.0,0.0,0.0,0.0,0.0,0.0,0.0,0.0,0.0,0.0,0.0,0.0,0.0,0.0,0.0,0.0,0.0,0.0,0.0,0.0,0.0,0.0,0.0,0.0,0.0,0.0,0.0,0.0,0.0,0.0,0.0,0.0,0.0,0.0,0.0,0.0,0.0,0.0,0.0,0.0,0.0,0.0,0.0,0.0,0.0,0.0,0.0,0.0,0.0,0.0,0.0,0.0,0.0,0.0,0.0,0.0,0.0,0.0,0.0,0.0,0.0,0.0,0.0,0.0,0.0,0.0,0.0,0.0,0.0,0.0,0.0,0.0,0.0,0.0,0.0,0.0,0.0,0.0,0.0,0.0,0.0,0.0,0.0,0.0,0.0,0.0,0.0,0.0,0.0,0.0,0.0,0.0,0.0,0.0,0.0,0.0,0.0,0.0,0.0,0.0,0.0,0.0,0.0,0.0,0.0,0.0,0.0,0.0,0.0,0.0,0.0,0.0,0.0,0.0,0.0,0.0,0.0,0.0,0.0,0.0,0.0,0.0,0.0,0.0,0.0,0.0,0.0,0.0,0.0,0.0,0.0,0.0,0.0,0.0,0.0,0.0,0.0,0.0,0.0,0.0,0.0,0.0,0.0,0.0,0.0,0.0,0.0,0.0,0.0,0.0,0.0,0.0,0.0,0.0,0.0,0.0,0.0,0.0,0.0,0.0,0.0,0.0,0.0,0.0,0.0,0.0,0.0,0.0,0.0,0.0,0.0,0.0,0.0,0.0,0.0,0.0,0.0,0.0,0.0,0.0,0.0,0.0,0.0,0.0,0.0,0.0,0.0,0.0,0.0,0.0,0.0,0.0,0.0,0.0,0.0,0.0,0.0,0.0,0.0,0.0,0.0,0.0,0.0,0.0,0.0,0.0,0.0,0.0,0.0,0.0,0.0,0.0,0.0,0.0,0.0,0.0,0.0,0.0,0.0,0.0,0.0,0.0,0.0,0.0,0.0,0.0,0.0,0.0,0.0,0.0,0.0,0.0,0.0,0.0,0.0,0.0,0.0,0.0,0.0,0.0,0.0,0.0,0.0,0.0,0.0,0.0,0.0,0.0,0.0,0.0,0.0,0.0,0.0,0.0,0.0,0.0,0.0,0.0,0.0,0.0,0.0,0.0,0.0,0.0,0.0,0.0,0.0,0.0,0.0,0.0,0.0,0.0,0.0,0.0,0.0,0.0,0.0,0.0,0.0,0.0,0.0,0.0,0.0,0.0,0.0,0.0,0.0,0.0,0.0,0.0,0.0,0.0,0.0,0.0,0.0,0.0,0.0,0.0,0.0,0.0,0.0,0.0,0.0,0.0,0.0,0.0,0.0,0.0,0.0,0.0,0.0,0.0,0.0,0.0,0.0,0.0,0.0,0.0,0.0,0.0,0.0,0.0,0.0,0.0,0.0,0.0,0.0,0.0,0.0,0.0,0.0,0.0,0.0,0.0,0.0,0.0,0.0,0.0,0.0,0.0,0.0,0.0,0.0,0.0,0.0,0.0,0.0,0.0,0.0,0.0,0.0,0.0,0.0,0.0,0.0,0.0,0.0,0.0,0.0,0.0,0.0,0.0,0.0,0.0,0.0,0.0,0.0,0.0,0.0,0.0,0.0,0.0,0.0,0.0,0.0,0.0,0.0,0.0,0.0,0.0,0.0,0.0,0.0,0.0,0.0,0.0,0.0,0.0,0.0,0.0,0.0,0.0,0.0,0.0,0.0,0.0,0.0,0.0,0.0,0.0,0.0,0.0,0.0,0.0,0.0,0.0,0.0,0.0,0.0,0.0,0.0,0.0,0.0,0.0,0.0,0.0,0.0,0.0,0.0,0.0,0.0,0.0,0.0,0.0,0.0,0.0,0.0,0.0,0.0,0.0,0.0,0.0,0.0,0.0,0.0,0.0,0.0,0.0,0.0,0.0,0.0,0.0,0.0,0.0,0.0,0.0,0.0,0.0,0.0,0.0,0.0,0.0,0.0,0.0,0.0,0.0,0.0,0.0,0.0,0.0,0.0,0.0,0.0,0.0,0.0,0.0,0.0,0.0,0.0,0.0,0.0,0.0,0.0,0.0,0.0,0.0,0.0,0.0,0.0,0.0,0.0,0.0,0.0,0.0,0.0,0.0,0.0,0.0,0.0,0.0,0.0,0.0,0.0,0.0,0.0,0.0,0.0,0.0,0.0,0.0,0.0,0.0,0.0,0.0,0.0,0.0,0.0,0.0,0.0,0.0,0.0,0.0,0.0,0.0,0.0,0.0,0.0,0.0,0.0,0.0,0.0,0.0,0.0,0.0,0.0,0.0,0.0,0.0,0.0,0.0,0.0,0.0,0.0,0.0,0.0,0.0,0.0,0.0,0.0,0.0,0.0,0.0,0.0,0.0,0.0,0.0,0.0,0.0,0.0,0.0,0.0,0.0,0.0,0.0,0.0,0.0,0.0,0.0,0.0,0.0,0.0,0.0,0.0,0.0,0.0,0.0,0.0,0.0,0.0,0.0,0.0,0.0,0.0,0.0,0.0,0.0,0.0,0.0,0.0,0.0,0.0,0.0,0.0,0.0,0.0,0.0,0.0,0.0,0.0,0.0,0.0,0.0,0.0,0.0,0.0,0.0,0.0,0.0,0.0,0.0,0.0,0.0,0.0,0.0,0.0,0.0,0.0,0.0,0.0,0.0,0.0,0.0,0.0,0.0,0.0,0.0,0.0,0.0,0.0,0.0,0.0,0.0,0.0,0.0,0.0,0.0,0.0,0.0,0.0,0.0,0.0,0.0,0.0,0.0,0.0,0.0,0.0,0.0,0.0,0.0,0.0,0.0,0.0,0.0,0.0,0.0,0.0,0.0,0.0,0.0,0.0,0.0,0.0,0.0,0.0,0.0,0.0,0.0,0.0,0.0,0.0,0.0,0.0,0.0,0.0,0.0,0.0,0.0,0.0,0.0,0.0,0.0,0.0,0.0,0.0,0.0,0.0,0.0,0.0,0.0,0.0,0.0,0.0,0.0,0.0,0.0,0.0,0.0,0.0,0.0,0.0,0.0,0.0,0.0,0.0,0.0,0.0,0.0,0.0,0.0,0.0,0.0,0.0,0.0,0.0,0.0,0.0,0.0,0.0,0.0,0.0,0.0,0.0,0.0,0.0,0.0,0.0,0.0,0.0,0.0,0.0,0.0,0.0,0.0,0.0,0.0,0.0,0.0,0.0,0.0,0.0,0.0,0.0,0.0,0.0,0.0,2.659,2.2057,0.0,0.0,0.0,0.0,0.0,0.0,0.0,0.0,0.0,0.0,0.0,0.0,0.0,0.0,0.0,0.0,0.0,0.0,0.0,0.0,0.0,0.0,0.0,1.21,1.228,1.228,1.228,0.0,0.0,0.0,0.0,0.0,0.0,0.0,0.0,0.0,0.9679,1.101,1.2637,1.5579,1.968,1.785,1.6204,1.4783,0.0,0.0,0.0,0.0,0.0,0.0,0.0,0.0,0.0,0.0,0.0,0.0,0.0,0.0,0.0,0.0,0.0,0.0,0.0,0.0,0.0,0.0,0.0,0.0,0.0,0.0,0.0,0.0,0.0,0.0,0.0,0.0,0.0,0.0,0.0,0.0,0.0,0.0,0.0,0.0,0.0,0.0,0.0,0.0,0.0,0.0,0.0,0.0,0.0,0.0,0.0,0.0,0.0,0.0,0.0,0.0,0.0,0.0,0.0,0.0,0.0,0.0,0.0,0.0,0.0,0.0,0.0,0.0,0.0,0.0,3.0886,2.7841,0.0,0.0,0.0,0.0,0.0,0.0,0.0,0.0,0.0,0.0,0.0,0.0,0.0,0.0,0.0,0.0,0.0,0.0,0.0,0.0,0.0,1.2029,1.2149,1.2759,1.319,1.331,1.322,1.3089,1.2969,1.234,0.0,0.0,0.0,0.0,0.9497,1.0216,1.1647,1.3804,1.7164,2.0861,2.4763,2.5523,2.4203,2.1123,1.8381,0.0,0.0,0.0,0.0,0.0,0.0,0.0,0.0,0.0,0.0,0.0,0.0,0.0,0.0,0.0,0.0,0.0,0.0,0.0,0.0,0.0,0.0,0.0,0.0,0.0,0.0,0.0,0.0,0.0,0.0,0.0,0.0,0.0,0.0,0.0,0.0,0.0,0.0,0.0,0.0,0.0,0.0,0.0,0.0,0.0,0.0,0.0,0.0,0.0,0.0,0.0,0.0,0.0,0.0,0.0,0.0,0.0,0.0,0.0,0.0,0.0,0.0,0.0,3.5453,3.6332,3.5791,3.6986,3.8903,4.0959,3.5419,3.4742,3.71,3.0751,0.0,0.0,0.0,0.0,0.0,0.0,0.0,0.0,0.0,0.0,0.0,0.0,0.0,0.0,0.0,0.0,0.0,0.0,0.0,1.2879,1.3453,1.4124,1.4766,1.5349,1.4856,1.4274,1.3705,1.3029,0.0,0.0,0.0,1.0829,1.0936,1.1763,1.3673,1.6654,2.4247,2.8721,3.0176,3.0939,3.1007,3.033,2.5489,2.2206,2.0209,0.0,0.0,0.0,0.0,0.0,0.0,0.0,0.0,0.0,0.0,0.0,0.0,0.0,0.0,0.0,0.0,0.0,0.0,0.0,0.0,0.0,0.0,0.0,0.0,0.0,0.0,0.0,0.0,0.0,0.0,0.0,0.0,0.0,0.0,0.0,0.0,0.0,0.0,0.0,0.0,0.0,2.6843,2.7046,0.0,0.0,0.0,0.0,0.0,0.0,0.0,0.0,0.0,0.0,0.0,0.0,0.0,3.1616,3.2645,3.6806,3.9266,3.9918,4.347,4.5128,4.5026,4.5229,4.5534,4.5872,4.4959,0.0,4.0493,3.8845,0.0,0.0,0.0,0.0,0.0,0.0,0.0,0.0,0.0,0.0,0.0,0.0,0.0,0.0,0.0,0.0,0.0,0.0,0.0,0.0,0.0,1.7508,1.8827,2.0639,2.0528,1.9543,1.7585,1.6427,0.0,0.0,1.2188,1.2138,1.2819,1.481,1.8686,2.4443,2.9379,3.2441,3.3672,3.3998,3.4167,3.4066,3.1765,2.8586,2.4831,2.3748,0.0,0.0,0.0,0.0,0.0,0.0,0.0,0.0,0.0,0.0,0.0,0.0,0.0,0.0,0.0,0.0,0.0,0.0,0.0,0.0,0.0,0.0,0.0,0.0,0.0,0.0,0.0,0.0,0.0,0.0,0.0,0.0,0.0,0.0,0.0,0.0,0.0,0.0,0.0,2.571,2.7334,2.7756,2.6218,2.4323,0.0,0.0,0.0,0.0,0.0,0.0,0.0,0.0,0.0,3.5453,3.6321,3.7845,4.029,4.3098,4.4654,4.4964,4.7056,4.8037,4.8037,4.8037,4.8037,4.8037,4.8037,4.709,4.5331,4.2083,3.8159,3.3998,0.0,0.0,0.0,0.0,3.0127,3.0838,0.0,0.0,0.0,0.0,0.0,0.0,0.0,0.0,0.0,0.0,0.0,0.0,1.9276,2.1148,2.3109,2.5263,2.5317,2.4189,2.1857,2.0015,1.7857,1.524,1.3983,1.3831,1.491,1.9031,2.4489,3.1224,3.3457,3.5092,3.6174,3.6174,3.6073,3.5926,3.5926,3.3402,2.9176,2.8247,2.5609,2.1792,0.0,0.0,0.0,0.0,0.0,0.0,0.0,0.0,0.0,0.0,0.0,0.0,0.0,0.0,0.0,0.0,0.0,0.0,0.0,0.0,0.0,0.0,0.0,0.0,0.0,0.0,0.0,0.0,0.0,0.0,0.0,0.0,0.0,0.0,0.0,0.0,0.0,2.7503,2.8755,2.8924,2.8653,2.7232,0.0,0.0,0.0,0.0,0.0,0.0,3.3918,3.402,3.6062,4.0561,4.1238,4.3064,4.6244,4.7331,4.7973,4.8176,4.8748,4.9018,4.9018,4.9018,4.9018,4.9018,4.9018,4.9018,4.8714,4.479,4.2219,4.0392,3.7584,3.5453,3.4167,3.5859,3.6502,3.7212,0.0,0.0,0.0,0.0,0.0,0.0,0.0,0.0,0.0,0.0,0.0,2.0004,2.1407,2.4448,2.6717,2.749,2.6964,2.6254,2.5477,2.2802,2.0584,1.9083,1.6594,1.5879,1.7216,2.4619,3.0378,3.4269,3.6569,3.7719,3.7787,3.7787,3.7415,3.6761,3.6761,3.5385,3.3017,3.1562,2.96,2.6979,2.1927,0.0,0.0,0.0,0.0,0.0,0.0,0.0,0.0,0.0,0.0,0.0,0.0,0.0,0.0,0.0,0.0,0.0,0.0,0.0,0.0,0.0,0.0,0.0,0.0,0.0,0.0,0.0,0.0,0.0,0.0,0.0,0.0,0.0,0.0,0.0,0.0,0.0,0.0,3.2226,3.4527,0.0,0.0,0.0,0.0,3.2022,3.278,3.4878,3.8464,3.8667,4.073,4.5229,4.5399,4.6177,4.777,4.7838,4.8274,4.8951,4.8984,4.9018,4.9018,4.9018,4.9018,4.9018,4.9018,4.9018,4.8984,4.8714,4.6075,4.2151,4.1982,3.9276,3.6005,4.0324,4.1914,4.2557,0.0,0.0,0.0,1.5499,1.5095,1.4722,1.4483,1.4826,1.543,1.6404,1.9515,2.2727,2.5709,2.8346,3.0675,3.2605,3.257,3.15,2.9379,2.6468,2.4159,2.2701,2.0403,2.1378,2.6169,3.0374,3.3897,3.6705,3.7516,3.7922,3.7922,3.7922,3.7753,3.7516,3.7516,3.6772,3.552,3.4472,3.2476,2.9803,2.7418,2.4173,0.0,0.0,0.0,0.0,0.0,0.0,0.0,0.0,0.0,0.0,0.0,0.0,0.0,0.0,0.0,0.0,0.0,0.0,0.0,0.0,0.0,0.0,0.0,0.0,0.0,0.0,0.0,0.0,0.0,0.0,0.0,0.0,0.0,0.0,0.0,0.0,0.0,3.3918,3.596,0.0,3.2949,3.5284,3.6874,3.6626,3.9097,4.1196,4.255,4.2618,4.3741,4.6312,4.6413,4.7124,4.8612,4.8612,4.8748,4.9018,4.9018,4.9018,4.9018,4.9018,4.9018,4.9018,4.9018,4.9018,4.9018,4.9018,4.8071,4.6616,4.6616,4.5635,4.4418,4.6007,4.6616,4.6853,0.0,0.0,0.0,1.5799,1.5425,1.5125,1.5125,1.5806,1.6964,1.8669,2.2026,2.5594,2.9125,3.1604,3.3817,3.5836,3.5994,3.5182,3.322,3.0006,2.7435,2.5676,2.3966,2.5914,3.2029,3.4192,3.6366,3.8633,3.8633,3.8633,3.8633,3.8633,3.8497,3.8261,3.8261,3.7855,3.7144,3.6603,3.4945,3.2544,3.1089,2.8247,2.4612,0.0,0.0,0.0,0.0,0.0,0.0,0.0,0.0,0.0,0.0,0.0,0.0,0.0,0.0,0.0,0.0,0.0,0.0,0.0,0.0,0.0,0.0,0.0,0.0,0.0,0.0,0.0,0.0,0.0,0.0,0.0,0.0,0.0,0.0,3.3931,3.6321,3.5013,3.7753,3.8599,3.5588,3.8667,4.0865,4.0865,4.3193,4.4615,4.4615,4.4852,4.5534,4.6752,4.7022,4.7767,4.8984,4.9018,4.912,4.9357,4.9357,4.9492,4.9763,4.9763,4.9763,4.9763,4.9763,4.9763,4.9763,4.9763,4.9763,4.9695,4.9187,4.9018,4.9018,4.9018,4.9018,4.9018,0.0,0.0,1.5799,1.5799,1.5799,1.5799,1.5799,1.6733,1.8466,2.1375,2.5005,2.8472,3.1411,3.4063,3.596,3.6728,3.6829,3.6795,3.6728,3.3241,3.0176,2.7959,2.7334,2.9301,3.4063,3.5958,3.7946,4.0113,4.0113,4.0113,4.0113,4.0113,3.974,3.9039,3.9039,3.8633,3.7922,3.7922,3.7077,3.543,3.2544,3.0886,2.9616,0.0,0.0,0.0,0.0,0.0,0.0,0.0,0.0,0.0,0.0,0.0,0.0,0.0,0.0,0.0,0.0,0.0,0.0,0.0,0.0,0.0,0.0,0.0,0.0,0.0,0.0,0.0,0.0,0.0,0.0,0.0,0.0,0.0,3.4709,3.6017,3.6705,3.5938,4.0333,4.2293,3.9445,4.2482,4.4615,4.4615,4.4615,4.4615,4.4615,4.5297,4.6041,4.6786,4.7564,4.8308,4.9018,4.9052,4.9424,5.0135,5.0135,5.0507,5.1185,5.1185,5.1185,5.1185,5.1185,5.1185,5.1185,5.1185,5.1185,5.105,4.9627,4.9086,4.9086,4.9086,4.9086,4.9086,1.5799,1.5799,1.5799,1.5799,1.5799,1.5799,1.5799,1.7117,1.9311,2.2567,2.5921,2.9262,3.2559,3.5048,3.6558,3.6795,3.728,3.6907,3.5238,3.2171,3.0142,2.948,3.2916,3.5712,3.76,3.8642,3.9503,4.0113,4.0113,4.0113,4.0113,4.0113,4.0011,3.9808,3.9808,3.9402,3.87,3.87,3.8159,3.7144,3.5791,3.385,3.1481,0.0,0.0,0.0,0.0,0.0,0.0,0.0,0.0,0.0,0.0,0.0,0.0,0.0,0.0,0.0,0.0,0.0,0.0,0.0,0.0,0.0,0.0,0.0,0.0,0.0,0.0,0.0,0.0,0.0,0.0,0.0,3.4776,3.7212,3.7009,3.9648,4.1508,4.1279,4.3031,4.3944,4.3159,4.4005,4.4615,4.4615,4.4615,4.4615,4.4615,4.5297,4.6041,4.6786,4.8037,4.9052,4.9796,5.0338,5.071,5.0913,5.0913,5.1014,5.1185,5.1185,5.1185,5.1185,5.1185,5.1185,5.1185,5.1185,5.1185,5.1151,5.0745,5.0608,5.0608,5.0608,5.0608,5.0608,1.5799,1.5799,1.5799,1.5799,1.5799,1.5799,1.5799,1.7418,2.005,2.3939,2.6866,3.0079,3.3888,3.5791,3.6931,3.7212,3.7652,3.6941,3.4641,3.1732,3.0954,3.2814,3.5825,3.8362,4.0324,4.1102,4.1644,4.2008,4.1644,4.1305,4.1027,4.0722,4.0417,4.0113,4.0113,3.9876,3.9469,3.9469,3.9039,3.8328,3.7889,3.6321,3.3986,3.2327,3.0818,2.9465,2.7672,2.6522,2.5947,2.637,0.0,0.0,0.0,0.0,0.0,0.0,0.0,0.0,0.0,0.0,0.0,0.0,0.0,0.0,0.0,0.0,0.0,0.0,0.0,0.0,0.0,0.0,0.0,0.0,3.8261,4.0324,4.0663,4.2252,4.3538,4.3876,4.4316,4.4615,4.4615,4.4615,4.4615,4.4615,4.4615,4.4615,4.4615,4.5872,4.6819,4.7259,4.8984,5.0135,5.0574,5.1014,5.1386,5.1657,5.1657,5.186,5.2164,5.2164,5.2164,5.2164,5.2164,5.2164,5.2164,5.2164,5.2164,0.0,0.0,0.0,0.0,0.0,5.1185,5.1185,1.5799,1.5799,1.5799,1.5799,1.5799,1.5799,1.5799,1.7619,2.0614,2.5118,2.7651,3.0683,3.5126,3.64,3.7144,3.7719,3.7922,3.7009,3.4641,3.2205,3.2645,3.6626,3.7202,3.8996,4.2354,4.3166,4.3876,4.4615,4.3876,4.3166,4.2388,4.1745,4.1001,4.0214,4.0214,4.018,4.0113,4.0113,3.974,3.9106,3.9039,3.8159,3.6626,3.385,3.2801,3.253,3.0499,2.9228,2.8568,2.877,0.0,0.0,0.0,0.0,0.0,0.0,0.0,0.0,0.0,0.0,0.0,0.0,0.0,0.0,0.0,0.0,0.0,0.0,0.0,0.0,0.0,0.0,0.0,0.0,4.161,4.3775,4.4513,4.3978,4.3809,4.4513,4.4615,4.4615,4.4615,4.4615,4.4615,4.4615,4.4682,4.4784,4.4852,4.6887,0.0,0.0,0.0,5.132,5.132,5.1388,5.1792,5.2435,5.2435,5.2807,5.3518,5.3518,5.3518,5.3518,5.3518,5.3518,5.3518,5.3518,5.3518,5.3382,5.1995,5.1455,5.1455,5.1455,5.1455,5.1455,1.5799,1.5799,1.5799,1.5799,1.5799,1.5799,1.5799,1.7619,2.0614,2.5118,2.7651,3.0683,3.5126,3.6874,3.7516,3.7066,3.8091,3.755,3.4675,3.5137,3.5881,3.6761,3.9673,4.1847,4.3139,4.3944,4.4445,4.4615,4.4445,4.3944,4.32,4.3064,4.226,4.1001,4.1001,4.0663,4.0113,4.0113,4.0011,3.9842,3.9242,3.8464,3.755,3.6389,3.5949,3.578,3.4709,3.3829,3.3389,3.4641,3.2949,3.0514,3.1562,2.9616,0.0,0.0,0.0,0.0,0.0,0.0,0.0,0.0,0.0,0.0,0.0,0.0,0.0,0.0,0.0,0.0,0.0,0.0,0.0,3.9706,4.2414,4.4445,4.4581,4.4479,4.4445,4.4581,4.4615,4.4615,4.4615,4.4615,4.4615,4.4615,4.5128,4.5737,4.6346,4.7902,4.9052,4.9661,5.1251,5.2097,5.2097,5.2739,5.3145,5.3281,5.3281,0.0,5.3518,5.3518,5.3518,5.3518,5.3518,5.3518,5.3518,5.3518,5.3518,5.3484,5.3179,5.3078,5.3078,5.3078,5.3078,5.3078,1.5799,1.5799,1.5799,1.5799,1.5799,1.5799,1.5799,1.7462,2.0128,2.407,2.6104,2.8514,3.211,3.3295,3.3549,3.2862,3.3974,3.4678,3.4506,3.5554,3.7043,3.8903,4.1102,4.2997,4.4519,4.5297,4.6041,4.6786,4.6413,4.5872,4.5094,4.435,4.32,4.1745,4.1373,4.0798,4.0113,4.0113,4.0113,4.0079,3.9706,3.9309,3.887,3.7753,3.7347,3.728,3.6907,3.6535,3.6332,3.7077,3.6096,3.4607,3.4979,3.3288,3.0649,0.0,0.0,0.0,0.0,0.0,0.0,0.0,0.0,0.0,0.0,0.0,0.0,0.0,0.0,3.4641,3.6907,0.0,4.0595,4.211,4.3633,4.4615,4.4615,4.4615,4.4615,4.4615,4.4615,4.4615,4.4615,4.4615,4.475,4.5128,4.5838,4.6583,4.7327,4.912,5.027,5.0642,5.2131,5.2909,5.2909,5.3315,5.3518,5.3518,5.3518,5.3518,5.3518,5.3518,5.3518,5.3518,5.3518,5.3518,5.3518,5.3518,5.3518,5.3518,5.3518,5.3518,5.3518,5.3518,5.3518,5.3518,1.5799,1.5799,1.5799,1.5799,1.5799,1.5799,1.5799,1.7164,1.9421,2.2714,2.418,2.5959,2.8748,2.9258,2.9264,2.883,3.0243,3.2138,3.442,3.578,3.7889,4.1068,4.1914,4.3234,4.5229,4.5974,4.6955,4.8139,4.7564,4.6887,4.6109,4.4925,4.3538,4.2049,4.1474,4.0798,4.0113,4.0113,4.0113,4.0113,4.0113,4.0113,3.9977,3.8768,3.8227,3.8091,3.7956,3.7922,3.7922,3.7922,3.7922,3.7787,3.7178,3.6084,3.4404,3.1732,3.0751,0.0,0.0,0.0,0.0,0.0,0.0,0.0,0.0,3.1035,3.2341,3.4844,3.6276,3.7898,4.0527,4.1474,4.2455,4.431,4.4615,4.4615,4.4615,4.4615,4.4615,4.4615,4.4615,4.4615,4.4615,4.475,4.5128,4.5872,4.6718,4.7597,4.848,5.034,5.1488,5.1657,5.2841,5.3518,5.3518,5.3518,5.3518,5.3518,5.3518,5.3518,5.3518,5.3518,5.3518,5.3518,5.3518,5.3518,5.3518,5.3518,5.3585,5.3721,5.3721,5.3721,5.3687,5.3551,5.3518,5.3518,1.5799,1.5799,1.5799,1.5799,1.5799,1.5799,1.5799,1.6764,1.8575,2.1521,2.2849,2.4626,2.7562,2.796,2.8253,2.8733,3.1704,3.3904,3.4801,3.784,4.0079,4.117,4.1914,4.2726,4.3612,4.4418,4.4953,4.5089,4.5021,4.4553,4.3781,4.3612,4.276,4.1339,4.1238,4.0798,4.0113,4.0113,4.0113,4.0113,4.0113,4.0113,4.0079,3.991,3.9469,3.8802,3.8159,3.7922,3.7922,3.7922,3.7922,3.7889,3.7821,3.7212,3.622,3.4506,3.3072,3.1549,2.9247,2.8874,2.9416,3.0548,3.1379,3.3309,0.0,3.8328,3.8024,4.155,4.2395,4.2861,4.3876,4.4175,4.431,4.4581,4.4615,4.4615,4.4615,4.4615,4.4615,4.4615,4.4615,4.4615,4.4615,4.5196,4.5872,4.6616,4.797,4.9357,5.0777,5.1691,5.2503,5.3213,5.3416,5.3518,5.3518,5.3518,5.3518,5.3518,5.3518,5.3518,5.3518,5.3518,5.3518,5.3518,5.3518,5.3518,5.3518,5.3518,5.389,5.4465,5.4465,5.4465,5.4397,5.3754,5.3518,5.3518,1.5799,1.5799,1.5799,1.5799,1.5799,1.5799,1.5799,1.6486,1.7685,1.9578,2.0309,2.1203,2.277,2.265,2.2721,2.3292,2.8363,3.1781,3.2309,3.7201,4.0451,4.117,4.1508,4.2219,4.3375,4.3741,4.4113,4.4615,4.4615,4.4445,4.4079,4.3639,4.2861,4.1813,4.1407,4.0798,4.0113,4.0113,4.0113,4.0113,4.0113,4.0113,4.0113,4.0113,3.9639,3.8937,3.8633,3.8261,0.0,3.8396,3.8261,3.799,3.8396,3.7719,3.6491,3.4945,3.437,3.4303,3.4709,3.3546,3.2645,3.4607,3.5656,3.684,3.9343,3.9884,4.0493,4.2902,4.3775,4.4181,4.4547,4.4615,4.4615,4.4615,4.4615,4.4615,4.4615,4.4615,4.4615,4.4615,4.4959,4.5399,4.5867,4.6143,4.6989,4.8578,4.9695,5.0744,5.1792,5.257,5.3145,5.3484,5.3518,5.3518,5.3518,5.3518,5.3518,5.3518,5.3518,5.3518,5.3518,5.3518,5.3721,5.4126,5.4126,5.4397,5.4803,5.4803,5.4972,5.5243,5.5243,5.5243,5.5141,5.4397,5.3856,5.3551,1.5799,1.5799,1.5799,1.5799,1.5799,1.5799,1.5799,1.6159,1.6819,1.7868,1.8107,1.8312,1.8701,1.8562,1.8627,1.9159,2.4907,2.9111,3.0528,3.5837,3.9556,4.0832,4.0899,4.1407,4.2489,4.2489,4.276,4.3362,4.3362,4.3362,4.3362,4.276,4.2219,4.1644,4.1136,4.0595,4.0113,4.0113,4.0113,4.0113,4.0113,4.0113,4.0079,3.9876,3.9023,3.7947,3.827,3.7817,3.708,3.7131,3.6973,3.6811,3.7087,3.6558,3.5678,3.4742,3.4573,3.5013,3.6468,3.569,3.4979,3.7077,3.8768,3.9952,4.0155,4.1204,4.2455,4.3504,4.4181,4.4615,4.4615,4.4615,4.4615,4.4615,4.4615,4.4615,4.4615,4.4615,4.4682,4.4857,4.5534,4.6447,4.7597,4.753,4.824,5.0236,5.1082,5.1826,5.2604,5.3179,5.3518,5.3518,5.3518,5.3518,5.3518,5.3518,5.3518,5.3518,5.3518,5.3518,5.3518,5.3721,5.4093,5.46,5.4803,5.5209,5.5681,5.5681,5.5817,5.6021,5.6021,5.6021,5.5953,5.5412,5.4735,5.4194,1.5799,1.5799,1.5799,1.5799,1.5799,1.5799,1.5799,1.5829,1.6054,1.6682,1.6756,1.6786,1.6772,1.734,1.7997,1.8659,2.2549,2.6659,3.0616,3.4155,3.7318,4.002,4.0146,4.0146,4.0214,4.0214,4.0214,4.0248,4.0248,4.0248,4.0248,4.0214,4.018,4.018,4.0146,4.0113,4.0113,4.0113,4.0113,4.0113,4.0113,4.0113,4.0011,3.9309,3.7403,3.5252,3.6453,3.6055,3.4758,3.306,3.3146,3.3783,3.2791,3.2949,3.3626,3.4303,3.3512,3.2259,3.1596,3.2916,3.49,3.6457,3.9537,4.2388,4.3105,4.391,4.4513,4.4547,4.4581,4.4615,4.4615,4.4615,4.4615,4.4615,4.4615,4.4615,4.4615,4.4615,4.4886,4.5568,4.6312,4.7597,4.9763,4.9357,4.956,5.1082,5.186,5.2638,5.3416,5.3484,5.3518,5.3518,5.3518,5.3518,5.3518,5.3518,5.3518,5.3518,5.3518,5.3518,5.3518,5.4228,5.4566,5.4634,5.5378,5.5647,5.5681,5.5681,5.6122,5.6765,5.6765,5.6765,5.6765,5.6731,5.6292,5.5649,1.5799,1.5799,1.5799,1.5799,1.5799,1.5799,1.5799,1.5799,1.5888,1.6069,1.6099,0.0,0.0,0.0,0.0,0.0,2.1786,2.5112,2.737,3.1542,3.4718,3.6521,3.7451,3.8117,3.8553,3.9049,3.9315,3.9315,3.985,4.0113,4.0113,4.0113,4.0113,4.0113,4.0113,4.0113,4.0079,3.9605,3.9368,3.9309,3.8836,3.81,3.7353,3.7985,3.5721,3.2266,0.0,3.1526,3.0086,3.0013,2.9884,2.9779,2.9947,2.9494,2.9105,3.0116,3.1037,3.2214,3.4339,3.5825,3.7347,3.9817,4.1745,4.3234,4.4012,4.479,4.5331,4.5331,4.4519,4.3798,4.3798,4.3798,4.3798,4.3798,4.5076,4.6041,4.6041,4.6041,4.6143,4.638,4.7496,4.8748,4.9965,5.0338,5.1116,5.2604,5.2976,5.3213,5.3484,5.3518,5.3518,5.3518,5.3518,5.3518,5.3518,5.3518,5.3518,5.3518,5.3518,5.3754,5.4228,5.4465,5.5141,5.6055,5.6325,5.6697,5.7171,5.7171,5.7306,5.7509,5.7509,5.7509,5.7509,5.7509,5.7374,5.7103,0.0,1.6473,1.6398,1.6159,1.6129,0.0,0.0,0.0,0.0,0.0,0.0,0.0,0.0,0.0,0.0,0.0,0.0,2.2848,2.4941,2.8401,3.1253,3.3304,3.4014,3.4639,3.5326,3.5563,3.6055,3.6764,3.7492,3.8202,3.8949,3.9163,3.9294,3.9268,3.9028,3.8913,3.8849,3.7911,3.7644,3.7752,3.657,3.5602,3.4833,3.4915,3.2308,0.0,2.8221,2.6702,2.4996,2.605,2.6341,2.6318,2.667,2.6958,2.7414,2.8675,3.0347,3.257,3.6196,3.755,3.8599,4.1542,4.3064,4.4045,4.4823,4.5568,4.6075,4.6075,4.4273,4.2774,4.2977,4.2841,4.2488,4.193,4.3946,4.5589,4.5589,4.5589,4.598,4.706,4.8511,4.9695,5.0405,5.142,5.2435,5.345,5.3518,5.3518,5.3518,5.3518,5.3518,5.3518,5.3518,5.3518,5.3518,5.3518,5.3619,5.389,5.389,5.4431,5.5378,5.5649,5.6427,5.7611,5.7881,5.8254,5.8693,5.8693,5.8693,5.8693,5.8693,5.8693,5.8693,5.8693,5.8693,5.8592,0.0,0.0,1.7473,0.0,0.0,0.0,0.0,0.0,0.0,0.0,0.0,0.0,0.0,0.0,0.0,0.0,0.0,0.0,2.3299,2.4826,2.7074,3.0396,3.001,3.0042,3.072,3.0151,3.0778,3.2676,3.3297,3.4575,3.646,3.7082,3.7386,3.7354,3.6767,3.6491,3.6404,3.5098,3.4908,3.5326,3.3419,3.2571,3.2321,3.0419,2.7603,2.4575,2.3939,2.1966,1.9941,2.1536,2.2821,2.3732,2.3506,2.5696,2.8623,3.0084,3.1466,3.3267,3.6975,3.8091,3.887,4.1711,4.3565,4.4919,4.5602,4.6312,4.6786,4.6587,4.3762,4.1475,4.1819,4.1612,4.0852,3.9295,4.1645,4.3701,4.3701,4.3701,4.4767,4.7676,4.9289,5.0439,5.1151,5.2638,5.3518,5.3518,5.3518,5.3518,5.3518,5.3518,5.3518,5.3518,5.3518,5.3518,5.3518,5.3518,5.389,5.4668,5.46,5.5412,5.6934,5.7577,5.8321,5.9099,5.981,6.0114,6.0114,6.0114,6.0114,6.008,6.0005,6.0076,6.008,6.0005,6.0076,6.0013,0.0,0.0,0.0,0.0,0.0,0.0,0.0,0.0,0.0,0.0,0.0,0.0,0.0,0.0,0.0,0.0,0.0,0.0,1.9871,2.1725,2.3549,2.5391,2.6719,2.7738,2.8443,2.8803,2.9264,2.9777,3.0518,3.1157,3.1663,3.1825,3.1895,3.1949,3.2237,3.2399,3.2336,3.1459,3.1172,3.1172,2.9664,2.8437,2.7589,2.7996,2.5808,2.2586,2.3354,2.1933,1.9924,2.133,2.3668,2.6241,2.7695,2.9111,3.0446,3.1813,3.355,3.5579,3.8029,4.0324,4.232,4.3673,4.5156,4.6278,4.6481,4.709,4.6731,4.3556,4.1671,3.9473,3.5966,3.8201,4.0274,3.9383,4.3926,4.7561,4.7561,4.7561,4.8057,4.9359,5.0371,5.1217,5.1961,5.2909,5.3518,5.3518,5.3518,5.3518,5.3518,5.3518,5.3518,5.3518,5.3518,5.3518,5.3518,5.3518,5.416,5.5412,5.4871,5.5953,5.8457,5.8051,5.8592,5.9844,6.0013,6.0114,6.0114,6.0114,6.0114,6.0005,5.9125,5.9321,5.9967,5.9091,5.9321,6.0148,0.0,0.0,0.0,0.0,0.0,0.0,0.0,0.0,0.0,0.0,0.0,0.0,0.0,0.0,0.0,0.0,0.0,0.0,0.0,1.9134,2.0389,2.1395,2.2263,2.3011,2.3691,2.3804,2.4461,2.5619,2.6062,2.6904,2.8036,2.8297,2.8446,2.8478,2.8853,2.9002,2.8924,2.7946,2.7686,0.0,0.0,2.503,2.4399,2.4531,2.3021,2.0936,2.1635,2.2515,2.3599,2.555,2.7304,2.8776,2.9977,3.1175,3.2492,3.4177,3.5942,3.7776,3.9902,4.2151,4.4045,4.4513,4.594,4.6794,4.4933,4.5076,4.4327,3.9752,3.7443,3.5281,3.2195,3.5646,3.852,3.715,4.2864,4.751,4.751,4.751,4.8138,4.99,5.0744,5.1488,5.2232,5.3044,5.3518,5.3518,5.3518,5.3518,5.3518,5.3518,5.3518,5.3518,5.3518,5.3518,5.3518,5.416,5.4905,5.5681,5.5615,5.6934,5.9471,5.9066,5.9674,6.1095,6.1095,6.1095,6.1095,6.1095,6.1095,6.0979,5.9776,5.9735,6.0171,5.896,5.896,5.9597,0.0,0.0,0.0,0.0,0.0,0.0,0.0,0.0,0.0,1.6503,1.6218,1.6054,1.6054,1.6533,0.0,0.0,0.0,0.0,0.0,0.0,1.7818,1.8416,1.7968,1.7968,1.8553,1.7997,1.8835,2.1156,2.1156,2.2323,2.4567,2.5136,2.5439,2.5414,2.5523,2.553,2.5486,2.4321,2.4156,2.4537,2.2853,2.2164,2.2044,0.0,2.0198,1.9708,1.9798,2.3139,2.7936,3.0988,3.1997,3.2052,3.2341,3.3561,3.5314,3.7236,3.8547,3.9884,4.188,4.3498,4.4649,4.4852,4.6413,4.687,4.2812,4.2232,4.1034,3.5713,3.2542,3.0382,2.9218,3.3099,3.5991,3.4451,4.038,4.536,4.5978,4.5854,4.6839,4.9871,5.0715,5.1391,5.2401,5.3078,5.3518,5.3518,5.3518,5.3518,5.3518,5.3518,5.3484,5.3415,5.3415,5.3449,5.355,5.4831,5.5643,5.6021,5.6487,5.7938,6.025,5.991,6.0645,6.215,6.1991,6.1951,6.1951,6.1951,6.1951,6.1797,6.0586,6.0247,6.0204,5.8992,5.8677,5.8812,0.0,0.0,0.0,0.0,0.0,0.0,0.0,0.0,0.0,0.0,1.8386,1.737,0.0,0.0,0.0,0.0,0.0,0.0,0.0,0.0,0.0,1.7055,1.7473,1.7758,1.7878,1.7758,1.7938,1.8386,1.8386,1.8625,1.9074,1.9193,1.9234,1.9265,1.9834,2.0062,2.005,1.9834,1.9809,1.9869,1.954,1.939,1.942,1.975,1.9798,0.0,2.0318,2.2608,2.6029,3.0471,3.4587,3.8063,3.9763,4.0542,4.0897,4.1302,4.1557,4.1948,4.2963,4.3876,4.4886,4.6109,4.7158,4.711,4.4027,4.2599,3.9791,3.2439,3.0101,2.8246,2.4615,2.8436,3.2908,3.5459,3.9742,4.4131,4.7869,4.7078,4.7334,5.0618,5.0426,5.0893,5.3078,5.3416,5.3518,5.3518,5.3518,5.3518,5.3518,5.3518,5.3344,5.2993,5.2993,5.3291,5.3923,5.4188,5.5395,5.7509,5.6654,5.7925,6.1018,5.9011,5.9174,6.087,5.9827,5.9434,5.9434,5.9434,5.9434,5.9302,5.8131,5.8223,5.8992,5.7761,5.7946,5.8812,0.0,0.0,0.0,0.0,0.0,0.0,0.0,2.0288,2.1096,2.346,2.2921,2.1545,1.9492,1.8625,1.7938,0.0,0.0,0.0,0.0,0.0,0.0,0.0,0.0,0.0,1.6697,1.6697,1.6877,1.7174,0.0,1.6861,1.7174,1.7174,1.7174,1.7204,1.7878,1.8177,1.8207,1.8553,1.8702,1.8732,1.9061,1.9211,1.9258,0.0,0.0,0.0,2.0468,2.3161,2.6725,2.8668,3.3991,4.0053,4.1755,4.2286,4.2286,4.2286,4.2557,4.2963,4.3274,4.4282,4.5432,4.6515,4.6996,4.5865,4.0974,3.8683,3.5379,2.7331,2.5438,2.448,2.2094,2.6205,3.0766,3.3157,3.8155,4.2901,4.6252,4.642,4.7454,5.0788,4.9885,4.999,5.2424,5.2662,5.2662,5.2662,5.2662,5.2904,5.345,5.3308,5.2861,5.2118,5.2825,5.3182,5.3117,5.3902,5.5038,5.6433,5.5686,5.6716,5.9197,5.7826,5.7903,5.9145,5.892,5.8812,5.8812,5.8812,5.8812,5.8677,5.748,5.7339,5.7714,5.6493,5.6396,5.6927,0.0,0.0,0.0,0.0,0.0,0.0,0.0,2.2562,2.355,2.6991,2.7051,2.5578,2.2323,2.0647,1.9271,0.0,0.0,0.0,0.0,0.0,0.0,0.0,0.0,0.0,0.0,0.0,0.0,1.6517,1.6024,0.0,0.0,0.0,0.0,0.0,1.7443,1.7699,1.7712,1.8267,1.8493,0.0,0.0,1.9498,0.0,0.0,0.0,0.0,0.0,2.3152,2.6436,2.6954,3.1821,3.8012,4.0093,4.1372,4.2099,4.2099,4.2503,4.3042,4.3517,4.4553,4.5635,4.638,4.6388,4.445,3.7644,3.483,3.1426,2.3341,2.1455,2.1186,2.0976,2.4604,2.8411,3.0822,3.5823,4.0567,4.3859,4.481,4.6506,5.0159,4.9047,4.8941,5.1357,5.1561,5.1561,5.1561,5.1725,5.2152,5.2999,5.2748,5.2242,5.1501,5.2581,5.2889,5.2445,5.3639,5.4507,5.4992,5.4627,5.5352,5.6996,5.6454,5.6594,5.7446,5.786,5.8039,5.8039,5.8039,5.8039,5.7946,5.6991,5.6638,5.6493,5.5551,5.5179,5.5179,0.0,0.0,0.0,0.0,0.0,0.0,0.0,2.3977,2.5741,2.9624,2.8603,2.7136,2.6153,2.4328,2.1934,0.0,0.0,0.0,0.0,0.0,0.0,0.0,0.0,0.0,0.0,0.0,0.0,1.5888,1.5829,0.0,0.0,0.0,0.0,0.0,0.0,1.7699,1.7699,1.7758,0.0,0.0,0.0,0.0,0.0,0.0,0.0,0.0,0.0,2.0985,2.2041,2.6352,2.8356,2.9821,3.432,3.8366,4.1399,4.1399,4.1465,4.191,4.394,4.4615,4.4857,4.5635,4.5654,4.3725,3.6867,3.409,3.0828,2.3251,2.0737,2.0247,2.1395,2.2525,2.5155,3.0948,3.2698,3.5645,4.2398,4.2466,4.3506,4.8038,4.7681,4.7949,5.0307,5.055,5.055,5.055,5.1121,5.1474,5.1591,5.1577,5.1588,5.1778,5.189,5.2244,5.2847,5.3015,5.3581,5.4617,5.4166,5.4631,5.5836,5.4851,5.5066,5.614,5.5713,5.5501,0.0,5.5501,5.5501,5.5501,5.5431,5.5381,5.5381,5.5229,5.5179,5.5179,0.0,0.0,0.0,0.0,0.0,0.0,2.4298,2.4358,2.5711,3.0464,3.0073,2.8936,2.7919,2.6363,2.3759,1.966,0.0,0.0,0.0,0.0,0.0,0.0,0.0,0.0,0.0,0.0,1.6353,1.6353,1.6757,0.0,0.0,0.0,0.0,0.0,0.0,1.7699,1.7728,1.8117,0.0,0.0,0.0,0.0,0.0,0.0,0.0,0.0,0.0,0.0,2.1484,2.2583,2.5165,2.7906,2.8131,3.1304,3.5605,3.8943,4.0203,4.1001,4.3223,4.341,4.3333,4.4607,4.3124,4.0036,3.4972,3.1691,2.8082,2.2284,2.0348,2.0127,2.1455,2.1575,2.3098,2.7978,2.9531,3.1901,3.6916,3.9076,4.1473,4.4923,4.5708,4.668,4.8647,4.9205,4.9573,5.0012,5.0294,5.0497,5.0685,5.1285,5.1394,5.0834,5.1213,5.1592,5.188,5.188,5.244,5.3569,5.2717,5.2885,5.3997,5.3719,5.3856,5.4339,5.495,5.5179,0.0,5.5179,5.5179,5.5179,5.5179,5.5179,5.5179,5.5179,5.5179,5.5179,0.0,0.0,0.0,0.0,0.0,2.0976,2.4724,2.4687,2.5884,3.0584,3.0492,2.9594,2.8697,2.6692,2.414,2.0876,1.942,0.0,0.0,0.0,0.0,0.0,0.0,0.0,0.0,0.0,1.6995,1.6995,1.7669,1.7997,0.0,0.0,1.8296,1.8296,0.0,0.0,0.0,0.0,0.0,0.0,0.0,0.0,0.0,0.0,0.0,0.0,0.0,0.0,0.0,0.0,0.0,2.5731,2.3915,2.5925,3.0037,3.553,3.79,3.9264,4.1694,4.2166,4.227,4.3388,4.1055,3.7313,3.3208,2.9695,2.5997,2.1365,2.0019,2.0067,2.1186,2.1186,2.2173,2.5734,2.741,2.9592,3.327,3.6182,3.8918,4.158,4.2714,4.4097,4.6281,4.761,4.8653,4.9328,4.953,4.9826,5.0182,5.1091,5.1303,5.0511,5.0913,5.1229,5.1229,5.1229,5.1588,5.2395,5.1588,5.1635,5.2381,5.2765,5.2995,5.3234,5.4401,5.4999,0.0,5.5179,5.5179,5.5179,5.5179,5.5179,5.5179,5.5179,5.5179,5.5179,0.0,0.0,0.0,0.0,0.0,0.0,2.4126,2.5143,2.6782,3.0073,2.9415,2.8607,2.8607,2.5076,2.2733,2.2673,2.0228,0.0,0.0,0.0,0.0,0.0,0.0,0.0,0.0,0.0,1.7699,1.7699,1.8356,1.8702,1.8702,1.9378,1.9678,1.9678,0.0,0.0,0.0,0.0,0.0,0.0,0.0,0.0,0.0,0.0,0.0,0.0,0.0,0.0,0.0,0.0,0.0,0.0,0.0,2.361,2.5741,3.1259,3.4282,3.6462,3.9296,4.1019,4.1981,4.2013,3.985,3.6474,3.1873,2.8658,2.5285,2.0666,1.9708,1.9899,2.0569,2.1246,2.2562,2.5196,2.6746,2.8992,3.2946,3.4114,3.5522,3.8128,3.8487,3.9768,4.303,4.5753,4.7578,4.8281,4.894,4.9599,5.0166,5.084,5.1199,5.1199,5.1229,5.1229,5.1229,5.1229,5.1229,5.1229,5.1229,5.1229,5.1229,5.1917,5.2576,5.3204,5.3922,5.4581,0.0,5.5179,5.5179,5.5179,5.5179,5.5179,5.5179,5.5179,5.5179,5.5179,0.0,0.0,0.0,0.0,0.0,0.0,0.0,2.1621,2.2732,2.5531,2.5491,2.5384,2.5957,2.3684,2.201,2.1635,1.9893,0.0,0.0,0.0,0.0,0.0,0.0,0.0,0.0,0.0,1.921,1.9554,2.1227,2.1532,2.0566,2.136,2.102,1.9701,1.9705,1.9708,0.0,0.0,0.0,0.0,0.0,0.0,0.0,0.0,0.0,0.0,0.0,0.0,0.0,0.0,0.0,0.0,0.0,0.0,0.0,2.6296,2.9871,3.3295,3.5209,3.5974,3.6107,3.5768,3.3565,3.0752,2.7893,2.5546,2.3122,2.0277,1.9708,1.9899,2.0569,2.0498,2.1635,2.5615,2.6243,2.744,3.0971,3.4352,3.6626,3.7045,4.0666,4.3718,4.5173,4.695,4.8237,4.894,4.9553,5.0212,5.0823,5.1063,5.1229,5.1229,5.1229,5.1229,5.1229,5.1229,5.1229,5.1229,5.1229,5.1229,5.1229,5.1887,5.2306,5.2546,5.3204,5.3623,5.3803,5.3803,5.3803,5.3862,5.4341,5.4521,5.4581,5.5029,5.491,5.4521,0.0,0.0,0.0,0.0,0.0,0.0,0.0,1.9852,2.0649,2.2558,2.2489,2.2752,2.3976,2.1934,2.0649,2.1069,1.9377,0.0,0.0,0.0,0.0,0.0,0.0,0.0,0.0,1.871,1.9658,2.079,2.2363,2.2753,2.2059,2.3045,2.2282,2.0047,2.0045,1.9798,0.0,0.0,0.0,0.0,0.0,0.0,1.8607,0.0,0.0,0.0,0.0,0.0,0.0,0.0,0.0,0.0,0.0,0.0,0.0,0.0,2.589,2.9042,3.1542,3.2482,3.2615,3.2063,2.9867,2.738,2.5621,2.352,2.1515,2.0007,1.9708,1.9828,2.0258,2.0198,2.1096,2.4238,2.5016,2.6458,3.0013,3.3425,3.5878,3.6746,4.0965,4.4077,4.4766,4.6711,4.8177,4.888,4.9733,5.0375,5.0794,5.1079,5.1229,5.1229,5.1229,5.1229,5.1229,5.1229,5.1229,5.1229,5.1229,5.1229,5.1229,5.1648,5.1977,5.2217,5.2636,5.2965,0.0,5.3174,5.3174,5.3234,5.3653,5.3832,5.3862,5.4281,5.4162,5.3832,0.0,0.0,0.0,0.0,0.0,0.0,0.0,1.9509,2.0178,2.0757,2.0317,2.0645,2.2416,1.9869,1.8782,2.0606,0.0,0.0,0.0,0.0,0.0,0.0,0.0,0.0,1.8013,1.8155,1.929,2.1467,2.2269,2.2872,2.3286,2.4529,2.3513,2.0642,2.0666,1.9968,0.0,0.0,0.0,0.0,1.8092,1.8072,0.0,0.0,0.0,0.0,0.0,0.0,0.0,0.0,0.0,0.0,0.0,0.0,0.0,0.0,0.0,0.0,0.0,2.9983,3.0763,3.0043,2.8038,2.5914,2.4605,2.2452,0.0,1.9857,1.9708,1.9738,1.9828,2.0258,2.0946,2.1904,2.3528,2.6099,3.0133,3.2078,3.4233,3.7315,4.0038,4.1893,4.25,4.5484,4.7728,4.8386,4.9613,5.0255,5.0255,5.0853,5.1229,5.1229,5.1229,5.1229,5.1229,5.1229,5.1229,5.1229,5.1229,5.1229,5.1229,5.1229,5.1558,5.2127,5.2127,5.2486,5.3054,5.3054,5.3054,5.3054,5.3084,5.3114,5.3114,5.3174,5.3144,5.3114,0.0,0.0,0.0,0.0,0.0,0.0,0.0,0.0,0.0,0.0,1.8413,1.8597,1.8628,1.7938,1.7512,0.0,0.0,0.0,0.0,0.0,0.0,0.0,0.0,0.0,1.7497,1.8795,2.0347,2.2089,2.4259,2.5215,2.5052,2.6409,2.4988,2.1282,2.1229,2.0113,0.0,0.0,0.0,0.0,1.8092,1.7834,0.0,0.0,0.0,0.0,1.7814,1.8539,0.0,0.0,0.0,0.0,0.0,0.0,0.0,0.0,2.1137,2.1705,2.3161,0.0,2.5196,2.4059,2.331,2.2622,0.0,2.1137,2.0509,1.9857,1.9708,2.0007,2.1036,2.0498,2.1156,2.4837,2.5405,2.7111,3.2078,3.6118,3.902,4.0307,4.2761,4.4227,4.3898,4.686,4.9075,4.9687,5.0495,5.0943,5.0943,5.1139,5.1229,5.1229,5.1229,5.1229,5.1229,5.1229,5.1229,5.1229,5.1229,5.1229,5.1229,5.1229,5.1319,5.1439,5.1439,5.1528,5.1678,5.1678,5.1678,5.1738,5.2247,5.2426,5.2486,5.2995,5.2875,5.2426,0.0,0.0,0.0,0.0,0.0,0.0,0.0,0.0,0.0,0.0,0.0,1.725,1.6964,1.6942,0.0,0.0,0.0,0.0,0.0,0.0,0.0,0.0,0.0,1.6942,1.6942,1.8144,1.9913,2.2296,2.3974,2.5325,2.6399,2.7152,2.5524,2.1799,2.0223,1.874,0.0,0.0,0.0,1.7374,1.7374,0.0,0.0,0.0,0.0,0.0,1.7415,1.8036,0.0,1.999,2.0048,1.9841,0.0,0.0,0.0,0.0,1.9843,2.0225,2.0079,2.1559,2.2972,2.1934,2.1695,2.1515,2.0838,2.0449,2.0139,1.9768,1.9708,1.9917,2.0647,2.1665,2.2832,2.4118,2.7081,3.0642,3.4711,3.7973,4.0427,4.1722,4.3129,4.4287,4.5155,4.7399,4.9075,4.9733,5.0661,5.1229,5.1229,5.1229,5.1229,5.1229,5.1229,5.1229,5.1229,5.1229,5.1229,5.1229,5.1229,5.1229,5.1229,5.1229,5.1229,5.1229,5.1229,5.1229,5.1229,5.1229,5.1229,5.1259,5.1618,5.1738,5.1798,5.2157,5.2067,5.1738,0.0,0.0,0.0,0.0,0.0,0.0,0.0,0.0,0.0,0.0,0.0,0.0,0.0,0.0,0.0,0.0,0.0,0.0,0.0,0.0,0.0,0.0,0.0,1.6626,1.6876,1.73,1.9083,2.2322,2.3095,2.4757,2.7203,2.7595,2.5876,2.2263,1.9008,1.7153,0.0,0.0,1.65,1.65,1.65,0.0,0.0,0.0,0.0,0.0,0.0,0.0,0.0,2.0527,2.0505,1.986,2.0959,0.0,0.0,0.0,0.0,0.0,1.8691,2.0835,2.2981,2.1615,2.1357,2.1267,2.0688,2.0053,1.9617,1.969,1.9708,1.9947,2.0756,2.3221,2.4777,2.355,2.9325,3.4831,3.7375,3.905,4.0576,4.2081,4.262,4.3658,4.5813,4.7399,4.8596,4.9344,5.0451,5.1109,5.1199,5.1229,5.1229,5.1229,5.1229,5.1229,5.1229,5.1229,5.1229,5.1229,5.1229,5.1229,5.1229,5.1229,5.1229,5.1229,5.1229,0.0,5.1229,5.1229,5.1229,5.1229,5.1229,5.1229,5.1229,5.1229,5.1289,5.1379,0.0,0.0,0.0,0.0,0.0,0.0,0.0,0.0,0.0,0.0,0.0,0.0,0.0,0.0,0.0,0.0,0.0,0.0,0.0,0.0,0.0,1.7271,1.6795,1.7152,1.8581,1.8279,1.9459,2.2322,2.4255,2.5686,2.6675,2.9001,2.7555,2.2867,2.0015,1.7922,1.65,1.65,1.65,1.65,1.65,0.0,0.0,0.0,0.0,0.0,0.0,0.0,0.0,1.8045,1.8498,1.9073,1.8783,0.0,0.0,0.0,0.0,0.0,1.9998,2.3051,2.4924,2.044,1.9749,2.0128,1.9897,1.9409,1.9136,1.9617,1.9708,2.1055,2.5548,2.462,2.4829,3.0013,3.3754,3.6746,3.8811,4.1167,4.2432,4.1624,4.3509,4.4796,4.4646,4.683,4.8775,4.9956,5.0226,5.0584,5.1199,5.1229,5.1229,5.1229,5.1229,5.1229,5.1229,5.1229,5.1229,5.1229,5.1229,5.1229,5.1229,5.1229,5.1229,5.1229,0.0,5.1229,5.1229,5.1229,5.1229,5.1229,5.1229,5.1229,5.1229,5.1229,5.1558,5.2127,0.0,0.0,0.0,0.0,0.0,0.0,0.0,0.0,0.0,0.0,0.0,0.0,0.0,0.0,0.0,0.0,0.0,0.0,0.0,0.0,0.0,1.858,1.812,1.8205,1.8983,1.966,2.1317,2.4079,2.5711,2.7118,2.8284,2.7092,2.5001,2.2121,1.9008,1.7227,1.65,1.65,1.65,1.65,0.0,0.0,0.0,0.0,0.0,0.0,0.0,0.0,0.0,0.0,1.8662,1.898,1.8811,0.0,0.0,0.0,0.0,0.0,1.8397,2.0412,2.24,2.181,2.421,2.6692,2.6643,2.6163,2.5361,2.4216,2.3961,2.471,2.7136,2.8124,3.0672,3.7251,3.7584,3.7793,4.0157,4.0905,4.1384,4.1901,4.301,4.4167,4.5274,4.683,4.8297,4.9613,4.9986,5.0465,5.1169,5.1229,5.1229,5.1229,5.1229,5.1229,5.1229,5.1229,5.1229,5.1229,5.1229,5.1229,5.1229,5.1229,5.1229,5.1229,0.0,5.1229,5.1229,5.1229,5.1229,5.1259,5.1618,5.1738,5.1798,5.2157,5.2486,5.2815,0.0,0.0,0.0,0.0,0.0,0.0,0.0,0.0,0.0,0.0,0.0,0.0,0.0,0.0,0.0,0.0,0.0,0.0,0.0,0.0,1.7526,1.9359,1.9535,1.9885,2.0512,2.1568,2.3427,2.6189,2.7318,2.8599,2.9905,2.5653,2.2975,2.1543,1.8456,1.6876,1.65,1.65,1.65,1.65,0.0,0.0,0.0,0.0,0.0,0.0,0.0,0.0,0.0,0.0,0.0,0.0,0.0,0.0,0.0,1.7387,1.7481,1.7997,1.7441,1.872,2.0924,2.3682,2.6899,2.9885,3.184,3.1036,2.9669,2.87,2.8487,2.8584,2.8872,3.1901,3.6038,4.1107,3.9918,3.917,4.1504,4.0965,4.0905,4.244,4.289,4.3878,4.5873,4.683,4.7848,4.9209,4.9733,5.0315,5.1169,5.1229,5.1229,5.1229,5.1229,5.1229,5.1229,5.1229,5.1229,5.1229,5.1229,5.1229,5.1229,5.1229,5.1229,5.1229,5.1229,5.1229,5.1229,5.1229,5.1319,5.1498,5.2007,5.2306,5.2516,5.3174,5.3414,5.3503,0.0,0.0,0.0,0.0,0.0,0.0,0.0,0.0,0.0,0.0,0.0,0.0,0.0,0.0,0.0,0.0,0.0,0.0,0.0,0.0,1.7626,1.8279,2.0238,2.2498,2.5059,2.428,2.5159,2.7921,2.9051,2.993,3.0482,2.7042,2.428,2.2146,1.9835,1.7955,1.65,1.65,1.65,1.65,1.65,0.0,0.0,0.0,0.0,0.0,0.0,0.0,0.0,0.0,0.0,0.0,0.0,0.0,1.8276,1.8129,1.8135,1.8389,1.9306,2.1551,2.3954,2.524,2.2798,2.2101,2.9822,2.8326,2.6414,3.041,3.1212,3.1545,3.2573,3.5067,3.7132,3.7714,3.9679,4.1594,4.2961,4.308,4.305,4.32,4.4347,4.5155,4.5334,4.6531,4.7848,4.9209,4.9359,4.9883,5.1139,5.1229,5.1229,5.1229,5.1229,5.1229,5.1229,5.1229,5.1229,5.1229,5.1229,5.1229,5.1229,5.1229,5.1229,5.1229,5.1229,5.1229,5.1229,5.1229,5.1588,5.2127,5.2187,5.2576,5.3204,5.3892,5.4132,5.4221,0.0,0.0,0.0,0.0,0.0,0.0,0.0,0.0,0.0,0.0,0.0,0.0,0.0,0.0,0.0,0.0,0.0,0.0,0.0,1.6701,1.7702,1.9686,2.0893,2.2623,2.5059,2.6389,2.8072,3.0156,3.0256,2.988,2.8976,2.5285,2.2749,2.1194,1.8606,1.73,1.7024,1.6651,1.6722,1.7024,1.6651,1.65,0.0,0.0,0.0,0.0,0.0,0.0,0.0,0.0,1.73,1.7802,1.73,1.7854,1.8481,1.7428,1.7406,1.7718,1.7723,2.058,2.3705,2.4504,2.3953,2.522,3.292,3.3914,3.3427,3.4134,3.5422,3.6,3.4695,3.8018,4.0436,3.8708,4.0774,4.2761,4.323,4.329,4.329,4.329,4.4137,4.4855,4.5244,4.6142,4.7249,4.8566,4.87,4.9224,5.0495,5.0554,5.0764,5.1199,5.1229,5.1229,5.1229,5.1229,5.1229,5.1229,5.1229,5.1229,5.1229,5.1229,5.1229,5.1229,5.1229,5.1229,5.1259,5.1648,5.1977,5.2276,5.3114,5.3832,5.4461,5.473,5.482,5.485,0.0,0.0,0.0,0.0,0.0,0.0,0.0,0.0,0.0,0.0,0.0,0.0,0.0,0.0,0.0,0.0,0.0,0.0,1.65,1.6697,1.7727,1.9837,2.0943,2.2447,2.4506,2.7408,2.9439,3.0608,3.0608,2.9679,2.777,2.4406,2.2347,2.1317,1.8706,1.7877,1.8378,1.7451,1.7174,1.7348,1.6748,1.65,0.0,0.0,0.0,0.0,0.0,0.0,0.0,0.0,1.7174,1.7601,1.7152,1.7704,1.8281,1.7303,1.7953,1.8955,1.8905,2.0724,2.3205,2.5382,2.5688,2.7397,3.4884,3.6499,3.6807,3.8055,3.8848,3.8789,3.7174,3.9622,4.142,3.9795,4.1626,4.329,4.329,4.329,4.329,4.329,4.4107,4.4796,4.5244,4.6112,4.71,4.8207,4.8297,4.8775,4.9883,5.0076,5.0405,5.0853,5.1109,5.1229,5.1229,5.1229,5.1229,5.1229,5.1229,5.1229,5.1229,5.1229,5.1229,5.1229,5.1229,5.1349,5.1558,5.2007,5.2456,5.2935,5.4072,5.479,5.5179,5.5179,5.5179,5.5179,0.0,0.0,0.0,0.0,0.0,0.0,0.0,0.0,0.0,0.0,0.0,0.0,0.0,0.0,0.0,0.0,0.0,0.0,1.65,1.7049,1.7626,1.8179,2.0313,2.2246,2.3929,2.7157,2.8838,2.8888,3.0055,2.9453,2.7193,2.5008,2.3647,2.2995,2.079,2.0112,2.0566,1.8882,1.7877,1.7348,1.6748,1.65,1.65,0.0,0.0,0.0,0.0,0.0,0.0,0.0,1.6999,1.6701,1.7827,1.7827,1.7524,1.8028,2.0137,2.2531,2.3714,2.2821,2.2902,2.846,2.7415,2.7043,3.4811,3.4451,3.4518,4.1799,4.1057,3.9399,4.0248,3.9702,3.9399,4.0248,4.2004,4.329,4.329,4.329,4.329,4.329,4.4496,4.5274,4.5304,4.6501,4.7578,4.8237,4.8267,4.8566,4.9269,4.9883,5.0196,5.0196,5.0823,5.1199,5.1199,5.1229,5.1229,5.1229,5.1229,5.1229,5.1229,5.1229,5.1229,5.1229,5.1229,5.1588,5.2187,5.2217,5.2995,5.4281,5.494,5.5179,5.5179,5.5179,5.5179,5.5179,0.0,0.0,0.0,0.0,0.0,0.0,0.0,0.0,0.0,0.0,0.0,0.0,0.0,0.0,0.0,0.0,0.0,0.0,1.65,1.6651,1.7024,1.7601,1.9334,2.0363,2.0462,2.2945,2.5778,2.8888,2.8875,2.7519,2.4958,2.3847,2.2673,2.1368,2.0742,1.9887,1.8882,1.8003,1.7549,1.7398,1.7222,1.6873,1.655,0.0,0.0,0.0,0.0,0.0,0.0,0.0,0.0,0.0,1.7027,1.7978,1.8731,1.6948,1.8105,1.9737,1.8518,2.2719,2.6948,2.5031,2.9481,3.4609,3.5719,3.6273,3.7835,4.2395,4.1411,3.9664,3.9496,4.0899,4.1488,3.9756,4.1626,4.329,4.329,4.329,4.329,4.329,4.4077,4.4796,4.5244,4.6112,4.689,4.7549,4.7608,4.8087,4.9239,4.9015,4.9284,5.0166,5.0375,5.0495,5.0495,5.0943,5.1229,5.1229,5.1229,5.1229,5.1229,5.1229,5.1229,5.1259,5.1708,5.2007,5.2276,5.3234,5.4132,5.491,5.5119,5.5179,5.5179,5.5179,5.5179,5.5179,0.0,0.0,0.0,0.0,0.0,0.0,0.0,0.0,1.65,1.65,1.65,1.65,0.0,0.0,0.0,1.65,1.65,0.0,1.65,1.65,1.6851,1.7677,1.8857,1.9835,2.0613,2.2368,2.418,2.5963,2.6314,2.5385,2.3326,2.3622,2.3376,2.2678,2.2904,2.2074,2.0464,1.9685,1.8832,1.8028,1.8028,1.7702,1.7225,0.0,0.0,0.0,0.0,0.0,0.0,0.0,0.0,0.0,1.6296,1.6948,1.7827,1.7725,1.9258,2.1335,2.2909,2.6519,2.9869,2.9943,3.3521,3.727,3.8438,3.9518,4.0849,4.2882,4.2238,4.1175,4.0832,4.2139,4.2743,4.1057,4.2169,4.329,4.329,4.329,4.329,4.329,4.3858,4.4556,4.5214,4.5933,4.6591,4.7249,4.7309,4.7638,4.8446,4.8356,4.8656,4.9434,4.9927,5.0196,5.0196,5.0853,5.1229,5.1229,5.1229,5.1229,5.1229,5.1229,5.1229,5.1259,5.2187,5.2755,5.3084,5.4162,5.485,5.5179,5.5179,5.5179,5.5179,5.5179,5.5179,5.5179,0.0,0.0,0.0,0.0,0.0,0.0,0.0,1.65,1.65,1.65,1.65,1.65,0.0,0.0,0.0,1.65,1.65,1.65,1.65,1.655,1.7074,1.8154,1.8807,2.0337,2.2895,2.3847,2.3351,2.1267,2.3,2.3301,2.2272,2.3973,2.5084,2.5536,2.6047,2.5317,2.3627,2.2372,2.0663,1.8782,1.8882,1.8556,1.8053,1.8154,0.0,0.0,0.0,0.0,0.0,0.0,0.0,0.0,1.5693,1.5412,1.5713,1.9158,2.1923,2.5262,3.1858,3.1905,3.1785,3.8876,3.7913,3.6636,4.2061,4.321,4.317,4.329,4.329,4.329,4.329,4.329,4.329,4.329,4.329,4.329,4.329,4.329,4.329,4.329,4.3828,4.4496,4.5214,4.5873,4.6531,4.7249,4.7309,4.7339,4.7399,4.7908,4.8237,4.8297,4.9434,5.0046,5.0106,5.075,5.1109,5.1229,5.1169,5.1169,5.1229,5.1229,5.1289,5.1468,5.2665,5.3623,5.4341,5.494,5.5179,5.5179,5.5179,5.5179,5.5179,5.5179,5.5179,5.5179,0.0,0.0,0.0,0.0,0.0,0.0,1.65,1.65,1.65,1.65,1.65,1.65,1.65,1.65,0.0,1.65,1.65,1.65,1.65,1.6948,1.7501,1.8179,1.956,2.0817,2.182,2.1217,2.0439,1.9534,2.1644,2.2322,2.1719,2.3828,2.485,2.4951,2.4657,2.3382,2.1295,1.9309,1.7903,1.7127,1.8005,1.7777,1.6951,1.7877,1.7478,0.0,0.0,0.0,0.0,0.0,0.0,0.0,1.5693,1.5919,1.6145,1.6141,1.9233,2.2816,2.3577,2.8001,3.2646,3.3401,3.5521,3.8464,4.2412,4.2589,4.2193,4.313,4.329,4.329,4.329,4.329,4.329,4.329,4.329,4.329,4.329,4.329,4.329,4.329,4.3409,4.4018,4.5185,4.5424,4.6022,4.7219,4.7309,4.7519,4.8057,4.7728,4.7758,4.8267,4.8566,4.8955,4.9464,4.9613,5.0212,5.1199,5.0644,5.0674,5.1229,5.1229,5.1768,5.2785,5.3054,5.3862,5.4999,5.5119,5.5179,5.5179,5.5179,5.5179,5.5179,5.5179,5.5179,5.5179,0.0,0.0,0.0,0.0,0.0,0.0,0.0,0.0,1.65,1.65,1.65,1.65,1.65,1.65,0.0,0.0,1.65,1.65,1.65,1.6798,1.7451,1.8531,2.0439,2.1217,2.069,2.0112,1.9284,1.8229,1.9384,2.0338,2.1169,2.31,2.4399,2.5159,2.4632,2.315,2.0993,1.9585,1.848,1.7754,1.8331,1.823,1.7729,1.8055,1.7478,1.65,1.65,0.0,0.0,0.0,0.0,0.0,0.0,0.0,1.5613,1.687,1.8907,2.1579,2.5593,2.9269,3.25,3.4899,3.6832,3.8845,4.1794,4.2029,4.1753,4.2386,4.29,4.329,4.329,4.329,4.329,4.329,4.329,4.329,4.329,4.329,4.329,4.329,4.329,4.3798,4.5155,4.5304,4.5843,4.7189,4.7309,4.7459,4.7788,4.7489,4.7459,4.7818,4.8117,4.8446,4.885,4.9149,4.9613,5.0272,5.0196,5.0524,5.1229,5.1229,5.1768,5.2725,5.3054,5.3773,5.476,5.5059,5.5179,5.5179,5.5179,5.5179,5.5179,5.5179,5.5179,5.5179,0.0,0.0,0.0,0.0,0.0,0.0,0.0,0.0,0.0,1.65,1.65,1.65,1.65,1.65,1.65,0.0,0.0,0.0,1.65,1.6676,1.7453,1.8933,2.0838,2.1217,1.9836,1.961,1.8857,1.7549,1.7448,1.858,2.0867,2.2297,2.3847,2.5435,2.4607,2.3175,2.132,2.0365,1.9434,1.8581,1.8682,1.8657,1.8531,1.8103,1.7275,1.635,1.6249,1.6274,1.635,1.635,0.0,0.0,0.0,0.0,1.4752,1.8103,1.9108,2.0879,2.8864,3.0842,3.2041,3.8066,3.8693,3.8424,4.076,4.1295,4.1378,4.1545,4.2508,4.329,4.329,4.329,4.329,4.329,4.329,4.329,4.329,4.329,4.329,4.329,4.3379,4.3917,4.5185,4.5394,4.5992,4.7219,4.7309,4.7309,4.7309,4.7309,4.7309,4.7309,4.7848,4.8177,4.8297,4.876,4.909,4.9329,4.9912,5.0524,5.1229,5.1229,5.1588,5.2247,5.2905,5.3563,5.4251,5.491,5.5179,5.5179,5.5179,5.5179,5.5179,5.5179,5.5179,5.5179,0.0,0.0,0.0,0.0,0.0,0.0,0.0,0.0,0.0,0.0,1.65,1.65,1.65,1.65,1.65,1.65,1.65,1.65,1.65,0.0,0.0,1.8983,1.971,2.0037,1.9811,1.8882,1.8304,1.8103,1.7649,1.8781,2.1393,2.2096,2.3296,2.48,2.2824,2.1521,2.0641,1.8129,1.6977,1.6876,1.74,1.73,1.6826,1.6751,1.6325,1.5743,1.5286,1.5412,1.5793,1.5793,1.5743,0.0,0.0,0.0,1.4374,1.5839,1.7877,2.0063,2.1868,2.64,3.1838,3.7016,3.7448,3.7243,3.9579,4.0102,4.0404,4.1378,4.2508,4.329,4.329,4.329,4.329,4.329,4.329,4.329,4.329,4.329,4.329,4.329,4.3798,4.4466,4.5214,4.5843,4.6501,4.7249,4.7309,4.7309,4.7309,4.7309,4.7309,4.7309,4.7399,4.7698,4.8267,4.7818,4.8147,4.9329,4.9912,5.0524,5.1229,5.1229,5.1588,5.2247,5.2905,5.3563,5.4251,5.491,5.5179,5.5179,5.5179,5.5179,5.5179,5.5179,5.5179,5.5179,0.0,0.0,0.0,0.0,0.0,0.0,0.0,0.0,0.0,0.0,0.0,1.65,1.65,1.65,1.65,1.65,1.65,1.65,1.65,1.7275,1.7852,1.8103,1.8631,1.8756,1.8455,1.7978,1.7576,1.725,1.7024,1.8304,2.1069,2.1594,2.2924,2.4675,2.2171,2.0742,2.0012,1.7551,1.6697,1.6999,1.6923,1.8053,1.9484,1.6999,1.7074,1.8202,1.5764,1.5236,1.5693,1.5693,1.5894,1.6045,1.5462,0.0,0.0,0.0,1.5864,1.8077,2.2678,2.7429,3.2177,3.6917,3.7243,3.7036,3.936,3.936,3.9404,4.1253,4.1988,4.2548,4.317,4.329,4.329,4.329,4.329,4.329,4.329,4.329,4.329,4.329,4.3858,4.4556,4.5214,4.5933,4.6591,4.7249,4.7309,4.7309,4.7309,4.7309,4.7309,4.7309,4.7309,4.7429,4.7728,4.7459,4.7788,4.876,4.9374,5.0032,5.0644,5.105,5.1379,5.1708,5.2725,5.3354,5.3713,5.476,5.5179,5.5179,5.5179,5.5179,5.5179,5.5179,5.5179,5.5179,0.0,0.0,0.0,0.0,0.0,0.0,0.0,0.0,0.0,0.0,0.0,1.65,1.65,0.0,0.0,0.0,1.65,1.65,1.65,1.6923,1.7174,1.7174,1.7551,1.7576,1.7174,1.7174,1.6948,1.65,1.6651,1.8229,2.1119,2.1644,2.31,2.5134,2.2472,2.0815,1.9886,1.7804,1.7275,1.7802,1.7777,1.951,2.182,1.9208,1.9786,2.1421,1.7398,1.6392,1.682,1.5839,1.5944,1.6325,1.5412,1.5009,0.0,0.0,0.0,1.6212,2.313,2.6725,2.9732,3.5098,3.5776,3.5805,3.8417,3.8514,3.8577,4.0376,4.1211,4.1864,4.271,4.313,4.329,4.329,4.329,4.329,4.329,4.329,4.329,4.329,4.4047,4.4766,4.5244,4.6082,4.677,4.7279,4.7309,4.7309,4.7309,4.7309,4.7309,4.7309,4.7309,4.7309,4.7309,4.7309,4.7638,4.8297,4.9,4.9613,5.0226,5.0883,5.1229,5.1289,5.2606,5.3174,5.3294,5.464,5.5179,5.5179,5.5179,5.5179,5.5179,5.5179,5.5179,5.5179,0.0,0.0,0.0,0.0,0.0,0.0,0.0,0.0,0.0,0.0,0.0,1.65,1.65,1.65,1.65,1.65,1.65,1.65,1.65,1.6525,1.655,1.655,1.6575,0.0,1.655,1.655,1.6525,1.65,1.7074,1.9007,2.2246,2.2769,2.423,2.6323,2.4004,2.2121,2.0541,1.8832,1.8406,1.9058,2.0614,2.1343,2.1794,2.418,2.5184,2.4757,2.0362,1.951,1.9862,1.6166,1.5643,1.64,1.5844,1.5311,1.4884,0.0,0.0,0.0,1.9736,2.0717,2.225,2.9831,3.1678,3.2508,3.5814,3.7381,3.8107,3.8243,4.0074,4.1629,4.167,4.2548,4.329,4.329,4.329,4.329,4.329,4.329,4.329,4.329,4.4466,4.5244,4.5304,4.6471,4.7279,4.7309,4.7309,4.7309,4.7309,4.7309,4.7309,4.7309,4.7309,4.7309,4.7309,4.7309,4.7638,4.8297,4.9,4.9613,5.0226,5.0883,5.1229,5.1289,5.2606,5.3174,5.3294,5.464,5.5179,5.5179,5.5179,5.5179,5.5179,5.5179,5.5179,5.5179,0.0,0.0,0.0,0.0,0.0,0.0,0.0,0.0,0.0,0.0,0.0,0.0,0.0,1.65,1.65,1.65,1.65,1.65,1.65,1.65,1.65,1.65,1.65,1.65,1.65,1.65,1.65,1.65,1.6722,1.8154,2.0715,2.1644,2.2874,2.428,2.3095,2.2071,2.1043,1.8279,1.7451,1.8179,2.0539,2.2803,2.4714,2.4607,2.6339,2.8197,2.3346,2.1242,2.049,1.9082,1.7677,1.635,1.5442,1.4828,1.4173,1.3116,1.3418,1.4828,1.8202,1.9962,2.197,2.654,2.9553,3.1934,3.3923,3.5716,3.7428,3.8961,3.9288,3.9814,4.1337,4.2548,4.329,4.329,4.329,4.329,4.329,4.329,4.3439,4.3858,4.4766,4.5454,4.5903,4.677,4.7309,4.7309,4.7309,4.7309,4.7309,4.7309,4.7309,4.7309,4.7309,4.7309,4.7309,4.7309,4.7429,4.7668,4.8327,4.8985,4.9643,5.0301,5.105,5.1887,5.2785,5.3174,5.3294,5.464,5.5179,5.5179,5.5179,5.5179,5.5179,5.5179,5.5179,5.5179,0.0,0.0,0.0,0.0,0.0,0.0,0.0,0.0,0.0,1.65,0.0,0.0,0.0,0.0,1.65,1.65,1.65,1.65,1.65,1.65,1.65,1.65,1.65,1.65,1.65,1.6325,1.6321,1.65,1.65,1.7629,1.9836,2.0966,2.2071,2.307,2.2171,2.187,2.187,1.9284,1.8304,1.8806,2.2297,2.4356,2.5485,2.6816,2.8348,2.9327,2.5954,2.3979,2.2854,2.2476,2.1245,1.9459,1.7247,1.516,1.3292,1.1992,1.2646,1.4205,1.6045,1.7877,2.0138,2.3627,2.6163,2.8746,3.237,3.3947,3.5474,3.8166,3.8379,3.8693,4.0703,4.1947,4.286,4.325,4.329,4.329,4.329,4.329,4.3529,4.4227,4.4885,4.5574,4.6219,4.692,4.7309,4.7309,4.7309,0.0,4.7309,4.7309,4.7309,4.7309,4.7309,4.7309,4.7309,4.7309,4.7309,4.7309,4.7967,4.8506,4.9,4.9823,5.0794,5.1917,5.2785,5.3324,5.3623,5.473,5.5179,5.5179,5.5179,5.5179,5.5179,5.5179,5.5179,5.5179,0.0,0.0,0.0,0.0,0.0,0.0,0.0,0.0,1.6525,1.655,0.0,0.0,0.0,0.0,0.0,1.655,1.655,1.6525,1.65,1.65,1.65,1.65,1.65,1.65,1.65,1.5994,1.5994,1.65,1.65,1.7626,1.9761,2.0865,2.197,2.2945,2.1368,2.1518,2.292,2.182,2.1119,2.1119,2.6013,2.6079,2.4048,3.116,3.1562,2.8348,2.8323,2.7896,2.7193,2.6113,2.6021,2.5519,2.1041,1.6321,1.2328,1.1751,1.2363,1.3223,0.0,0.0,0.0,2.0865,2.1343,2.2778,3.0899,3.1938,3.2231,3.5621,3.718,3.8317,3.9667,4.0788,4.1947,4.3061,4.329,4.329,4.3319,4.3319,4.3589,4.4287,4.4945,4.5603,4.6249,4.692,4.7309,4.7309,4.7309,4.7309,4.7309,4.7309,4.7309,4.7309,4.7309,4.7309,4.7309,4.7309,4.7309,4.7309,4.7967,4.8267,4.8327,4.9613,5.0554,5.1319,5.2606,5.3593,5.4281,5.494,5.5179,5.5179,5.5179,5.5179,5.5179,5.5179,5.5179,5.5179,0.0,0.0,0.0,0.0,0.0,1.7149,1.7149,1.7149,1.7275,0.0,0.0,0.0,1.7174,1.7501,1.7752,1.7752,1.7752,1.7378,1.655,1.65,1.65,1.65,1.65,1.65,1.65,1.635,1.635,1.65,1.65,1.7049,1.8102,1.8781,1.9685,2.069,2.0238,2.0288,2.0589,1.8706,1.8957,2.0943,2.3929,2.6013,2.7684,3.1311,3.3269,3.4016,3.3169,3.126,2.9176,2.9628,2.6163,2.0941,1.6945,1.4438,1.2814,1.1876,1.2671,1.3677,1.2856,0.0,0.0,0.0,0.0,0.0,2.3507,2.6072,2.9048,3.3231,3.3937,3.5098,3.9152,4.0145,4.0746,4.1906,4.278,4.3469,4.3988,4.4007,4.4426,4.5633,4.5933,4.6292,4.698,4.7189,4.7309,0.0,4.7309,4.7309,4.7309,4.7309,4.7309,4.7309,4.7309,4.7309,4.7309,4.7309,4.7309,4.7309,4.7489,4.7818,4.8327,4.9164,5.0421,5.1977,5.2815,5.3832,5.494,5.5119,5.5179,5.5179,5.5179,5.5179,5.5179,5.5179,5.5179,5.5179,0.0,0.0,1.6948,1.7152,1.7877,1.838,1.838,1.838,1.8505,0.0,0.0,0.0,1.8405,1.9108,1.9309,1.8581,1.8329,1.7827,1.6948,1.6626,1.65,1.65,1.65,1.65,1.65,1.6274,1.6296,1.65,1.6296,1.6471,1.7024,1.7601,1.8204,1.8781,1.8781,1.8932,1.9032,1.725,1.7852,2.0363,2.4682,2.6741,2.7659,3.1947,3.3621,3.379,3.4726,3.3219,3.111,3.3119,2.8649,2.1794,1.9334,1.6267,1.3408,1.2513,1.33,1.4249,1.335,1.4381,1.5643,1.5507,0.0,0.0,2.2879,2.5016,2.7744,3.3374,3.4219,3.5153,3.9163,3.9492,3.9793,4.1638,4.2561,4.3312,4.4176,4.4556,4.5125,4.616,4.6279,4.6591,4.7249,4.7309,4.7309,4.7309,4.7309,4.7309,4.7309,4.677,4.6726,4.7266,4.677,4.677,4.7309,4.7309,4.7309,4.7309,4.7309,4.7489,4.7908,4.8566,4.9793,5.1439,5.2366,5.3533,5.479,5.5089,5.5179,5.5179,5.5179,5.5179,5.5179,5.5179,5.5179,5.5179,0.0,0.0,1.77,1.8279,1.9284,2.0037,2.0162,2.0112,2.0137,0.0,1.9911,1.981,2.0464,2.1217,2.1091,1.9584,1.8782,1.8129,1.7549,1.6873,1.65,1.65,1.65,1.65,1.65,1.6045,1.6019,1.65,1.6019,1.6045,1.65,1.7049,1.7297,1.7297,1.7297,1.7551,1.7953,1.7074,1.7754,2.0011,2.6465,2.762,2.6154,3.28,3.3376,3.116,3.4555,3.443,3.3068,3.5604,3.1888,2.6013,2.4757,2.0239,1.513,1.3767,1.4412,1.5356,1.4443,1.4959,1.5994,1.6895,1.6091,0.0,2.4858,2.5561,2.6499,3.3359,3.471,3.5461,3.8039,3.765,3.7741,4.0334,4.142,4.2486,4.4109,4.4952,4.5663,4.6309,4.6399,0.0,4.7249,4.7309,4.7309,4.7309,4.7309,4.7266,4.7106,4.6166,4.6077,4.7062,4.6121,4.6121,4.7062,4.7062,4.7062,4.7062,4.7062,4.7062,4.7135,4.8013,4.9105,5.0375,5.1595,5.2811,5.4092,5.4738,5.5027,5.5179,5.5179,5.5179,5.5179,5.5179,5.5179,5.5179,1.7777,1.7978,1.8355,1.9334,2.0413,2.1468,2.2318,2.2067,2.2322,2.3647,2.3376,2.3577,2.5041,2.3753,2.2669,2.2343,2.0589,1.9083,1.8103,1.7052,1.65,1.65,1.65,1.65,1.65,1.64,1.64,1.65,1.64,1.64,1.65,1.66,1.6697,1.6697,1.6697,1.6726,1.6876,1.7576,1.9559,2.2418,2.3847,2.643,2.9829,3.3018,3.5127,3.6508,3.7262,3.6684,3.5223,3.2717,3.116,2.9227,2.3356,2.2351,2.2196,1.6292,1.6945,1.8856,1.5633,1.5537,1.6195,1.5537,1.5793,0.0,1.7297,1.7877,1.9456,2.3627,2.4098,2.5006,2.9067,2.9639,2.9665,3.0248,3.4548,3.9369,4.3748,4.5398,4.6381,4.704,0.0,0.0,4.7309,4.7309,4.7309,4.7309,4.7309,4.6844,4.5824,4.6506,4.6594,4.5779,4.655,4.655,4.5779,4.5779,4.5779,4.5779,4.5779,4.5779,4.5882,4.8104,4.9793,5.0986,5.1169,5.1998,5.3239,5.3355,5.4119,5.5179,5.5179,5.5179,5.5179,5.5179,5.5179,5.5179,1.8103,1.8631,1.9434,2.0815,2.2221,2.3527,2.4632,2.4556,2.4682,2.5536,2.5887,2.6038,2.6072,2.5285,2.4356,2.3195,2.1343,1.9786,1.8657,1.7576,1.6823,1.65,1.65,1.65,1.65,1.65,1.65,1.65,1.65,1.65,1.65,1.65,1.7528,1.9309,1.7353,1.7578,1.9284,1.7929,1.8632,2.0989,2.4883,2.895,3.2968,3.573,3.7638,3.8843,3.8843,3.8316,3.7285,3.4726,3.224,2.9729,2.7218,2.5485,2.3552,1.9384,1.9585,2.0314,1.6672,1.6095,1.6425,1.6216,1.612,0.0,0.0,1.8154,1.918,2.2866,2.2908,2.3313,2.636,2.6268,2.608,2.7202,3.2463,3.649,3.676,4.1511,4.5267,4.6226,0.0,0.0,4.7266,4.6726,4.6121,4.5434,4.5958,4.5779,4.4489,4.4442,4.4442,4.4442,4.4442,4.4794,4.5389,4.4794,4.4794,4.5389,4.4794,4.4794,4.5417,4.6368,4.7677,4.9216,4.938,5.0005,5.1014,5.1581,5.2266,5.3121,5.4611,5.5179,5.5179,5.5179,5.5179,5.5179,1.8355,1.9309,2.0464,2.2046,2.3703,2.5184,2.6323,2.6499,2.6524,2.665,2.7846,2.8273,2.7017,2.7429,2.7052,2.5176,2.3452,2.1769,2.0211,1.9007,1.8179,1.7779,1.6951,1.6851,1.7603,1.6876,1.65,1.65,1.64,1.635,1.635,1.635,1.8005,2.0941,1.8632,1.9083,2.1368,1.8832,1.8782,2.0966,2.7143,3.0909,3.3219,3.6985,3.8542,3.8818,3.9471,3.9346,3.8693,3.7186,3.3671,2.9941,3.0608,2.8147,2.4499,2.192,2.192,2.1945,1.8155,1.7202,1.735,1.7501,1.7021,1.7149,0.0,0.0,0.0,2.2623,2.2523,2.2385,2.3839,2.2933,0.0,0.0,0.0,0.0,0.0,3.479,0.0,4.2482,0.0,0.0,0.0,4.4805,4.3922,4.3515,4.3658,4.3591,4.3163,4.2398,4.2301,4.3122,4.235,4.2834,4.4627,4.3646,4.3646,4.4627,4.3646,4.3693,4.4656,4.4649,4.5511,4.707,4.7612,4.8161,4.8735,4.983,5.0268,5.0546,5.3279,5.4355,5.4355,5.4355,5.4355,5.4355,1.9334,2.0163,2.0968,2.2096,2.3703,2.5184,2.6323,2.6499,2.6675,2.7153,2.9428,3.1135,3.1436,3.1989,3.2256,3.1964,2.998,2.7444,2.4324,2.2648,2.1945,2.2343,1.8581,1.8105,2.1594,1.8255,1.65,1.65,1.6019,1.5793,1.5793,1.5793,1.6019,1.6597,2.0087,2.0539,1.8832,2.129,2.47,2.8499,2.8875,2.7759,2.648,3.1813,3.4449,3.568,3.8642,3.9346,3.8517,3.5881,3.4248,3.2441,2.7293,2.8549,3.0382,2.2347,2.3477,2.6189,2.0865,1.9837,1.9887,1.8455,1.8731,1.8681,1.6216,0.0,1.5869,1.482,0.0,1.4651,1.5356,0.0,0.0,0.0,0.0,0.0,2.0372,2.5339,3.0049,3.244,0.0,0.0,0.0,3.9929,4.0631,4.3313,3.9997,3.9031,4.1674,4.2738,4.2834,4.1838,4.2786,4.2882,4.2035,4.1887,4.1887,4.2035,4.1887,4.1887,4.2137,4.4698,4.6067,4.6439,4.7189,4.7645,4.7891,4.8497,4.8762,4.8908,5.0546,5.1208,5.1208,5.1208,5.1208,5.1208,1.9083,2.0062,2.1043,2.2121,2.3703,2.5184,2.6323,2.7268,2.7971,2.8197,2.9528,3.0557,3.0783,3.0432,3.0323,3.0694,2.9841,2.7903,2.4597,2.4271,2.3326,2.1265,1.9108,1.8556,1.9886,1.8028,1.6848,1.65,1.6274,1.617,1.617,1.617,1.7528,2.0061,2.1942,2.3577,2.4933,2.5034,2.5586,2.6515,2.757,2.6716,2.5711,3.3822,3.7211,3.7789,3.9195,3.9546,3.917,0.0,3.5303,3.2491,3.2867,3.126,2.8737,2.5912,2.5578,2.5259,2.0966,2.0916,2.1543,1.9233,1.9736,1.9836,1.6191,1.5542,1.5316,1.4004,0.0,0.0,0.0,0.0,0.0,0.0,1.7522,0.0,0.0,0.0,2.8784,0.0,0.0,0.0,0.0,0.0,0.0,0.0,3.9131,3.814,4.0361,4.0969,4.1019,4.0516,4.1019,4.1419,4.1591,4.0895,4.0895,4.1591,4.0844,4.0895,4.1644,4.2812,4.3728,4.4557,4.5438,4.5847,4.5982,4.688,4.7205,4.7298,4.7919,4.9167,5.0713,5.0713,5.0713,5.0713,1.8581,1.9685,2.0817,2.1895,2.3321,2.4782,2.6072,2.703,2.7767,2.8175,2.8772,2.9493,3.0366,3.0,3.014,3.1176,3.1121,2.9635,2.6381,2.6229,2.5522,2.3773,2.0822,1.981,2.1089,1.8832,1.725,1.65,1.635,1.635,1.65,1.635,1.808,2.1365,2.2895,2.5385,2.8398,2.8033,2.7781,2.772,2.9026,2.9478,2.9991,3.6383,3.9346,4.0124,3.9973,3.9923,3.9772,3.8868,3.5881,0.0,3.5906,3.3136,2.885,2.9428,2.8587,2.6716,2.2899,2.3025,2.3421,2.0061,2.0137,2.0087,1.6522,1.5944,1.5814,1.4576,1.4186,0.0,0.0,0.0,0.0,0.0,0.0,1.7685,0.0,1.9427,0.0,0.0,0.0,0.0,0.0,0.0,0.0,0.0,0.0,3.6296,3.9522,3.9697,3.9697,3.9697,3.9697,4.0134,4.1069,4.0185,4.0185,4.1069,4.0134,4.016,4.1071,4.1377,4.2067,4.2995,4.4263,4.4869,4.4945,4.5899,4.6301,4.6301,4.6301,4.7626,4.9481,4.9481,4.9481,4.9481,1.8129,1.9083,2.0188,2.1317,2.2447,2.3697,2.5385,2.492,2.4874,2.6358,2.7134,2.8757,3.1809,3.3149,3.4657,3.6879,3.6617,3.4934,3.1585,2.9307,2.9729,3.3384,2.4716,2.2548,2.8411,2.1744,1.7626,1.65,1.5994,1.5994,1.6475,1.5969,1.6095,1.6951,2.2343,2.4825,2.5227,2.9453,3.337,3.6684,3.5633,3.7464,4.0448,0.0,3.8492,4.1175,4.0676,0.0,0.0,3.6712,3.5508,0.0,0.0,0.0,3.4048,3.1938,3.2767,3.3319,2.8373,2.7092,2.5963,2.1016,1.9811,1.9133,1.6346,1.6568,1.687,1.5211,1.5668,1.6095,0.0,0.0,0.0,0.0,0.0,0.0,0.0,0.0,0.0,0.0,0.0,0.0,0.0,0.0,0.0,0.0,0.0,0.0,3.9295,3.9697,3.9697,3.9697,3.9697,3.9749,3.9749,3.9749,3.9749,3.9749,3.9749,3.9749,3.9799,4.1433,4.2187,4.2368,4.4551,4.5472,4.5497,4.6075,4.6301,4.6301,4.6301,4.6361,4.6421,4.6421,4.6421,4.6421,1.9158,1.956,1.9911,2.0313,2.1594,2.3276,2.5285,2.5965,2.6834,2.851,2.8947,2.9894,3.209,3.238,3.3052,3.4541,3.5143,3.424,3.1335,3.1009,3.0698,3.0239,2.566,2.3927,2.5693,2.1874,1.9108,1.7626,1.7074,1.692,1.7074,1.6497,1.6901,1.8356,2.2794,2.644,2.9352,3.234,3.4776,3.6634,3.6232,3.7764,4.0199,0.0,4.0322,4.125,4.1075,4.1,0.0,3.9294,3.7613,3.6182,3.6709,3.4876,3.2742,3.3822,3.337,0.0,0.0,0.0,3.0733,2.4632,0.0,2.3251,1.7551,1.7124,1.735,1.5311,1.6065,1.6669,0.0,0.0,0.0,0.0,0.0,0.0,0.0,0.0,0.0,0.0,0.0,0.0,0.0,0.0,0.0,0.0,0.0,0.0,0.0,3.9697,3.9697,3.9697,3.9697,3.9697,3.9697,3.9697,3.9697,3.9697,3.9697,3.9898,4.0275,4.1204,4.2007,4.2841,4.4267,4.5121,4.5522,4.6075,4.6301,4.6301,4.6301,4.6301,4.6301,4.6301,4.6301,4.6301,2.0087,1.9936,1.9936,2.0338,2.1456,2.2923,2.4746,2.5637,2.6674,2.8452,2.8653,2.9602,3.2069,3.1901,3.2232,3.3924,3.4417,3.3654,3.1261,3.1536,3.1296,3.0156,2.7512,2.6294,2.6764,2.3754,2.1287,1.9414,1.8635,1.801,1.7551,1.6813,1.7133,1.8462,2.1601,2.5909,3.0984,3.342,3.6107,3.8743,3.8718,3.9623,0.0,0.0,4.143,4.0827,0.0,4.163,4.1555,4.1003,3.9496,3.809,3.9521,3.7387,3.47,3.6483,3.5755,3.4123,3.3144,3.3922,0.0,2.7996,2.7394,0.0,2.0011,0.0,1.9736,1.7926,1.7601,0.0,0.0,0.0,0.0,0.0,0.0,0.0,0.0,1.0758,0.0,0.0,0.0,0.0,0.0,0.0,0.0,0.0,0.0,0.0,0.0,0.0,3.9697,3.9697,3.9697,3.9697,3.9697,3.9697,3.9697,3.9697,3.9697,3.9873,4.0249,4.0949,4.1932,4.3037,4.4141,4.507,4.5799,4.6175,4.6301,4.6301,4.6301,4.6301,4.6301,4.6301,4.6301,4.6301,2.0788,2.0234,2.0206,2.1306,2.1922,2.2676,2.3861,2.3979,2.4593,2.6455,2.6721,2.8149,3.1913,3.1953,3.2693,3.5252,3.4655,3.3418,3.1777,3.1248,3.1725,3.3302,3.0226,2.944,3.1556,2.7195,2.3862,2.1675,2.033,1.9075,1.7903,1.6907,1.667,1.7168,1.8917,2.3431,2.9966,3.2674,3.7338,4.2986,4.2986,4.2911,4.2836,4.2936,4.1605,3.9923,4.1659,4.2263,4.2162,4.1555,4.1028,4.0601,4.0576,4.0174,3.9747,3.9747,3.9722,3.912,3.6411,3.5708,3.4781,3.0984,3.0005,0.0,0.0,0.0,2.4004,0.0,0.0,0.0,0.0,0.0,0.0,0.0,0.0,0.0,0.0,0.0,0.0,0.0,0.0,0.0,0.0,0.0,0.0,0.0,0.0,0.0,0.0,0.0,3.9471,3.9697,3.9697,3.9697,3.9697,3.9697,3.9697,3.9697,3.9722,3.9747,3.9798,4.0902,4.2007,4.3112,4.4166,4.5271,4.6301,4.6301,4.6301,4.6301,4.6301,4.6301,4.6301,4.6301,4.6301,4.6301,2.0418,2.0514,2.076,2.1065,2.1611,2.2564,2.434,2.5385,2.6836,2.9247,3.0567,3.1986,3.3826,3.3921,3.4132,3.4854,3.4668,3.4355,3.3906,3.3357,3.3414,3.4309,3.228,3.1239,3.1532,2.7252,2.4349,2.2929,1.9682,1.8136,1.826,1.7355,1.7026,1.7314,1.881,2.3305,2.9843,3.1608,3.6454,4.2986,4.2986,4.2007,4.0727,0.0,4.1605,3.9973,4.2032,4.276,4.274,4.2133,4.1911,4.1656,4.1254,4.0752,4.03,4.03,4.0023,3.9546,3.8818,3.8617,3.7789,3.4324,3.3144,3.1863,0.0,0.0,0.0,0.0,0.0,0.0,0.0,0.0,0.0,0.0,0.0,0.0,0.0,0.0,0.0,0.0,0.0,0.0,0.0,0.0,0.0,0.0,0.0,0.0,0.0,0.0,0.0,3.9597,3.9697,3.9697,3.9697,3.9697,3.9697,3.9697,4.0099,4.0526,4.0874,4.163,4.276,4.4217,4.4493,4.5271,4.6301,4.6301,4.6301,4.6301,4.6301,4.6301,4.6301,4.6301,4.6301,4.6301,2.098,2.1643,2.2111,2.1625,2.2673,2.4002,2.5311,2.5591,2.6682,2.9472,3.0963,3.2236,3.3461,3.4434,3.5078,3.5254,3.5117,3.4668,3.3906,3.4087,3.401,3.3638,3.3376,3.3103,3.2935,3.0036,2.7366,2.4893,2.1789,1.9457,1.7835,1.6766,1.628,1.6395,1.7865,2.1629,2.7171,3.2147,3.67,4.069,4.2318,4.2233,0.0,4.2509,4.2208,4.1304,4.2534,4.2986,4.2936,4.2665,4.2414,4.2162,4.1781,4.1329,4.0824,4.0824,4.0475,4.0049,4.0049,3.9873,3.9245,3.7362,3.6659,3.5504,3.1913,3.1587,3.1863,0.0,3.0206,2.9679,0.0,0.0,0.0,0.0,0.0,0.0,0.0,0.0,0.0,0.0,0.0,0.0,0.0,0.0,0.0,0.0,0.0,0.0,0.0,0.0,0.0,3.8492,3.8592,3.8944,3.9697,3.8969,3.9094,4.0049,4.0375,4.0802,4.13,4.1907,4.2785,4.3915,4.4166,4.4895,4.5949,4.5949,4.61,4.6301,4.6301,4.6301,4.6301,4.6301,4.6301,4.6301,2.1724,2.2724,2.3264,2.2424,2.4209,2.6008,2.6703,2.5976,2.6328,2.9062,3.0312,3.1406,3.2539,3.4355,3.5625,3.5996,3.5684,3.4824,3.332,3.4258,3.4219,3.2734,3.4082,3.4844,3.4785,3.3497,3.0791,2.6729,2.4512,2.1217,1.7068,1.5789,1.5137,1.5076,1.6602,1.9736,2.4445,3.3576,3.7657,3.8311,4.1823,4.3187,4.3187,4.3187,4.3162,4.3087,4.3087,4.3037,4.2986,4.2986,4.2715,4.2313,4.2313,4.1882,4.1401,4.1401,4.1053,4.0601,4.0526,4.0174,3.9798,3.9722,3.9697,3.8818,3.5429,3.47,3.4876,3.5278,3.2416,3.1863,0.0,0.0,0.0,0.0,0.0,0.0,0.0,0.0,0.0,0.0,0.0,0.0,0.0,0.0,0.0,0.0,0.0,0.0,0.0,0.0,0.0,3.7412,3.7513,3.814,3.9446,0.0,3.8442,4.03,4.0526,4.0902,4.1455,4.2007,4.2615,4.3112,4.3664,4.4518,4.5497,4.5573,4.5874,4.6301,4.6301,4.6301,4.6301,4.6301,4.6301,4.6301,2.1167,2.1739,2.2168,2.2004,2.4349,2.6912,2.8765,2.9741,3.0723,3.1953,3.3809,3.5078,3.5312,3.5684,3.5937,3.6016,3.5957,3.5781,3.5469,3.5664,3.5664,3.5351,3.5625,3.5625,3.5273,3.2979,3.001,2.6468,2.2881,1.9581,1.6522,1.5615,1.4948,1.4579,1.6008,2.0594,2.7717,3.4641,0.0,4.1433,4.3482,4.4342,4.4342,4.4342,4.4066,4.3664,4.3664,4.3363,4.2986,4.2986,4.2911,4.2891,4.2891,4.2459,4.2062,4.2062,4.163,4.105,4.0651,4.045,4.0249,3.9798,3.9697,3.9521,3.8843,3.9044,3.9245,3.8894,3.8919,3.8166,3.5554,0.0,0.0,0.0,0.0,0.0,0.0,0.0,0.0,0.0,0.0,0.0,0.0,0.0,0.0,0.0,0.0,0.0,0.0,0.0,0.0,0.0,3.9245,0.0,0.0,0.0,3.922,3.917,4.0551,4.148,4.2087,4.264,4.3137,4.3689,4.4242,4.4869,4.5522,4.5974,4.6225,4.6301,4.6301,4.6301,4.6301,4.6301,4.6301,4.6301,2.1489,2.2221,2.3164,2.4062,2.6523,2.9023,3.0937,3.2734,3.3594,3.2891,3.3691,3.4355,3.4355,3.5351,3.6016,3.6016,3.6016,3.6016,3.6016,3.6016,3.6016,3.6016,3.6016,3.5918,3.5723,3.4492,3.1504,2.6719,2.3926,2.0425,1.6225,1.4908,1.4185,1.4074,1.7233,2.1561,2.7019,0.0,0.0,4.0715,4.3499,4.4618,4.4618,4.4618,4.4468,4.4192,4.389,4.3639,4.3363,4.3062,4.2986,4.2986,4.2986,4.2785,4.264,4.264,4.2183,4.1706,4.143,4.0953,4.045,4.0199,3.9898,3.9697,3.9697,3.9898,4.0099,4.0124,4.0551,3.9572,3.5152,3.0667,0.0,0.0,0.0,0.0,0.0,0.0,0.0,0.0,0.0,0.0,0.0,0.0,0.0,0.0,0.0,0.0,0.0,0.0,0.0,0.0,0.0,0.0,0.0,0.0,0.0,4.0174,4.1254,4.2057,4.264,4.2861,4.3112,4.3388,4.3664,4.4242,4.5095,4.5949,4.6301,4.6301,4.6301,4.6301,4.6301,4.6301,4.6301,4.6301,2.2734,2.3652,2.4922,2.6738,2.9101,3.1211,3.2578,3.4629,3.541,3.3711,3.3476,3.3476,3.3476,3.5,3.6016,3.6016,3.6016,3.6016,3.6016,3.6016,3.6016,3.6016,3.6016,3.6016,3.6016,3.6016,3.334,2.7832,2.5625,2.1875,1.6731,1.4609,1.4082,1.5039,1.9098,0.0,0.0,0.0,3.7356,3.9762,4.306,4.4593,4.4995,4.4995,4.492,4.4744,4.4317,4.4016,4.374,4.3288,4.3062,4.2986,4.2986,4.2986,4.2986,4.2986,4.2715,4.2363,4.2238,4.153,4.0802,4.0576,4.0199,3.9848,3.9722,3.9697,3.9823,4.0249,4.0425,3.9396,3.5708,3.2729,0.0,0.0,0.0,0.0,0.0,0.0,0.0,0.0,0.0,0.0,0.0,0.0,0.0,0.0,0.0,0.0,0.0,0.0,0.0,0.0,0.0,3.6793,3.7892,0.0,3.9371,4.0949,4.1781,4.2489,4.2986,4.2986,4.2986,4.2986,4.3112,4.379,4.4895,4.5899,4.6301,4.6301,4.6301,4.6301,4.6301,4.6301,4.6301,4.6301,2.5508,2.6055,2.6797,2.8906,3.1094,3.2598,3.2773,3.4629,3.5937,3.5742,3.5723,3.5723,3.5723,3.5898,3.6016,3.6016,3.6016,3.6016,3.6016,3.6016,3.6016,3.6016,3.6016,3.6016,3.6016,3.6016,3.4219,0.0,0.0,2.293,1.8906,1.5595,1.5927,1.9375,0.0,0.0,0.0,3.3179,3.6894,4.1153,4.3035,4.4744,4.615,4.615,4.5849,4.5397,4.5347,4.4669,4.379,4.374,4.3388,4.2986,4.2986,4.2986,4.2986,4.2986,4.2936,4.2841,4.2338,4.2137,4.181,4.0777,4.0475,4.03,3.9798,3.9697,3.9697,3.9747,4.0174,3.9647,3.6784,3.8341,3.7916,0.0,0.0,0.0,0.0,0.0,3.1311,0.0,0.0,0.0,0.0,0.0,0.0,0.0,0.0,0.0,0.0,0.0,0.0,3.3216,0.0,3.2995,3.2098,3.7518,4.0149,3.9873,4.1458,4.2489,4.2986,4.2986,4.2986,4.3011,4.3514,4.4367,4.5447,4.6075,4.6301,4.6301,4.6301,4.6301,4.6301,4.6301,4.6301,4.6301,2.8105,2.8301,2.8984,3.1133,3.2226,3.3223,3.4531,3.5469,3.6016,3.6016,3.6016,3.6016,3.6016,3.6016,3.6016,3.6016,3.6016,3.6016,3.6016,3.6016,3.6016,3.6016,3.6016,3.6016,3.6016,3.6016,3.4453,0.0,0.0,2.4141,2.0801,1.8887,1.9785,2.3125,0.0,2.8927,3.258,3.5537,3.8483,4.1245,4.1947,4.3232,4.4767,4.4767,4.528,4.5949,4.5598,4.5196,4.4719,4.4041,4.3438,4.2986,4.2986,4.2986,4.2986,4.2986,4.2986,4.2936,4.2766,4.2464,4.2011,4.1204,4.0752,4.0375,3.9823,3.9697,3.9697,3.9697,4.04,4.0623,3.952,3.849,3.7643,0.0,0.0,0.0,0.0,0.0,0.0,0.0,0.0,0.0,0.0,0.0,0.0,0.0,0.0,0.0,0.0,0.0,0.0,3.0482,0.0,3.6324,3.4881,3.8892,4.1053,4.1232,4.2238,4.276,4.2986,4.2986,4.2986,4.3037,4.3915,4.4543,4.5045,4.5949,4.6301,4.6301,4.6301,4.6301,4.6301,4.6301,4.6301,4.6301,3.0391,3.0527,3.1191,3.3359,3.375,3.4258,3.5781,3.6016,3.6016,3.6016,3.6016,3.6016,3.6016,3.6016,3.6016,3.6016,3.6016,3.6016,3.6016,3.6016,3.6016,3.6016,3.6016,0.0,3.6016,3.6016,3.498,3.2832,2.9394,0.0,2.4297,2.2793,2.3769,0.0,2.9453,3.1936,3.4343,3.6797,3.8861,4.0408,4.0408,4.1437,4.2958,4.2958,4.3731,4.4841,4.4899,4.4858,4.467,4.4394,4.3815,4.3187,4.3037,4.2986,4.2986,4.2986,4.2986,4.2986,4.2986,4.274,4.2313,4.1706,4.1178,4.0601,4.0074,3.9798,3.9747,3.9898,4.0676,4.1326,4.1555,3.9461,3.8288,4.0019,0.0,0.0,0.0,3.9195,0.0,0.0,3.4621,3.2378,3.2484,0.0,0.0,0.0,0.0,0.0,0.0,0.0,0.0,0.0,0.0,0.0,0.0,3.9844,4.1781,4.2213,4.271,4.2986,4.2986,4.2986,4.3062,4.3263,4.4217,4.4719,4.4945,4.5924,4.6301,4.6301,4.6301,4.6301,4.6301,4.6301,4.6301,4.6301,3.2344,3.2754,3.3437,3.5605,3.5976,3.5996,3.6016,3.6016,3.6016,3.6016,3.6016,3.6016,3.6016,3.6016,3.6016,3.6016,3.6016,3.6016,3.6016,3.6016,3.6016,0.0,0.0,3.6016,3.6016,3.6016,3.5996,3.5976,0.0,0.0,3.0019,2.707,2.7519,3.084,3.1289,3.3164,3.5957,3.5996,3.7059,3.8597,3.8597,3.9714,4.1245,4.1245,4.1245,4.1501,4.3146,4.3374,4.319,4.4888,4.4719,4.3689,4.3162,4.2986,4.2986,4.2986,4.2986,4.2986,4.2986,4.2961,4.2836,4.2338,4.1731,4.1125,4.0626,4.0099,3.9848,4.04,4.0899,4.1505,4.2112,4.2559,4.1831,3.8567,0.0,0.0,0.0,3.7211,0.0,3.4149,2.8514,2.6967,3.2465,0.0,0.0,0.0,0.0,0.0,0.0,0.0,0.0,3.3616,3.3811,0.0,3.4619,3.9663,4.2213,4.2213,4.271,4.2986,4.2986,4.2986,4.3263,4.3815,4.4392,4.4945,4.5522,4.6075,4.6301,4.6301,4.6301,4.6301,4.6301,4.6301,4.6301,4.6301,3.5351,3.543,3.5742,3.6719,3.666,3.6562,3.6836,3.6894,3.6894,3.6894,3.6894,3.6894,3.6894,3.6367,3.6016,0.0,3.6016,3.6016,0.0,3.6016,3.6016,3.6016,3.6016,3.6016,3.6016,3.6016,3.6016,3.6016,0.0,0.0,0.0,3.0566,3.1641,3.4394,3.4531,3.5117,3.6016,3.6016,3.6336,3.6789,3.6789,3.7888,3.9453,3.9453,4.0148,4.1245,4.182,4.2613,4.3483,4.3638,4.4309,4.4794,4.384,4.3288,4.2986,4.2986,4.2986,4.2986,4.2986,4.2986,4.2836,4.2338,4.2087,4.1656,4.0727,4.0099,3.9747,3.9923,4.04,4.0953,4.1505,4.2057,4.2263,4.1505,4.1831,0.0,4.0779,0.0,3.9719,3.9014,3.7194,3.6571,0.0,3.3482,0.0,0.0,0.0,0.0,0.0,0.0,0.0,0.0,3.6203,0.0,3.7543,4.0648,4.2389,4.2766,4.2886,4.2986,4.2986,4.2986,4.3288,4.384,4.4392,4.4945,4.5522,4.6075,4.6301,4.6301,4.6301,4.6301,4.6301,4.6301,4.6301,4.6301,3.6953,3.6914,3.6992,3.7246,3.709,3.6992,3.7266,3.7305,3.7305,3.7305,3.7305,3.7305,3.7305,3.6816,0.0,3.6289,3.6113,3.6016,3.6016,3.6016,3.6016,3.6016,3.6016,3.6016,3.6016,3.6016,0.0,3.6016,3.4414,3.3613,3.3613,3.3613,3.4473,3.6016,3.6016,3.6016,3.6016,3.6016,3.6016,3.6016,3.6016,3.6674,3.7642,3.7642,3.8287,3.9322,3.9953,4.0924,4.1942,4.2894,4.3808,4.4526,4.4469,4.3915,4.3237,4.3037,4.2986,4.2986,4.2986,4.2986,4.2886,4.2615,4.2363,4.1911,4.0777,4.0249,3.9948,3.9747,4.0124,4.0676,4.1175,4.1781,4.2389,4.2886,4.274,4.2514,4.2514,0.0,4.0996,0.0,0.0,0.0,0.0,3.61,0.0,0.0,0.0,0.0,0.0,0.0,0.0,3.4466,3.9142,0.0,4.0478,4.1835,4.2388,4.2093,4.2093,4.2432,4.2986,4.2986,4.3388,4.4141,4.4468,4.507,4.5824,4.6175,4.6301,4.6301,4.6301,4.6301,4.6301,4.6301,4.6301,4.6301,3.7344,3.7344,3.7344,3.7383,3.7363,3.7344,3.7383,3.7383,3.7383,3.7383,3.7383,3.7383,3.7383,3.7363,3.7187,3.6797,0.0,0.0,3.6074,3.6074,3.6055,3.6016,3.6016,3.6016,3.6016,3.6016,3.6016,3.6016,3.6016,3.6016,3.6016,3.6016,3.6016,3.6016,3.6016,3.6016,3.6016,3.6016,3.6016,3.6016,3.6016,3.6016,3.6016,3.6016,3.6016,3.6219,3.7822,3.8465,3.9125,4.2241,4.3151,4.3177,4.4674,4.4511,4.3619,4.3212,4.3011,4.2986,4.2986,4.2986,4.2986,4.2986,4.2615,4.1936,4.0852,4.0601,4.0425,3.9873,4.0199,4.0727,4.12,4.1781,4.2389,4.2886,4.2986,4.2986,4.2986,4.259,4.0693,0.0,0.0,0.0,0.0,3.5131,3.6702,0.0,0.0,0.0,0.0,0.0,3.3068,4.1773,4.2073,4.2268,4.2681,4.2681,4.1899,4.0419,4.0534,4.1362,4.2849,4.3011,4.3614,4.4618,4.4669,4.5296,4.6301,4.6301,4.6301,4.6301,4.6301,4.6301,4.6301,4.6301,4.6301,4.6301,0.0,0.0,3.7891,3.8223,3.7988,3.7891,3.8223,3.8281,3.8281,3.8281,3.8281,3.8281,3.8281,3.7969,3.7734,3.7637,3.7246,3.6855,3.6543,3.6523,3.6367,3.6035,3.6016,3.6016,3.6016,3.6016,3.6016,3.6016,3.6016,3.6016,3.6016,3.6016,3.6016,3.6016,3.6016,3.6016,3.6016,3.6016,3.6016,3.6016,3.6016,3.6016,3.6016,3.6016,3.6016,3.6084,3.6471,3.7441,3.8729,3.9497,4.1474,4.3284,4.1932,4.2268,4.3203,4.3522,4.3313,4.2986,4.2986,4.2986,4.2986,4.2986,4.2615,4.2137,4.1886,4.143,4.0924,4.0425,4.0752,4.1125,4.125,4.1781,4.2389,4.2886,4.2986,4.2986,4.2986,4.2861,4.2434,0.0,4.1118,4.0868,4.0467,4.0417,3.9237,0.0,0.0,0.0,0.0,3.3838,3.4604,4.0194,4.0781,4.0473,3.9347,3.9347,3.917,3.8757,4.0012,4.0765,4.1215,4.2878,4.3991,4.4644,4.5095,4.5673,4.6301,4.6301,4.6301,4.6301,4.6301,4.6301,4.6301,4.6301,4.6301,4.6301,3.8555,3.8359,3.8301,3.8535,3.8379,3.8301,3.8535,3.8574,3.8574,3.8574,3.8574,3.8574,3.8574,3.8359,3.8223,3.8223,3.7656,3.7207,3.6973,3.6953,3.6758,3.6328,3.6309,3.623,3.6016,3.6016,3.6016,3.6016,3.6016,3.6016,3.6016,3.6016,3.6016,3.6016,3.6016,3.6016,3.6016,3.6016,3.6016,3.6016,3.6016,3.6016,3.6016,3.6016,3.6016,3.6016,3.6016,3.6606,3.7508,3.8353,3.9823,4.1306,4.0845,4.1029,4.1475,4.184,4.2021,4.216,4.1972,4.2432,4.2986,4.2986,4.276,4.2514,4.2263,4.1932,4.1555,4.1003,4.1075,4.1351,4.1656,4.1957,4.2389,4.2886,4.2035,4.1471,4.1825,4.1538,4.1167,4.0832,4.1476,4.1493,4.0497,4.0359,3.9213,3.6456,3.6239,0.0,3.6714,3.591,3.6893,4.0059,3.9732,3.9111,3.8223,3.7506,3.7506,3.8223,3.832,3.8794,3.9545,4.0963,4.1839,4.2365,4.2914,4.3439,4.4003,4.4003,4.4436,4.5074,4.5074,4.5611,4.6301,4.6301,4.6301,4.6301,3.9101,3.8828,3.8574,3.8574,3.8574,3.8574,3.8574,3.8574,3.8574,3.8574,3.8574,3.8574,3.8574,3.8574,3.8574,3.8574,3.791,3.7461,3.7402,3.7402,3.7168,3.6699,3.668,3.6465,3.6035,3.6016,3.6016,3.6016,3.6016,3.6016,3.6016,3.6016,3.6016,3.6016,3.6016,3.6016,3.6016,3.6016,3.6016,3.6016,3.6016,3.6016,3.6016,3.6016,3.6016,3.6016,3.6016,3.6016,3.6219,3.7709,3.842,3.8795,4.0018,4.0027,3.9467,3.9063,3.9695,4.0561,4.0584,4.1785,4.2986,4.2986,4.2986,4.2861,4.2439,4.2389,4.2178,4.1355,4.1325,4.1469,4.1577,4.1645,4.17,4.1613,4.0193,3.9211,3.9543,0.0,3.8914,3.823,3.9405,3.9698,3.8342,3.8223,3.8223,3.8223,3.8223,3.8223,3.8223,3.7985,3.8461,3.9814,3.858,3.7746,3.7506,3.6112,3.6112,3.7445,3.6356,3.6539,3.7865,3.8624,3.9238,3.9725,4.0222,4.0714,4.1181,4.1181,4.2011,4.3333,4.3606,4.462,4.5914,4.618,4.6301,4.6301,3.8672,3.8613,3.8574,3.8574,3.8574,3.8574,3.8574,3.8574,3.8574,3.8574,3.8574,3.8574,3.8574,3.8574,3.8574,3.8574,3.8457,3.8223,3.7851,3.7832,3.748,3.6699,3.668,3.6465,3.6035,3.6016,3.6016,3.6016,3.6016,3.6016,3.6016,3.6016,3.6016,3.6016,3.6016,3.6016,3.6016,3.6016,3.6016,3.6016,3.6016,3.6016,3.6016,3.6016,3.6016,3.6016,3.6016,3.6016,3.6016,3.6336,3.7374,3.842,3.7193,3.7739,3.8371,3.6107,3.6531,3.8152,4.0071,4.1785,4.2986,4.2986,4.2986,4.2961,4.2861,4.3212,4.2967,4.0989,4.1301,4.1306,3.9075,3.9044,3.848,3.5584,3.6992,3.7553,3.5106,3.687,3.834,3.8201,3.8402,3.8461,3.8223,3.8223,3.8223,3.8223,3.8223,3.8223,3.8223,3.6881,3.6295,3.6517,3.6274,3.552,3.4153,3.3902,3.3902,3.4153,3.5273,3.5928,3.6255,3.8552,3.9635,3.9747,4.0666,4.1114,4.1181,4.1181,4.1373,4.1756,4.3146,4.3855,4.4312,4.5732,4.6301,4.6301,3.9297,3.8906,3.8574,3.8574,3.8574,3.8574,3.8574,3.8574,3.8574,3.8574,3.8574,3.8574,3.8574,3.8574,3.8574,3.8574,3.8574,3.8496,3.8281,3.8281,3.7988,3.7363,3.7129,3.6699,3.6035,3.6016,3.6016,3.6016,3.6016,3.6016,3.6016,3.6016,3.6016,3.6016,3.6016,3.6016,3.6016,3.6016,3.6016,3.6016,3.6016,3.6016,3.6016,3.6016,3.6016,3.6016,3.6016,3.6016,3.6055,3.6289,3.6896,3.7421,3.6642,3.6964,3.728,3.5854,3.586,3.6848,3.8752,4.0024,4.0715,4.049,4.1211,4.2029,4.2086,4.302,4.3562,4.2815,4.2362,4.1696,4.0426,3.9696,3.8611,3.6815,3.6545,3.6177,3.5011,3.5649,3.608,3.5641,3.6356,3.6599,3.5704,3.5581,3.5581,3.5581,3.5581,3.5581,3.5581,3.4922,3.4487,3.4487,3.4487,3.4133,3.3418,3.3418,3.3418,3.3418,3.4372,3.4851,3.4954,3.6616,3.7353,3.7395,3.8127,3.842,3.842,3.842,3.8927,3.9888,4.0666,4.2051,4.3793,4.462,4.5464,4.6301,3.9726,3.9101,3.8574,3.8574,3.8574,3.8574,3.8574,3.8574,3.8574,3.8574,3.8574,3.8574,3.8574,3.8574,3.8574,3.8574,3.8574,3.8574,3.8574,3.8574,3.8379,3.7949,3.7422,3.6836,3.6191,3.6074,3.6016,3.6016,3.6016,3.6016,3.6016,3.6016,3.6016,3.6016,3.6016,3.6016,3.6016,3.6016,3.6016,3.6016,3.6016,3.6016,3.6035,3.6133,3.6172,3.6191,3.6289,3.6309,3.6367,3.6699,3.6816,3.6816,3.6816,3.6816,3.6719,3.6172,3.5801,3.5894,3.7532,3.8487,3.8969,3.8589,3.9671,4.0808,4.095,4.2016,4.3022,4.2998,4.2121,4.113,4.0624,3.9423,3.8155,3.7079,3.59,3.4901,3.4445,3.4364,3.4146,3.3466,3.4487,3.4736,3.3544,3.3418,3.3418,3.3418,3.3418,3.3418,3.3418,3.3418,3.3418,3.3418,3.3418,3.3418,3.3418,3.3418,3.3476,3.3574,3.3906,3.4121,3.4238,3.5039,3.5391,3.541,3.584,3.6016,3.6016,3.6016,3.6789,3.8021,3.842,4.0213,4.258,4.2958,4.3989,4.527,3.9258,3.8887,3.8574,3.8574,3.8574,3.8574,3.8574,3.8574,3.8574,3.8574,3.8574,3.8574,3.8574,3.8574,3.8574,3.8574,3.8574,3.8574,3.8574,3.8574,3.8379,3.7949,3.7148,3.668,3.6621,3.623,3.6016,3.6016,3.6016,3.6016,3.6016,3.6016,3.6016,3.6016,3.6016,3.6016,3.6016,3.6016,3.6016,3.6016,3.6016,3.6016,3.6055,3.6465,3.6621,3.668,3.707,3.7207,3.7207,3.7246,3.7246,3.7246,3.7246,3.7246,3.709,3.6269,3.5418,3.5111,3.6725,3.8306,3.9427,3.9405,3.9551,3.9635,3.9635,4.0095,4.0141,3.8616,3.859,3.8235,3.6236,3.5798,3.4665,3.1386,3.3021,3.3627,3.0522,3.2389,3.3917,3.3457,3.3481,3.3544,3.3418,3.3418,3.3418,3.3418,3.3418,3.3418,3.3418,3.3418,3.3418,3.3418,3.3418,3.3418,3.3418,3.3418,3.3633,3.4023,3.4062,3.4277,3.4668,3.5176,3.5391,3.541,3.584,3.6016,3.6016,3.6016,3.6084,3.6336,3.7955,3.8729,3.919,4.0795,4.1708,4.2091,4.0371,3.9434,3.8652,3.8926,3.875,3.8574,3.8574,3.8574,3.8574,3.8574,3.8574,3.8574,3.8574,3.8574,3.8574,3.8574,3.8574,3.8574,3.8574,3.8574,3.8379,3.7949,3.7363,3.6934,3.668,3.625,3.6016,3.6016,3.6016,3.6016,3.6016,3.6016,3.6016,3.6016,3.6016,3.6016,3.6016,3.6016,3.6172,3.6426,3.6426,3.6582,3.6836,3.6992,3.7051,3.709,3.7246,3.7305,3.7344,3.7598,3.7676,3.7676,3.7676,3.7871,3.791,3.707,3.6582,3.6328,3.6383,3.6664,3.69,3.6591,3.7486,3.8466,3.8508,3.9465,4.0256,3.9949,3.9193,3.8357,3.755,3.6482,3.5273,3.3691,3.4394,3.457,3.2969,3.373,3.4394,3.4238,3.3984,3.3828,3.3828,3.3574,3.3418,3.3418,3.3418,3.3418,3.3418,3.3418,3.3418,3.3418,3.3418,3.3418,3.3418,3.3691,3.3906,3.4082,3.4629,3.498,3.5137,3.5586,3.5781,3.5801,3.5957,3.6016,3.6035,3.6309,3.6426,3.6514,3.7439,3.846,3.9525,4.0177,4.1131,4.2148,4.1308,4.0195,3.9238,3.9394,3.9062,3.873,3.8594,3.8574,3.8574,3.8574,3.8574,3.8574,3.8574,3.8574,3.8574,3.8574,3.8574,3.8574,3.8574,3.8574,3.8437,3.8144,3.7715,3.7305,3.6875,3.6445,3.6152,3.6016,3.6016,3.6016,3.6016,3.6016,3.6016,3.6016,3.6016,3.6016,3.6016,3.6016,3.6269,3.668,3.668,3.6914,3.7305,3.7441,3.75,3.7519,3.7656,3.7695,3.7734,3.8027,3.8125,3.8125,3.8125,3.8242,3.8223,3.75,3.7207,3.6934,3.6211,3.5801,3.5508,3.5195,3.6176,3.7237,3.7303,3.818,3.9088,3.9497,3.8597,3.7775,3.7775,3.6789,3.5918,3.5644,3.5586,3.543,3.498,3.4922,3.4863,3.4726,3.4453,3.4277,3.4277,3.4004,3.3828,3.3828,3.3711,3.3574,3.3437,3.3418,3.3418,3.3418,3.3555,3.3633,3.3633,3.3926,3.4219,3.4492,3.5098,3.5469,3.5605,3.5879,3.6094,3.623,3.623,3.6309,3.6445,3.6738,3.6875,3.6894,3.7187,3.8037,3.9109,3.9109,3.9929,4.0972,4.1797,4.1113,4.0391,3.998,3.9512,3.9062,3.8652,3.8574,3.8574,3.8574,3.8574,3.8574,3.8574,3.8574,3.8574,3.8574,3.8574,3.8574,3.8574,3.8574,3.8574,3.8574,3.8164,3.7734,3.7305,3.6894,3.6465,3.6016,3.6016,3.6016,3.6016,3.6016,3.6016,3.6016,3.6016,3.6016,3.6035,3.6035,3.6289,3.668,3.668,3.6934,3.7344,3.7773,3.793,3.7988,3.8418,3.8574,3.8574,3.8574,3.8574,3.8574,3.8574,3.8281,3.7851,3.7422,3.7012,3.6582,3.6133,3.6016,3.6016,3.6016,3.6016,3.6016,3.6016,3.6016,3.6016,3.6016,3.6016,3.6016,3.6016,3.6016,3.6016,3.6016,3.6016,3.5879,3.5449,3.5391,3.5234,3.4766,3.4707,3.4707,3.4707,3.4707,3.4707,3.4707,3.4316,3.3887,3.3457,3.3437,3.3437,3.3437,3.3867,3.4082,3.4082,3.4082,3.4531,3.5391,3.5391,3.5625,3.6035,3.6035,3.6269,3.668,3.668,3.6914,3.7305,3.7305,3.7305,3.7305,3.7305,3.7305,3.7305,3.7305,3.7578,3.793,4.1855,4.1113,4.0488,4.0351,3.998,3.9531,3.9082,3.9004,3.8906,3.8613,3.8574,3.8574,3.8574,3.8574,3.8574,3.8574,3.8574,3.8574,3.8574,3.8574,3.8574,3.8574,3.8164,3.7734,3.7305,3.6894,3.6465,3.6016,3.6016,3.6016,3.6016,3.6016,3.6016,3.6016,3.6016,3.6191,3.6484,3.6484,3.6894,3.7539,3.7539,3.7812,3.8203,3.834,3.8379,3.8398,3.8535,3.8574,3.8574,3.8574,3.8574,3.8574,3.8574,3.8476,3.8242,3.7519,3.7207,3.6953,3.6211,3.6016,3.6016,3.6016,3.6016,3.6016,3.6016,3.6016,3.6016,3.6016,3.6016,3.6016,3.6016,3.6016,3.6016,3.6016,3.6016,3.5976,3.5859,3.584,3.5781,3.5644,3.5371,3.5176,3.5176,3.4883,3.4707,3.4707,3.459,3.459,3.4805,3.4805,3.4941,3.5234,3.5371,3.5449,3.5449,3.5137,3.5137,3.5391,3.5684,3.6055,3.6484,3.6484,3.6699,3.7109,3.7109,3.7187,3.7324,3.7617,3.7734,3.7773,3.8066,3.8184,3.8184,3.8184,3.8281,3.8379,4.2383,4.1758,4.1172,4.084,4.043,4.0,3.9551,3.9316,3.9101,3.8848,3.8672,3.8574,3.8574,3.8574,3.8574,3.8574,3.8574,3.8574,3.8574,3.8574,3.8574,3.8574,3.832,3.791,3.7305,3.7051,3.6621,3.6016,3.6016,3.6016,3.6016,3.6016,3.6016,3.6035,3.6191,3.6426,3.668,3.6855,3.7305,3.793,3.793,3.8184,3.8574,3.8574,3.8574,3.8574,3.8574,3.8574,3.8574,3.8574,3.8574,3.8574,3.8574,3.8457,3.8184,3.75,3.7187,3.6894,3.6211,3.6016,3.6016,3.6016,3.6016,3.6016,3.6016,3.6016,3.6016,3.6016,3.6016,3.6016,3.6016,3.6016,3.6016,3.6016,3.6016,3.6016,3.6016,3.6016,3.6016,3.6016,3.5801,3.5644,3.5644,3.5391,3.5156,3.498,3.498,3.5019,3.5117,3.5293,3.5508,3.5762,3.6094,3.6289,3.6289,3.6191,3.6055,3.5898,3.6328,3.666,3.6914,3.6914,3.7148,3.7539,3.7539,3.7637,3.7812,3.8086,3.8184,3.8203,3.8476,3.8574,3.8574,3.8574,3.8574,3.8574,4.3066,4.2676,4.2168,4.1328,4.084,4.043,4.0019,3.959,3.9297,3.9219,3.8867,3.8613,3.8574,3.8574,3.8574,3.8574,3.8574,3.8574,3.8574,3.8574,3.8574,3.8574,3.8574,3.8184,3.7324,3.7305,3.6875,3.6016,3.6016,3.6016,3.6016,3.6016,3.6035,3.6094,3.6484,3.6719,3.6816,3.7187,3.7598,3.7988,3.7988,3.8223,3.8574,3.8574,3.8574,3.8574,3.8574,3.8574,3.8574,3.8574,3.8574,3.8574,3.8574,3.8301,3.7891,3.748,3.7051,3.6641,3.6191,3.6055,3.6016,3.6016,3.6016,3.6016,3.6016,3.6016,3.6016,3.6016,3.6016,3.6016,3.6016,3.6016,3.6016,3.6016,3.6016,3.6016,3.6016,3.6016,3.6016,3.6016,3.6016,3.6016,3.6016,3.6016,3.5859,3.5488,3.5449,3.5293,3.4941,3.5332,3.5605,3.5684,3.6426,3.6816,3.6777,3.7207,3.7187,3.6738,3.7109,3.7324,3.7344,3.7344,3.7578,3.7988,3.7988,3.8203,3.8574,3.8574,3.8574,3.8574,3.8574,3.8574,3.8574,3.8574,3.8574,3.8574,4.2285,4.2266,4.2168,4.1328,4.1094,4.0879,4.0449,4.0293,3.998,3.9297,3.9121,3.8945,3.8613,3.8574,3.8574,3.8574,3.8574,3.8574,3.8574,3.8574,3.8574,3.8574,3.8574,3.8184,3.7324,3.7305,3.6875,3.6016,3.6016,3.6016,3.6016,3.6016,3.6211,3.6543,3.6621,3.7031,3.7656,3.7754,3.8047,3.8437,3.8437,3.8496,3.8574,3.8574,3.8574,3.8574,3.8574,3.8574,3.8574,3.8574,3.8574,3.8574,3.8574,3.8516,3.8359,3.791,3.75,3.707,3.6641,3.6289,3.6016,3.6016,3.6016,3.6016,3.6016,3.6016,3.6016,3.6016,3.6016,3.6016,3.6016,3.6016,3.6016,3.6016,3.6016,3.6016,3.6016,3.6016,3.6016,3.6016,3.6016,3.6016,3.6016,3.6016,3.5976,3.5898,3.5879,3.6133,3.6699,3.6836,3.7187,3.7871,3.8066,3.8008,3.7656,3.8086,3.791,3.7168,3.7246,3.7461,3.7793,3.7793,3.8027,3.8437,3.8437,3.8496,3.8574,3.8574,3.8574,3.8574,3.8574,3.8574,3.8574,3.8574,3.8574,3.8574,4.2305,4.2285,4.2168,4.1328,4.1172,4.1094,4.0859,4.0664,4.0351,3.9883,3.9473,3.9121,3.8906,3.8691,3.8574,3.8574,3.8574,3.8574,3.8574,3.8574,3.8574,3.8574,3.8574,3.8184,3.7324,3.7305,3.6875,3.6016,3.6016,3.6016,3.6016,3.6016,3.6152,3.6387,3.6797,3.7207,3.7656,3.8066,3.8359,3.8574,3.8574,3.8574,3.8574,3.8574,3.8574,3.8574,3.8574,3.8574,3.8574,3.8574,3.8574,3.8574,3.8574,3.8437,3.8223,3.7988,3.7637,3.7207,3.6777,3.6504,3.6289,3.6074,3.6016,3.6016,3.6016,3.6016,3.6016,3.6016,3.6016,3.6016,3.6016,3.6016,3.6016,3.6016,3.6016,3.6016,3.6016,3.6016,3.6016,3.6016,3.6016,3.6016,3.6016,3.6016,3.6016,3.6016,3.6211,3.6523,3.6973,3.7383,3.7812,3.8242,3.8476,3.8457,3.8242,3.8457,3.834,3.791,3.791,3.8027,3.8223,3.8223,3.8359,3.8574,3.8574,3.8574,3.8574,3.8574,3.8574,3.8574,3.8574,3.8574,3.8574,3.8574,3.8574,3.8574,4.2578,4.2363,4.207,4.1308,4.1172,4.1172,4.1172,4.0859,4.0605,4.0527,3.9824,3.9297,3.9219,3.8828,3.8574,3.8574,3.8574,3.8574,3.8574,3.8574,3.8574,3.8574,3.8574,3.8203,3.7422,3.7324,3.6875,3.6016,3.6016,3.6016,3.6016,3.6094,3.6172,3.6269,3.7051,3.7441,3.7559,3.8281,3.8574,3.8574,3.8574,3.8574,3.8574,3.8574,3.8574,3.8574,3.8574,3.8574,3.8574,3.8574,3.8574,3.8574,3.8574,3.832,3.8027,3.8027,3.7734,3.7324,3.6973,3.6836,3.668,3.623,3.6133,3.6113,3.6035,3.6016,3.6016,3.6016,3.6016,3.6016,3.6016,3.6016,3.6016,3.6016,3.6016,3.6016,3.6016,3.6016,3.6016,3.6016,3.6016,3.6016,3.6016,3.6016,3.6016,3.6016,3.6426,3.6699,3.6777,3.75,3.7969,3.8027,3.8379,3.8574,3.8574,3.8574,3.8574,3.8574,3.8574,3.8574,3.8574,3.8574,3.8574,3.8574,3.8574,3.8574,3.8574,3.8574,3.8574,3.8574,3.8574,3.8574,3.8574,3.8574,3.8574,3.8574,4.2519,4.2129,4.1738,4.125,4.1172,4.1172,4.1172,4.1133,4.0957,4.0566,4.0098,3.9648,3.9238,3.8828,3.8574,3.8574,3.8574,3.8574,3.8574,3.8574,3.8574,3.8574,3.8574,3.834,3.7851,3.748,3.6875,3.6016,3.6016,3.6016,3.6035,3.6406,3.6777,3.7148,3.7617,3.8047,3.8418,3.8535,3.8574,3.8574,3.8574,3.8574,3.8574,3.8574,3.8574,3.8574,3.8574,3.8574,3.8574,3.8574,3.8574,3.8574,3.8574,3.8535,3.8496,3.8496,3.8184,3.7832,3.7773,3.748,3.7109,3.6699,3.6582,3.6484,3.6113,3.6016,3.6016,3.6016,3.6016,3.6016,3.6016,3.6016,3.6016,3.6016,3.6016,3.6016,3.6016,3.6016,3.6016,3.6016,3.6016,3.6016,3.6016,3.6016,3.6016,3.6016,3.6426,3.6836,3.7187,3.7676,3.8105,3.8476,3.8555,3.8574,3.8574,3.8574,3.8574,3.8574,3.8574,3.8574,3.8574,3.8574,3.8574,3.8574,3.8574,3.8574,3.8574,3.8574,3.8574,3.8574,3.8574,3.8574,3.8574,3.8574,3.8574,3.8574,4.2246,4.2109,4.1953,4.1289,4.1172,4.1172,4.1172,4.1172,4.1113,4.0918,4.0508,4.0078,3.9629,3.8984,3.8574,3.8574,3.8574,3.8574,3.8574,3.8574,3.8574,3.8574,3.8574,3.8359,3.793,3.7519,3.6992,3.6387,3.6387,3.625,3.6035,3.6699,3.6992,3.6973,3.7637,3.8027,3.8223,3.8476,3.8574,3.8574,3.8574,3.8574,3.8574,3.8574,3.8574,3.8574,3.8574,3.8574,3.8574,3.8574,3.8574,3.8574,3.8574,3.8574,3.8574,3.8574,3.8437,3.8223,3.7988,3.7793,3.7539,3.7129,3.6836,3.6621,3.6426,3.6191,3.6016,3.6016,3.6016,3.6016,3.6016,3.6016,3.6016,3.6016,3.6016,3.6016,3.6016,3.6016,3.6016,3.6016,3.6016,3.6016,3.6016,3.6016,3.6113,3.6367,3.6777,3.7207,3.7617,3.8047,3.8379,3.8574,3.8574,3.8574,3.8574,3.8574,3.8574,3.8574,3.8574,3.8574,3.8574,3.8574,3.8574,3.8574,3.8574,3.8574,3.8574,3.8574,3.8574,3.8574,3.8574,3.8574,3.8574,3.8574,3.8574,3.8574]}]]